[[{"header":{"parameterUnit":"m.s-1","parameterCategory":1,"la1":30.6,"la2":29.2853,"lo1":-89.7004,"lo2":-87.6739,"dy":0.0162,"dx":0.0183,"nx":112,"ny":82,"refTime":"2024-07-24T06:00:00:Z","depth":0,"parameterNumber":2,"parameterNumberName":"U-component_of_WINDS"},"data":[0.0,0.0,0.0,0.0,0.0,0.0,0.0,0.0,0.0,0.0,0.0,0.0,0.0,0.0,0.0,0.0,0.0,0.0,0.0,0.0,0.0,0.0,0.0,0.0,0.0,0.0,0.0,0.0,0.0,0.0,0.0,0.0,0.0,0.0,0.0,0.0,0.0,0.0,0.0,0.0,0.0,0.0,0.0,0.0,0.0,0.0,0.0,0.0,0.0,0.0,0.0,0.0,0.0,0.0,0.0,0.0,0.0,0.0,0.0,0.0,0.0,0.0,0.0,0.0,0.0,0.0,0.0,0.0,0.0,0.0,0.0,0.0,0.0,0.0,0.0,0.0,0.0,0.0,0.0,0.0,0.0,0.0,0.0,0.0,0.0,0.0,0.0,0.0,0.0,0.0,0.0,-1.6075,-1.8272,-1.9609,-1.9609,-1.8802,-1.7285,-1.4842,0.0,0.0,0.0,0.0,0.0,0.0,0.0,0.0,0.0,0.0,0.0,0.0,0.0,0.0,0.0,0.0,0.0,0.0,0.0,0.0,0.0,0.0,0.0,0.0,0.0,0.0,0.0,0.0,0.0,0.0,0.0,0.0,0.0,0.0,0.0,0.0,0.0,0.0,0.0,0.0,0.0,0.0,0.0,0.0,0.0,0.0,0.0,0.0,0.0,0.0,0.0,0.0,0.0,0.0,0.0,0.0,0.0,0.0,0.0,0.0,0.0,0.0,0.0,0.0,0.0,0.0,0.0,0.0,0.0,0.0,0.0,0.0,0.0,0.0,0.0,0.0,0.0,0.0,0.0,0.0,0.0,0.0,0.0,0.0,0.0,0.0,0.0,0.0,0.0,0.0,0.0,0.0,0.0,0.0,0.0,0.0,0.0,0.0,0.0,0.0,0.0,0.0,0.0,0.0,-1.4651,-1.7615,-1.8933,-1.9609,-1.9609,-1.8292,-1.6694,-1.4823,0.0,0.0,0.0,0.0,0.0,0.0,0.0,0.0,0.0,0.0,0.0,0.0,0.0,0.0,0.0,0.0,0.0,0.0,0.0,0.0,0.0,0.0,0.0,0.0,0.0,0.0,0.0,0.0,0.0,0.0,0.0,0.0,0.0,0.0,0.0,0.0,0.0,0.0,0.0,0.0,0.0,0.0,0.0,0.0,0.0,0.0,0.0,0.0,0.0,0.0,0.0,0.0,0.0,0.0,0.0,0.0,0.0,0.0,0.0,0.0,0.0,0.0,0.0,0.0,0.0,0.0,0.0,0.0,0.0,0.0,0.0,0.0,0.0,0.0,0.0,0.0,0.0,0.0,0.0,0.0,0.0,0.0,0.0,0.0,0.0,0.0,0.0,0.0,0.0,0.0,0.0,0.0,0.0,0.0,0.0,0.0,0.0,0.0,0.0,0.0,0.0,0.0,0.0,-1.4084,-1.5871,-1.8692,-1.936,-1.9609,-1.9609,-1.8118,-1.6472,-1.4799,-1.3113,0.0,0.0,0.0,0.0,0.0,0.0,0.0,0.0,0.0,0.0,0.0,0.0,0.0,0.0,0.0,0.0,0.0,0.0,0.0,0.0,0.0,0.0,0.0,0.0,0.0,0.0,0.0,0.0,0.0,0.0,0.0,0.0,0.0,0.0,0.0,0.0,0.0,0.0,0.0,0.0,0.0,0.0,0.0,0.0,0.0,0.0,0.0,0.0,0.0,0.0,0.0,0.0,0.0,0.0,0.0,0.0,0.0,0.0,0.0,0.0,0.0,0.0,0.0,0.0,0.0,0.0,0.0,0.0,0.0,0.0,0.0,0.0,0.0,0.0,0.0,0.0,0.0,0.0,0.0,0.0,0.0,0.0,0.0,0.0,0.0,0.0,0.0,0.0,0.0,0.0,0.0,0.0,0.0,0.0,0.0,0.0,0.0,0.0,0.0,0.0,0.0,0.0,-1.6001,-1.7106,-1.9424,-1.964,-1.962,-1.962,-1.7894,-1.6205,-1.4799,-1.2195,0.0,0.0,0.0,0.0,0.0,0.0,0.0,0.0,0.0,0.0,0.0,0.0,0.0,0.0,0.0,0.0,0.0,0.0,0.0,0.0,0.0,0.0,0.0,0.0,0.0,0.0,0.0,0.0,0.0,0.0,0.0,0.0,0.0,0.0,0.0,0.0,0.0,0.0,0.0,0.0,0.0,0.0,0.0,0.0,0.0,0.0,0.0,0.0,0.0,0.0,0.0,0.0,0.0,0.0,0.0,0.0,0.0,0.0,0.0,0.0,0.0,0.0,0.0,0.0,0.0,0.0,0.0,0.0,0.0,0.0,0.0,0.0,0.0,0.0,0.0,0.0,0.0,0.0,0.0,0.0,0.0,0.0,0.0,0.0,0.0,0.0,0.0,0.0,0.0,0.0,0.0,0.0,0.0,0.0,0.0,0.0,0.0,0.0,0.0,0.0,0.0,0.0,-1.6274,-1.7899,-1.9684,-1.9781,-1.9688,-1.9688,-1.7416,-1.5611,-1.4744,-1.168,0.0,0.0,0.0,0.0,0.0,0.0,0.0,0.0,0.0,0.0,0.0,0.0,0.0,0.0,0.0,0.0,0.0,0.0,0.0,0.0,0.0,0.0,0.0,0.0,0.0,0.0,0.0,0.0,0.0,0.0,0.0,0.0,0.0,0.0,0.0,0.0,0.0,0.0,0.0,0.0,0.0,0.0,0.0,0.0,0.0,0.0,0.0,0.0,0.0,0.0,0.0,0.0,0.0,0.0,0.0,0.0,0.0,0.0,0.0,0.0,0.0,0.0,0.0,0.0,0.0,0.0,0.0,0.0,0.0,0.0,0.0,0.0,0.0,0.0,0.0,0.0,0.0,0.0,0.0,0.0,0.0,0.0,0.0,0.0,0.0,0.0,0.0,0.0,0.0,0.0,0.0,0.0,0.0,0.0,0.0,0.0,0.0,0.0,0.0,0.0,0.0,0.0,-1.588,-1.7418,0.0,-1.9849,-1.9584,-1.9,-1.7657,-1.601,-1.4066,0.0,0.0,0.0,0.0,0.0,0.0,0.0,0.0,0.0,0.0,0.0,0.0,0.0,0.0,0.0,0.0,0.0,0.0,0.0,0.0,0.0,0.0,0.0,0.0,0.0,0.0,0.0,0.0,0.0,0.0,0.0,0.0,0.0,0.0,0.0,0.0,0.0,0.0,0.0,0.0,0.0,0.0,0.0,0.0,0.0,0.0,0.0,0.0,0.0,0.0,0.0,0.0,0.0,0.0,0.0,0.0,0.0,0.0,0.0,0.0,0.0,0.0,0.0,0.0,0.0,0.0,0.0,0.0,0.0,0.0,0.0,0.0,0.0,0.0,0.0,0.0,0.0,0.0,0.0,0.0,0.0,0.0,0.0,0.0,0.0,0.0,0.0,0.0,0.0,0.0,0.0,0.0,0.0,0.0,0.0,0.0,0.0,0.0,0.0,0.0,0.0,0.0,-1.4176,-1.5728,-1.734,0.0,-1.9829,-1.9592,-1.8672,-1.7629,-1.6026,-1.3682,0.0,0.0,0.0,0.0,0.0,0.0,0.0,0.0,0.0,0.0,0.0,0.0,0.0,0.0,0.0,0.0,0.0,0.0,0.0,0.0,0.0,0.0,0.0,0.0,0.0,0.0,0.0,0.0,0.0,0.0,0.0,0.0,0.0,0.0,0.0,0.0,0.0,0.0,0.0,0.0,0.0,0.0,0.0,0.0,0.0,0.0,0.0,0.0,0.0,0.0,0.0,0.0,0.0,0.0,0.0,0.0,0.0,0.0,0.0,0.0,0.0,0.0,0.0,0.0,0.0,0.0,0.0,0.0,0.0,0.0,0.0,0.0,0.0,0.0,0.0,0.0,0.0,0.0,0.0,0.0,0.0,0.0,0.0,0.0,0.0,0.0,0.0,0.0,0.0,0.0,0.0,0.0,0.0,0.0,0.0,0.0,0.0,0.0,0.0,0.0,0.0,0.0,-1.3567,-1.5965,-1.7882,-1.8885,-1.965,-1.973,-1.8856,-1.7193,-1.5441,0.0,0.0,0.0,0.0,0.0,0.0,0.0,0.0,0.0,0.0,0.0,0.0,0.0,0.0,0.0,0.0,0.0,0.0,0.0,0.0,0.0,0.0,0.0,0.0,0.0,0.0,0.0,0.0,0.0,0.0,0.0,0.0,0.0,0.0,0.0,0.0,0.0,0.0,0.0,0.0,0.0,0.0,0.0,0.0,0.0,0.0,0.0,0.0,0.0,0.0,0.0,0.0,0.0,0.0,0.0,0.0,0.0,0.0,0.0,0.0,0.0,0.0,0.0,0.0,0.0,0.0,0.0,0.0,0.0,0.0,0.0,0.0,0.0,0.0,0.0,0.0,0.0,0.0,0.0,0.0,0.0,0.0,0.0,0.0,0.0,0.0,0.0,0.0,0.0,0.0,0.0,0.0,0.0,0.0,0.0,0.0,0.0,0.0,0.0,0.0,0.0,0.0,0.0,0.0,-1.6051,-1.7995,-1.8895,-1.9193,-1.8942,-1.804,-1.7007,-1.5372,-1.2915,0.0,0.0,0.0,0.0,0.0,0.0,0.0,0.0,0.0,0.0,0.0,0.0,0.0,0.0,0.0,0.0,0.0,0.0,0.0,0.0,0.0,0.0,0.0,0.0,0.0,0.0,0.0,0.0,0.0,0.0,0.0,0.0,0.0,0.0,0.0,0.0,0.0,0.0,0.0,0.0,0.0,0.0,0.0,0.0,0.0,0.0,0.0,0.0,0.0,0.0,0.0,0.0,0.0,0.0,0.0,0.0,0.0,0.0,0.0,0.0,0.0,0.0,0.0,0.0,0.0,0.0,0.0,0.0,0.0,0.0,0.0,0.0,0.0,0.0,0.0,0.0,0.0,0.0,0.0,0.0,0.0,0.0,0.0,0.0,0.0,0.0,0.0,0.0,0.0,0.0,0.0,0.0,0.0,0.0,0.0,0.0,0.0,0.0,0.0,0.0,0.0,0.0,-1.3469,-1.6087,-1.804,-1.8943,-1.9013,-1.8645,-1.7767,-1.6949,-1.5341,-1.2645,0.0,0.0,0.0,0.0,0.0,0.0,0.0,0.0,0.0,0.0,0.0,0.0,0.0,0.0,0.0,0.0,0.0,0.0,0.0,0.0,0.0,0.0,0.0,0.0,0.0,0.0,0.0,0.0,0.0,0.0,0.0,0.0,0.0,0.0,0.0,0.0,0.0,0.0,0.0,0.0,0.0,0.0,0.0,0.0,0.0,0.0,0.0,0.0,0.0,0.0,0.0,0.0,0.0,0.0,0.0,0.0,0.0,0.0,0.0,0.0,0.0,0.0,0.0,0.0,0.0,0.0,0.0,0.0,0.0,0.0,0.0,0.0,0.0,0.0,0.0,0.0,0.0,0.0,0.0,0.0,0.0,0.0,0.0,0.0,0.0,0.0,0.0,0.0,0.0,0.0,0.0,0.0,0.0,0.0,0.0,0.0,0.0,0.0,0.0,0.0,0.0,0.0,-1.3472,-1.6086,-1.8061,-1.9001,-1.9043,-1.8677,-1.7866,-1.6998,-1.5416,-1.2881,0.0,0.0,0.0,0.0,0.0,0.0,0.0,0.0,0.0,0.0,0.0,0.0,0.0,0.0,0.0,0.0,0.0,0.0,0.0,0.0,0.0,0.0,0.0,0.0,0.0,0.0,0.0,0.0,0.0,0.0,0.0,0.0,0.0,0.0,0.0,0.0,0.0,0.0,0.0,0.0,0.0,0.0,0.0,0.0,0.0,0.0,0.0,0.0,0.0,0.0,0.0,0.0,0.0,0.0,0.0,0.0,0.0,0.0,0.0,0.0,-1.4257,0.0,0.0,0.0,0.0,0.0,0.0,0.0,0.0,0.0,0.0,0.0,0.0,0.0,0.0,0.0,0.0,0.0,0.0,0.0,0.0,0.0,0.0,0.0,0.0,0.0,0.0,0.0,0.0,0.0,0.0,0.0,0.0,0.0,0.0,0.0,0.0,0.0,0.0,0.0,0.0,0.0,-1.3561,-1.6141,-1.8117,-1.9018,-1.9088,-1.8735,-1.7866,-1.6998,-1.567,-1.3742,0.0,0.0,0.0,0.0,0.0,0.0,0.0,0.0,0.0,0.0,0.0,0.0,0.0,0.0,0.0,0.0,0.0,0.0,0.0,0.0,0.0,0.0,0.0,0.0,0.0,0.0,0.0,0.0,0.0,0.0,0.0,0.0,0.0,0.0,0.0,0.0,0.0,0.0,0.0,0.0,0.0,0.0,0.0,0.0,0.0,0.0,0.0,0.0,0.0,0.0,0.0,0.0,0.0,0.0,0.0,0.0,0.0,0.0,0.0,0.0,0.0,-1.5347,0.0,0.0,0.0,0.0,0.0,0.0,0.0,0.0,0.0,0.0,0.0,0.0,0.0,0.0,0.0,0.0,0.0,0.0,0.0,0.0,0.0,0.0,0.0,0.0,0.0,0.0,0.0,0.0,0.0,0.0,0.0,0.0,0.0,0.0,0.0,0.0,0.0,0.0,0.0,0.0,-1.415,-1.6396,-1.8282,-1.9593,-1.8972,-1.8293,-1.7849,-1.6654,-1.5352,-1.4036,-1.3137,0.0,0.0,0.0,0.0,0.0,0.0,0.0,0.0,0.0,0.0,0.0,0.0,0.0,0.0,0.0,0.0,0.0,0.0,0.0,0.0,0.0,0.0,0.0,0.0,0.0,0.0,0.0,0.0,0.0,0.0,0.0,0.0,0.0,0.0,0.0,0.0,0.0,0.0,0.0,0.0,0.0,0.0,0.0,0.0,0.0,0.0,0.0,0.0,0.0,0.0,0.0,0.0,0.0,-2.0174,-2.0604,-2.0956,-2.1167,-2.1223,-2.1052,-1.8957,-1.8193,-1.8332,0.0,0.0,0.0,0.0,0.0,0.0,0.0,0.0,0.0,0.0,0.0,0.0,0.0,0.0,0.0,0.0,0.0,0.0,0.0,0.0,0.0,0.0,0.0,0.0,0.0,-1.8634,-1.8958,0.0,0.0,0.0,0.0,0.0,0.0,0.0,0.0,0.0,0.0,0.0,0.0,-1.505,-1.6912,-1.8645,-2.0228,-1.8971,-1.7968,-1.7813,-1.6406,-1.5149,-1.4272,-1.4103,-1.3075,0.0,0.0,0.0,0.0,0.0,0.0,0.0,0.0,0.0,0.0,0.0,0.0,0.0,0.0,0.0,0.0,0.0,0.0,0.0,0.0,0.0,0.0,0.0,0.0,0.0,0.0,0.0,0.0,0.0,0.0,0.0,0.0,-1.1292,-1.235,0.0,0.0,0.0,0.0,0.0,0.0,0.0,0.0,0.0,0.0,0.0,0.0,0.0,-1.9121,-1.9999,-2.16,-2.2106,-2.1474,-2.3776,-2.4128,-2.2784,-2.3541,-2.3891,-2.3873,-2.3539,0.0,-2.0184,-1.919,0.0,0.0,0.0,0.0,0.0,0.0,0.0,0.0,0.0,0.0,0.0,0.0,0.0,0.0,0.0,0.0,0.0,0.0,0.0,0.0,0.0,0.0,-2.2089,-2.1367,-2.1841,-2.2161,0.0,-1.8362,-1.5868,-1.4667,-1.3892,0.0,0.0,0.0,0.0,0.0,0.0,0.0,-1.6179,-1.7837,-1.9319,-2.0286,-1.9512,-1.8626,-1.7852,-1.6965,-1.6058,-1.5187,-1.4473,-1.3909,-1.3518,-1.1542,0.0,0.0,0.0,0.0,0.0,0.0,0.0,0.0,0.0,0.0,0.0,0.0,0.0,0.0,0.0,0.0,0.0,0.0,0.0,0.0,0.0,0.0,0.0,0.0,0.0,0.0,0.0,0.0,0.0,-1.1138,-1.3147,-1.3484,-1.3952,-1.3932,0.0,0.0,0.0,0.0,0.0,0.0,0.0,0.0,0.0,-2.0131,-2.0972,-2.1812,-2.2687,-2.3937,-2.4364,-2.4008,-2.5141,-2.5297,-2.4575,-2.4964,-2.512,-2.512,-2.512,-2.4497,-2.3365,-2.1999,-2.0653,-1.9346,0.0,0.0,0.0,0.0,-1.8001,-1.7804,-1.9237,-1.9435,0.0,-1.8885,0.0,0.0,0.0,0.0,0.0,0.0,0.0,0.0,0.0,0.0,0.0,-2.3261,-2.3909,-2.4224,-2.3396,-2.1925,-1.9955,0.0,-1.6679,-1.5987,-1.3621,0.0,0.0,0.0,0.0,0.0,-1.7067,-1.8309,-1.9435,-2.0305,-1.9628,-1.8758,-1.7871,-1.7061,-1.6225,-1.5359,-1.4997,-1.4591,-1.409,-1.3016,-1.1751,0.0,0.0,0.0,0.0,0.0,0.0,0.0,0.0,0.0,0.0,0.0,0.0,0.0,0.0,0.0,0.0,0.0,0.0,0.0,0.0,0.0,0.0,0.0,0.0,0.0,0.0,0.0,0.0,-1.3286,-1.4768,-1.4774,-1.5923,-1.6216,0.0,0.0,0.0,0.0,0.0,0.0,-1.8931,-1.9807,-2.0978,-2.2483,-2.3343,-2.4085,-2.473,-2.5375,-2.5707,-2.5707,-2.5707,-2.5707,-2.5707,-2.5707,-2.5707,-2.5707,-2.5707,-2.5707,-2.557,-2.4067,-2.2701,-2.1491,-2.0613,-1.9873,-1.9464,-2.0751,-2.0829,-2.0534,-2.243,-2.2708,-2.2132,-2.1649,0.0,-2.1006,-1.9698,0.0,0.0,0.0,0.0,-2.084,-2.2128,-2.3105,-2.3926,-2.4588,-2.5181,-2.5444,-2.4804,-2.458,-2.3459,0.0,-1.942,-1.8863,-1.6228,0.0,0.0,0.0,0.0,-1.7359,-1.7979,-1.8856,-1.9686,-2.0324,-1.9628,-1.8835,-1.82,-1.7197,-1.6329,-1.5672,-1.5492,-1.5108,-1.4463,-1.4214,-1.3102,-1.0974,0.0,0.0,0.0,0.0,0.0,0.0,0.0,0.0,0.0,0.0,0.0,0.0,0.0,0.0,0.0,0.0,0.0,0.0,0.0,0.0,0.0,0.0,0.0,0.0,0.0,0.0,0.0,0.0,0.0,-1.6567,-1.8792,0.0,0.0,0.0,0.0,-1.9042,-1.9835,-2.0689,-2.155,-2.2447,-2.3327,-2.4253,-2.5113,-2.5585,-2.5629,-2.5687,-2.5707,-2.5707,-2.5707,-2.5707,-2.5707,-2.5707,-2.5707,-2.5707,-2.5707,-2.5707,-2.5629,-2.471,-2.428,-2.4125,-2.3252,-2.2881,-2.2858,-2.294,-2.2959,-2.2935,-2.3051,-2.3071,-2.3169,-2.3948,-2.3656,-2.2956,-2.288,-2.2312,0.0,0.0,-2.2904,-2.4154,-2.4251,-2.4918,-2.5584,-2.5624,-2.5662,-2.5672,-2.5646,-2.5535,-2.4878,0.0,-2.2052,-2.1475,-2.1159,0.0,-1.8794,-1.8756,-1.8817,-1.8914,-1.902,-1.978,-2.0344,-2.0402,-1.9628,-1.9087,-1.9048,-1.7545,-1.658,-1.6542,-1.5821,-1.5382,-1.5343,-1.455,-1.3652,-1.2689,-1.111,0.0,0.0,0.0,0.0,0.0,0.0,0.0,0.0,0.0,0.0,0.0,0.0,0.0,0.0,0.0,0.0,0.0,0.0,0.0,0.0,0.0,0.0,0.0,0.0,0.0,0.0,0.0,0.0,-1.9073,-2.0457,0.0,0.0,-2.0207,-2.0909,-2.0909,-2.2214,-2.3149,-2.3462,-2.4301,-2.4928,-2.5223,-2.6082,-2.6535,-2.654,-2.7086,-2.7088,-2.6547,-2.6547,-2.6235,-2.5707,-2.5707,-2.5707,-2.5707,-2.5707,-2.5707,-2.5687,-2.5355,-2.5237,-2.5219,-2.4889,-2.4772,-2.477,-2.4772,-2.4772,-2.477,-2.477,-2.477,-2.4829,-2.514,-2.5024,-2.477,-2.4771,-2.4575,-2.4341,-2.4342,-2.4773,-2.5241,-2.5241,-2.5479,-2.5696,-2.5698,-2.5703,-2.5697,-2.5693,-2.5624,-2.5377,-2.4709,-2.3883,-2.2954,-2.1816,-2.1561,-2.1329,-2.0827,-2.073,-2.0756,-2.0772,-2.056,-2.0402,-2.0402,-2.0112,-1.9706,-1.9145,-1.8072,-1.7198,-1.6631,-1.5847,-1.5146,-1.4589,-1.4277,-1.3457,-1.205,-1.1445,-1.0429,0.0,0.0,0.0,0.0,0.0,0.0,0.0,0.0,0.0,0.0,0.0,0.0,0.0,0.0,0.0,0.0,0.0,0.0,0.0,0.0,0.0,0.0,0.0,0.0,0.0,0.0,-2.0294,-2.0863,-2.2228,-2.2656,-2.1487,-2.2393,-2.3047,-2.3047,-2.4378,-2.5198,-2.5216,-2.6038,-2.6536,-2.6571,-2.7137,-2.7432,-2.7437,-2.8003,-2.8006,-2.7445,-2.7445,-2.7132,-2.6566,-2.6273,-2.6293,-2.6546,-2.5961,-2.5863,-2.6117,-2.5824,-2.5707,-2.5707,-2.5707,-2.5707,-2.5707,-2.5707,-2.5707,-2.5707,-2.5707,-2.5707,-2.5707,-2.5707,-2.5707,-2.5707,-2.5707,-2.5707,-2.5707,-2.5707,-2.5707,-2.5707,-2.5707,-2.5709,-2.5692,-2.5694,-2.5701,-2.5703,-2.5702,-2.5672,-2.5629,-2.558,-2.506,-2.4286,-2.3178,-2.3174,-2.3155,-2.2613,-2.2284,-2.2017,-2.1727,-2.1201,-2.073,-2.044,-2.0402,-2.0179,-1.9585,-1.8523,-1.7668,-1.711,-1.6019,-1.5133,-1.4551,-1.4258,-1.3457,-1.207,-1.1758,-1.1035,-0.9883,0.0,0.0,0.0,0.0,0.0,0.0,0.0,0.0,0.0,0.0,0.0,0.0,0.0,0.0,0.0,0.0,0.0,0.0,0.0,0.0,0.0,0.0,0.0,-1.9349,-2.0804,-2.1877,-2.1916,-2.4142,-2.5041,-2.3377,-2.462,-2.5557,-2.5579,-2.6294,-2.6775,-2.6835,-2.7643,-2.8164,-2.8293,-2.8314,-2.8336,-2.8341,-2.836,-2.8362,-2.8342,-2.8342,-2.8323,-2.8264,-2.7426,-2.7504,-2.8205,-2.6507,-2.6235,-2.6938,-2.6097,-2.5726,-2.5707,-2.5707,-2.5707,-2.5707,-2.5707,-2.5706,-2.5706,-2.5707,-2.5706,-2.5706,-2.5707,-2.5707,-2.5707,-2.5707,-2.5707,-2.5707,-2.5707,-2.5707,-2.5707,-2.5707,-2.5707,-2.5708,-2.5693,-2.5694,-2.5695,-2.5699,-2.5703,-2.57,-2.57,-2.5595,-2.5508,-2.5507,-2.4799,-2.4238,-2.4234,-2.3499,0.0,-2.1843,-2.173,-2.1378,-2.0498,-2.0402,-2.0393,-2.0395,-1.8895,-1.7955,-1.7992,-1.6396,-1.5426,-1.5352,-1.4551,-1.3711,-1.293,-1.207,-1.1641,-1.1641,0.0,0.0,0.0,0.0,0.0,0.0,0.0,0.0,0.0,0.0,0.0,0.0,0.0,0.0,0.0,0.0,0.0,0.0,0.0,0.0,0.0,0.0,-2.1575,-2.1041,-2.241,-2.3692,-2.4335,-2.504,-2.5548,-2.5693,-2.6118,-2.6655,-2.7327,-2.7586,-2.7744,-2.7805,-2.8043,-2.8193,-2.8237,-2.8842,-2.92,-2.9233,-2.9819,-2.9822,-2.9241,-2.9241,-2.8908,-2.8283,-2.8049,-2.8069,-2.8264,-2.7795,-2.7366,-2.6977,-2.6742,-2.6274,-2.5707,-2.5707,-2.5707,-2.5707,-2.5707,-2.5676,-2.5621,-2.5681,-2.5676,-2.5641,-2.5682,-2.5707,-2.5707,-2.5707,-2.5707,-2.5707,-2.5707,-2.5707,-2.5707,-2.5707,-2.5707,-2.5707,-2.5709,-2.5709,-2.569,-2.5695,-2.5698,-2.5702,-2.5701,-2.5672,-2.5606,-2.5513,-2.5308,-2.515,-2.5132,-2.4409,0.0,-2.2671,-2.2055,-2.1366,-2.0482,-2.0408,-2.0403,-2.0398,-1.9432,-1.8605,-1.8032,-1.6969,-1.5781,-1.4512,-1.4238,-1.3711,-1.293,-1.2656,-1.2539,0.0,0.0,0.0,0.0,0.0,0.0,0.0,0.0,0.0,0.0,0.0,0.0,0.0,0.0,0.0,0.0,0.0,0.0,0.0,0.0,0.0,0.0,-2.1853,-2.3235,-2.312,-2.3983,-2.4826,-2.5333,-2.572,-2.6157,-2.6699,-2.7059,-2.7482,-2.8061,-2.8413,-2.8628,-2.8695,-2.9051,-2.926,-2.9289,-2.9776,-3.0056,-3.0108,-3.0575,-3.0578,-3.0099,-3.0098,-2.9843,-2.9336,-2.9006,-2.9025,0.0,-2.8596,-2.8225,-2.805,-2.7699,-2.7249,0.0,0.0,0.0,0.0,0.0,-2.5679,-2.5647,-2.5683,-2.5679,-2.5647,-2.5683,-2.5707,-2.5707,-2.5707,-2.5707,-2.5707,-2.5707,-2.5707,-2.5707,-2.5707,-2.5707,-2.5707,-2.5707,-2.5707,-2.5708,-2.569,-2.5691,-2.5695,-2.5702,-2.5703,0.0,-2.557,-2.5541,-2.5523,-2.549,-2.5091,-2.4468,-2.3599,-2.2756,-2.1919,-2.1073,-2.0668,-2.0437,-2.0432,-1.9686,0.0,0.0,0.0,-1.6465,-1.4727,-1.4648,0.0,0.0,0.0,0.0,0.0,0.0,0.0,0.0,-1.3982,-1.4351,0.0,0.0,0.0,0.0,0.0,0.0,0.0,0.0,0.0,0.0,0.0,0.0,0.0,0.0,0.0,0.0,-2.3035,-2.4367,-2.525,-2.5466,-2.5542,-2.5534,-2.623,-2.6788,-2.7042,-2.7726,-2.8202,-2.8379,-2.9036,-2.947,-2.9546,0.0,0.0,0.0,0.0,-3.0801,-3.0791,-3.0803,-3.0806,-3.0799,-3.0794,-3.0794,-3.078,-3.0059,-3.0117,-3.0721,-2.9238,-2.8964,-2.9532,-2.8751,-2.838,-2.8147,-2.6605,-2.5921,-2.5843,-2.5844,-2.5783,-2.5683,-2.5706,0.0,0.0,-2.5706,-2.5707,-2.5707,-2.5707,-2.5707,-2.5707,-2.5707,-2.5707,-2.5707,-2.5707,-2.5707,-2.5707,-2.5707,-2.5707,-2.5707,-2.5707,-2.5707,-2.5707,-2.5707,-2.569,-2.5678,-2.5625,-2.5616,-2.5588,-2.5511,-2.5551,-2.5284,-2.4414,-2.3634,-2.2834,-2.2029,0.0,0.0,-2.0653,-1.9852,-1.933,-1.9297,-1.8476,-1.7305,-1.5762,-1.5684,-1.5684,-1.5684,-1.5684,-1.6445,-1.8008,-1.8105,-1.8144,-1.8105,-1.6463,-1.6151,0.0,0.0,0.0,0.0,0.0,0.0,0.0,0.0,0.0,0.0,0.0,0.0,0.0,0.0,0.0,-2.3288,-2.4389,-2.5351,-2.6287,-2.6423,-2.6423,-2.6376,-2.6521,-2.7175,-2.8597,-2.8879,-2.9291,-3.0065,-3.0256,-3.0396,-3.0516,-3.0697,0.0,-3.0804,-3.0804,-3.079,-3.0801,-3.0799,-3.0799,-3.0803,0.0,0.0,-3.0783,-3.0647,-3.0647,-3.0783,-3.0451,-3.0003,-2.9514,-2.9346,-2.8884,-2.8264,-2.7932,-2.7363,-2.6754,-2.674,-2.6278,-2.5627,-2.568,-2.5654,-2.5637,-2.5681,-2.5707,-2.5707,-2.5707,-2.5707,0.0,-2.5707,-2.5707,-2.5707,-2.5707,-2.5707,-2.5707,-2.5707,-2.5707,-2.5707,-2.5707,-2.5707,-2.5707,-2.5707,-2.5708,-2.5694,-2.5683,-2.568,-2.5666,-2.5597,-2.5595,-2.5288,-2.4412,-2.4201,-2.3778,-2.2867,-2.2039,-2.1557,-2.1559,-2.0757,-1.9979,-1.9334,-1.8475,-1.7851,-1.7519,-1.75,-1.75,-1.75,-1.75,-1.7656,-1.8008,-1.8711,-1.9043,-1.9023,-1.7988,-1.7969,0.0,0.0,0.0,0.0,0.0,0.0,0.0,0.0,0.0,0.0,0.0,-2.0178,0.0,0.0,-2.3942,-2.5766,-2.6294,-2.671,-2.7263,-2.728,-2.7253,-2.73,-2.7652,-2.8264,-2.9218,-2.9648,-3.0125,-3.0658,-3.0703,-3.0909,-3.1425,-3.1447,-3.1449,-3.1456,-3.1456,-3.1248,-3.081,-3.0804,-3.0808,-3.0798,-3.0792,-3.0794,-3.0798,-3.0798,-3.0798,-3.0798,-3.0798,-3.0544,-3.0154,-3.0159,-2.9908,-2.9542,-2.9542,-2.8763,-2.7596,-2.7151,-2.6692,-2.6245,-2.5837,-2.5676,-2.566,-2.5682,-2.5705,-2.5704,-2.5706,-2.5707,-2.5707,-2.5707,-2.5707,-2.5707,-2.5707,-2.5707,-2.5707,-2.5707,-2.5707,-2.5707,-2.5707,-2.5707,-2.5707,-2.5707,-2.5707,-2.569,-2.5698,-2.5701,-2.5683,-2.5607,-2.5629,-2.5497,-2.5068,-2.4647,-2.4219,-2.3749,-2.2949,-2.2441,-2.2441,-2.168,-2.0839,-1.9996,-1.9548,-1.9119,-1.8669,-1.8651,-1.8652,-1.8652,-1.8652,-1.8867,-1.9297,-1.9746,-1.9941,-1.9941,-1.9941,-2.0195,0.0,0.0,0.0,0.0,0.0,0.0,0.0,0.0,-1.9948,-2.0387,-2.1594,-2.3045,-2.4547,-2.5369,-2.6285,-2.7728,-2.7859,-2.789,-2.824,-2.8191,-2.8216,-2.8489,-2.8938,-2.9358,-2.9642,-3.0267,-3.0675,-3.0796,-3.0801,-3.1171,-3.2053,-3.2092,-3.217,-3.2345,-3.2345,-3.2019,-3.1304,-3.114,-3.1047,-3.1046,-3.088,-3.0802,-3.0792,-3.0792,-3.0792,-3.0792,-3.0792,-3.0794,-3.0796,-3.0796,-3.0796,-3.0798,-3.079,-2.9961,-2.8651,-2.7637,-2.7147,-2.6888,-2.5998,-2.5701,-2.5693,-2.5704,-2.5704,-2.5701,-2.5705,-2.5707,-2.5707,-2.5707,-2.5707,-2.5707,-2.5707,-2.5707,-2.5707,-2.5707,-2.5707,-2.5707,-2.5707,-2.5707,-2.5707,-2.5707,-2.5707,-2.5707,-2.5707,-2.5707,-2.5677,-2.5622,-2.5663,-2.5703,-2.5703,-2.5095,-2.4641,-2.4643,-2.3879,-2.3273,-2.31,-2.2358,-2.1596,-2.0893,-2.0698,-2.0289,-1.9585,-1.9547,-1.9548,-1.9549,-1.955,-1.9902,-2.0605,-2.0605,-2.0684,-2.0879,-2.1562,-2.1894,-1.6021,-1.7383,-1.8776,-1.9573,-1.9861,-2.0691,0.0,0.0,-2.3022,-2.5278,-2.5949,-2.6399,-2.7224,-2.7566,-2.7724,-2.782,-2.7944,-2.8332,-2.9123,-2.9288,-2.9552,-3.0221,-2.9754,-2.9703,-3.0555,-3.0714,-3.0774,-3.0799,-3.0801,-3.1171,-3.2053,-3.2092,-3.2443,-3.3222,-3.3242,-3.3203,-3.3108,-3.2345,-3.1958,-3.1941,-3.1176,-3.0804,-3.0806,-3.0806,-3.0806,-3.0806,-3.0806,-3.0793,-3.0804,-3.0804,-3.081,-3.0794,-3.0733,-3.0628,-3.0333,-2.8739,-2.7668,-2.6888,-2.5998,-2.5703,-2.5699,-2.5705,-2.5704,-2.5701,-2.5705,-2.5707,-2.5707,-2.5707,-2.5707,-2.5707,-2.5707,-2.5707,-2.5707,-2.5707,-2.5707,-2.5707,-2.5707,-2.5707,-2.5707,-2.5707,-2.5707,-2.5707,-2.5707,-2.5707,-2.5709,-2.5693,-2.5692,-2.5691,-2.5691,-2.5611,-2.5552,-2.5553,-2.477,-2.3931,-2.3171,-2.235,-2.1862,-2.1764,-2.1027,-2.056,-2.0463,-2.0445,-2.0445,-2.0446,-2.0447,-2.0507,-2.0605,-2.0605,-2.0996,-2.1758,-2.1855,-2.1894,-1.9731,-2.0356,0.0,0.0,-2.3169,-2.4201,-2.5057,-2.5586,-2.6179,-2.7196,-2.7026,-2.6954,-2.7822,-2.7988,-2.8171,0.0,-2.9115,-2.9543,-3.0039,-3.0013,-2.9918,-2.9792,-2.997,-3.026,-3.0652,-3.0745,-3.0801,-3.0801,-3.1271,-3.1934,-3.2813,-3.33,-3.3729,-3.4099,-3.4099,-3.3865,-3.3397,-3.3047,-3.2599,-3.2092,-3.1722,-3.1291,-3.0801,-3.0801,-3.0801,-3.0801,-3.0801,-3.0804,-3.0808,-3.0808,-3.0793,-3.0793,-3.0681,-3.072,-3.0652,-2.9392,-2.8739,-2.8348,-2.7499,-2.6873,-2.6455,-2.6466,-2.6114,-2.5699,-2.5702,-2.5703,-2.5703,-2.5703,-2.5703,-2.5703,-2.5706,-2.5707,-2.5707,-2.5707,-2.5707,-2.5707,-2.5707,-2.5707,-2.5707,-2.5707,-2.5707,-2.5707,-2.5707,-2.5707,-2.5707,-2.5707,-2.5707,-2.5707,-2.5707,-2.5707,-2.5707,-2.5707,-2.5374,-2.4808,-2.393,-2.3559,-2.3149,-2.2623,-2.2254,-2.1845,-2.1376,-2.1357,-2.1359,-2.1361,-2.1362,-2.1599,-2.205,-2.205,-2.2246,-2.2617,-2.3125,-2.3359,-2.1773,0.0,0.0,-2.3967,-2.5523,-2.6586,-2.6148,-2.7117,-2.81,-2.8047,-2.7547,-2.7316,-2.7987,-2.8083,0.0,-2.9265,-2.9771,-3.0178,-3.0529,-3.0443,-3.016,-2.9611,-3.0161,-3.0593,-3.0593,-3.0712,-3.0801,-3.0801,-3.1602,-3.2482,-3.3358,-3.4157,-3.4703,-3.4954,-3.4954,-3.4683,-3.4099,-3.3846,-3.3417,-3.2774,-3.2326,-3.178,-3.1152,-3.0918,-3.0801,-3.0801,-3.0801,-3.0801,-3.0801,-3.0801,-3.0801,-3.0796,-3.0639,-3.0652,-3.0655,-2.9958,-2.961,-2.932,-2.823,-2.7441,-2.6885,-2.6653,-2.6165,-2.563,-2.5634,-2.5632,-2.5611,-2.5611,-2.5611,-2.5634,-2.5669,-2.5672,-2.5675,-2.5702,-2.5703,-2.5703,-2.5705,-2.5705,-2.5705,-2.5707,-2.5707,-2.5707,-2.5707,-2.5707,-2.5707,-2.5707,-2.5707,-2.5707,-2.5707,-2.5707,-2.5707,-2.5707,-2.5707,-2.5434,-2.4808,-2.4534,-2.4125,-2.3501,-2.3228,-2.2838,-2.2251,-2.2232,-2.2233,-2.2236,-2.2213,-2.251,-2.3103,-2.3102,-2.322,-2.3476,-2.4101,-2.4531,0.0,0.0,-2.4393,-2.5154,-2.6026,-2.6912,-2.7728,-2.8004,-2.8094,-2.8091,-2.8135,-2.8133,-2.8113,-2.8151,-2.8424,-2.9096,-2.933,-2.9687,-3.0399,-3.0496,-3.0496,-3.0462,-3.0544,-3.0593,0.0,-3.0712,-3.0801,-3.0801,-3.1602,-3.2482,-3.3358,-3.4157,-3.4993,-3.583,-3.585,-3.585,-3.5811,-3.4993,-3.4547,-3.4508,-3.2871,-3.2092,-3.2034,-3.1191,-3.0801,-3.0801,-3.0801,-3.0801,-3.0801,-3.0801,-3.0801,-3.0796,-3.0639,-3.0597,-3.0593,-3.0494,-3.0028,-2.9157,-2.7378,-2.6726,-2.6574,-2.581,-2.5535,-2.5506,-2.5502,-2.5457,-2.5405,-2.5405,-2.5405,-2.5441,-2.5578,-2.5593,-2.5624,-2.5683,-2.569,-2.5692,-2.5698,-2.5699,-2.5701,-2.5706,-2.5707,-2.5707,-2.5707,-2.5707,-2.5707,-2.5707,-2.5707,-2.5707,-2.5707,-2.5707,-2.5707,-2.5707,-2.5707,-2.5687,-2.5668,-2.4886,-2.4397,-2.4358,-2.3578,-2.3091,-2.3052,-2.3052,-2.3052,-2.3052,-2.2994,-2.3017,-2.3098,-2.3107,-2.3522,-2.4354,-2.4394,-2.4843,0.0,0.0,-2.5428,-2.6784,-2.7815,-2.8565,-2.886,-2.8987,-2.9024,-2.9024,-2.8121,-2.7329,-2.7311,-2.7322,-2.7595,-2.8413,-2.901,-2.9652,-3.0399,-3.1009,-3.0882,-2.96,-3.0607,0.0,0.0,0.0,0.0,-3.0801,-3.2148,-3.3086,-3.3378,-3.4703,-3.5597,-3.5889,-3.5908,-3.5908,-3.5908,-3.5616,-3.5168,-3.4586,-3.3495,-3.2657,-3.2092,-3.18,-3.1349,-3.0801,-3.0801,-3.0801,-3.0801,-3.0801,-3.0801,-3.0772,-3.0603,-3.0568,-3.0575,-3.037,-3.0175,-2.9917,-2.9403,-2.8838,-2.8233,-2.7419,-2.6775,-2.6183,-2.5601,-2.5424,-2.5401,-2.5401,-2.5401,-2.5408,-2.5463,-2.5473,-2.5479,-2.5499,-2.5504,-2.5507,-2.5559,-2.5561,-2.5564,-2.5576,-2.5603,-2.5621,-2.5621,-2.5676,-2.5707,-2.5707,-2.5707,-2.5707,-2.5707,-2.5707,-2.5707,-2.5707,-2.5653,-2.5621,-2.5621,-2.5323,-2.5128,-2.5128,-2.4856,-2.4427,-2.3841,-2.3822,-2.3822,-2.3822,-2.3808,-2.4103,-2.4753,-2.4701,-2.4863,-2.5209,-2.5156,-2.5315,0.0,-2.6215,-2.6401,-2.8116,-2.8994,-2.9449,-2.9449,-2.9474,-2.9321,-2.8697,-2.745,-2.6478,-2.6478,-2.6225,-2.6498,-2.7957,-2.8885,-2.9779,-3.0854,-3.1733,-3.18,-3.0521,-3.1469,0.0,0.0,0.0,0.0,-3.1218,-3.2817,-3.3802,-3.3824,-3.5148,-3.5908,-3.5908,-3.5908,-3.5908,-3.5908,-3.5908,-3.546,-3.4586,-3.4079,-3.3378,-3.254,-3.2248,-3.18,-3.1252,-3.0938,-3.0801,-3.0801,-3.0801,-3.0801,-3.0794,-3.0655,-3.0595,-3.0532,-3.0367,-3.0292,-3.024,-3.002,-2.9574,-2.8937,-2.7831,-2.7092,-2.6461,-2.5593,-2.5333,-2.5329,-2.5329,-2.5329,-2.5337,-2.536,-2.5352,-2.5379,-2.5386,-2.5394,-2.5401,-2.546,-2.5463,-2.5467,-2.5463,-2.5524,-2.5552,-2.5552,-2.56,-2.5636,-2.5634,-2.5632,-2.5639,-2.5653,-2.5645,-2.5637,-2.5637,-2.5593,-2.5556,-2.5556,-2.5524,-2.5501,-2.5501,-2.5501,-2.5249,-2.4682,-2.4663,-2.4663,-2.4663,-2.4642,-2.4938,-2.5568,-2.5499,-2.5504,-2.5552,-2.5513,-2.5517,-2.5855,-2.6459,-2.7431,-2.9145,-2.9574,-2.9554,-2.9515,-2.9476,-2.8931,-2.7197,-2.6205,-2.5621,0.0,0.0,-2.5212,-2.7723,-2.881,-2.9936,-3.1665,-3.2592,-3.3074,0.0,0.0,0.0,0.0,0.0,0.0,-3.2054,0.0,-3.4528,-3.46,-3.5421,-3.5908,-3.5908,-3.5908,-3.5908,-3.5908,-3.5908,-3.548,-3.4664,-3.4664,-3.4235,-3.3436,-3.256,-3.2131,-3.2053,-3.1171,-3.0801,-3.0801,-3.0801,-3.0801,-3.0801,-3.0796,-3.0669,-3.0506,-3.0496,-3.0375,-3.0084,-2.9242,-2.9014,-2.8785,-2.7152,-2.6617,-2.6444,-2.5532,-2.5266,-2.5249,-2.521,-2.5191,-2.5214,-2.5273,-2.5298,-2.5303,-2.5378,-2.5398,-2.5387,-2.5395,-2.5398,-2.5386,-2.5381,-2.5441,-2.5496,-2.5499,-2.5492,-2.5495,-2.548,-2.5496,-2.5504,-2.5589,-2.5534,-2.5501,-2.5501,-2.5498,-2.5495,-2.5498,-2.5495,-2.5492,-2.5492,-2.5492,-2.5492,-2.5492,-2.5492,-2.5492,-2.5492,-2.5425,-2.5425,-2.5498,-2.5431,-2.5437,-2.5496,-2.5493,-2.5485,-2.8015,-2.8678,-2.9106,-3.0197,-3.047,-3.0295,-2.9652,-2.9009,-2.8054,-2.6361,-2.5329,-2.453,-2.3887,0.0,0.0,-2.6924,-2.7946,0.0,-3.1575,-3.2633,0.0,0.0,0.0,-3.3539,-3.2842,-3.3353,0.0,0.0,-3.4144,-3.4528,-3.46,-3.5421,-3.5908,-3.5908,-3.5908,-3.5908,-3.5908,-3.5908,-3.5791,-3.5577,-3.5577,-3.5109,-3.4274,-3.3436,-3.2715,-3.2053,-3.1171,-3.0801,-3.0801,-3.0801,-3.0801,-3.0796,-3.0697,-3.062,-3.0568,-3.0418,-3.0314,-3.0247,-2.9952,-2.9886,-2.9721,-2.8644,-2.83,-2.8014,-2.6548,-2.609,-2.5969,-2.5363,-2.5191,-2.5197,-2.5225,-2.5231,-2.5223,-2.525,-2.5255,-2.5247,-2.5253,-2.5239,-2.5249,-2.525,-2.5305,-2.5376,-2.5415,-2.5428,-2.5428,-2.5425,-2.5375,-2.5387,-2.5447,-2.5441,-2.5434,-2.5486,-2.5459,-2.5426,-2.5421,-2.5382,-2.5344,-2.5344,-2.5344,-2.5344,-2.5344,-2.5344,-2.5344,-2.5344,-2.534,-2.5357,-2.5421,-2.5361,-2.5365,-2.5429,-2.5363,-2.5375,-2.9106,-2.9788,-3.0197,-3.0684,-3.0509,-2.9905,-2.8639,-2.7704,-2.6517,-2.4413,-2.3595,0.0,0.0,0.0,0.0,0.0,0.0,0.0,-3.1679,-3.3031,-3.3887,0.0,-3.4486,0.0,-3.385,-3.4235,-3.4573,0.0,-3.4861,-3.4999,-3.5034,-3.5537,-3.5807,-3.5807,-3.5807,-3.584,-3.5908,-3.5908,-3.5908,-3.5908,-3.5908,-3.5636,-3.5148,-3.4313,-3.3475,-3.2618,0.0,-3.1152,-3.0801,-3.0801,-3.0767,-3.0703,-3.063,-3.0575,-3.0543,-3.0356,-3.0302,-3.0284,-3.0214,-3.0211,-3.0051,-2.9185,-2.8891,-2.8662,-2.7358,-2.6708,-2.6313,-2.5854,-2.5478,-2.5191,-2.5191,-2.5191,-2.5191,-2.5191,-2.5191,-2.5197,-2.5189,-2.5195,-2.5201,-2.5209,-2.5229,-2.5269,-2.5318,-2.5307,-2.5303,-2.5314,-2.5288,-2.5269,-2.5315,-2.5318,-2.5331,-2.5363,-2.5339,-2.5312,-2.5354,-2.5327,-2.5293,-2.5303,-2.5308,-2.5308,-2.5308,-2.5308,-2.5308,-2.5308,-2.5308,-2.5317,-2.5352,-2.5317,-2.5317,-2.5367,-2.5313,-2.5317,-2.9613,-3.0217,-3.0801,-3.0801,-3.0139,-2.9048,-2.7294,-2.6186,-2.4822,-2.233,0.0,0.0,-2.0635,0.0,-2.3246,-2.4238,0.0,-2.9713,-3.1819,-3.3326,-3.4551,-3.5493,-3.5579,-3.547,-3.5215,-3.5209,-3.5254,-3.5357,-3.5495,-3.5571,-3.5607,-3.5655,-3.5685,-3.5698,-3.5698,-3.576,-3.5908,-3.5908,-3.5908,-3.5908,-3.5908,-3.5908,-3.5869,-3.4993,-3.4211,-3.3482,0.0,0.0,-3.0915,-3.0806,-3.07,-3.0598,-3.0598,-3.0552,-3.0487,-3.0353,-3.0302,-3.0284,-3.0214,-3.0211,-3.007,-2.9318,-2.907,-2.8917,-2.8115,-2.7262,-2.6555,-2.6421,-2.5816,-2.5191,-2.5191,-2.5191,-2.5191,-2.5191,-2.5191,-2.5191,-2.5191,-2.5191,-2.5197,-2.5201,-2.5206,-2.5193,-2.5195,-2.5201,-2.5195,-2.5193,-2.5206,-2.5201,-2.5191,-2.5193,-2.5201,-2.5206,-2.5206,-2.5217,-2.5282,-2.5287,-2.5297,-2.5298,-2.5303,-2.5308,-2.5308,-2.5308,-2.5308,-2.5308,-2.5308,-2.5308,-2.5308,-2.5308,-2.5308,-2.5308,-2.5308,-2.5308,-3.0178,-3.0684,-3.0801,-3.0801,-3.0139,-2.9048,-2.7294,-2.5718,0.0,0.0,0.0,-2.0674,-2.0537,-2.1336,0.0,-2.414,0.0,0.0,0.0,0.0,-3.3059,0.0,0.0,0.0,0.0,0.0,0.0,0.0,0.0,-3.5483,-3.5582,-3.5604,-3.5636,-3.5693,-3.5698,-3.576,-3.5908,-3.5908,-3.5908,-3.5908,-3.5908,-3.5908,-3.5869,-3.4993,-3.4497,-3.4225,-3.2731,0.0,-3.151,-3.0893,-3.0587,-3.0524,-3.0524,-3.0515,-3.0487,-3.0353,-3.0302,-3.0284,-3.0214,-3.0211,-3.0192,-3.0013,-2.9975,-2.9803,-2.8956,-2.8115,-2.7319,-2.6593,-2.5816,-2.5191,-2.5191,-2.5191,-2.5191,-2.5191,-2.5191,-2.5191,-2.5191,-2.5191,-2.5191,-2.5197,-2.5197,-2.5197,-2.5203,-2.5203,-2.5203,-2.5197,-2.5197,-2.5197,-2.5191,-2.5197,-2.5195,-2.5198,-2.5198,-2.5209,-2.5217,-2.5276,-2.5292,-2.5297,-2.5293,-2.5308,-2.5308,-2.5308,-2.5308,-2.5308,-2.5308,-2.5308,-2.5308,-2.5308,-2.5308,-2.5308,-2.5308,-2.5308,-2.9905,-3.0451,-3.0801,-3.0801,-2.9808,-2.8385,-2.6673,0.0,0.0,0.0,0.0,-1.9699,-1.9289,0.0,0.0,0.0,0.0,0.0,0.0,0.0,0.0,0.0,0.0,0.0,0.0,0.0,0.0,0.0,0.0,0.0,-3.5397,-3.5457,-3.55,-3.5538,-3.565,-3.5737,-3.5797,-3.5797,-3.5797,-3.5797,-3.5757,-3.5736,-3.5736,-3.5309,-3.4605,-3.3673,-3.2901,0.0,-3.1057,-3.0681,-3.0491,-3.0392,-3.0392,-3.0392,-3.0381,-3.0279,-3.0266,-3.0284,-3.0214,-3.0211,-3.0211,-3.0211,-3.0211,-3.0109,-2.9707,-2.8695,-2.7606,-2.7186,-2.6179,-2.5191,-2.5191,-2.5191,-2.5191,-2.5191,-2.5191,-2.5191,-2.5191,-2.5191,-2.5191,-2.5191,-2.5191,-2.5191,-2.5191,-2.5191,-2.5191,-2.5191,-2.5191,-2.5191,-2.5191,-2.5191,-2.5197,-2.5208,-2.5189,-2.5201,-2.5209,-2.5225,-2.5261,-2.5306,-2.5302,-2.5293,-2.5308,-2.5308,-2.5308,-2.5308,-2.5308,-2.5308,-2.5308,-2.5308,-2.5308,-2.5308,-2.5308,-2.5308,-2.9457,-3.0139,-3.0762,-3.0567,-2.936,-2.7704,-2.5855,-2.3402,0.0,0.0,0.0,-1.8803,-1.8333,0.0,0.0,0.0,0.0,0.0,0.0,0.0,0.0,0.0,0.0,0.0,0.0,0.0,0.0,0.0,0.0,0.0,-3.5209,-3.5296,-3.5364,-3.5398,-3.5554,-3.565,-3.5687,-3.5687,-3.5687,-3.5687,-3.563,-3.5607,-3.5607,-3.5607,-3.4745,-3.3235,-3.3068,0.0,0.0,-3.051,-3.04,-3.0285,-3.0285,-3.0285,-3.0273,-3.0226,-3.0234,-3.0273,-3.0226,-3.0211,-3.0211,-3.0211,-3.0211,-3.0211,-3.0211,-2.902,-2.7701,-2.7701,-2.6485,-2.5191,-2.5191,-2.5191,-2.5191,-2.5191,-2.5191,-2.5191,-2.5191,-2.5191,-2.5191,-2.5191,-2.5191,-2.5191,-2.5191,-2.5191,-2.5191,-2.5191,-2.5191,-2.5191,-2.5191,-2.5191,-2.5191,-2.5191,-2.5191,-2.5197,-2.5201,-2.5206,-2.5209,-2.5271,-2.5276,-2.5292,-2.5298,-2.5298,-2.5303,-2.5308,-2.5308,-2.5308,-2.5308,-2.5308,-2.5308,-2.5308,-2.5308,-2.5274,-2.9282,-3.0139,-3.0606,-2.9827,-2.8892,-2.7548,-2.5075,0.0,0.0,0.0,-1.8626,-1.8313,-1.8978,-1.9935,0.0,0.0,0.0,0.0,0.0,0.0,0.0,0.0,0.0,0.0,0.0,0.0,0.0,0.0,0.0,0.0,-3.5209,-3.5198,-3.5266,-3.5391,-3.5425,-3.5495,-3.5604,-3.5604,-3.5604,-3.5604,-3.5593,-3.5607,-3.5607,-3.5607,-3.501,-3.3955,-3.3283,0.0,0.0,-3.0579,-3.0286,-3.0206,-3.0206,-3.0206,-3.0206,-3.0192,-3.0199,-3.0206,-3.0192,-3.0211,-3.0211,-3.0211,-3.0211,-3.0211,-3.0211,-2.902,-2.7701,-2.7701,-2.6485,-2.5191,-2.5191,-2.5191,-2.5191,-2.5191,-2.5191,-2.5191,-2.5191,-2.5191,-2.5191,-2.5191,-2.5191,-2.5191,-2.5191,-2.5191,-2.5191,-2.5191,-2.5191,-2.5191,-2.5191,-2.5191,-2.5191,-2.5191,-2.5191,-2.5191,-2.5197,-2.5195,-2.5193,-2.5217,-2.5201,-2.5247,-2.5292,-2.5292,-2.5302,-2.5308,-2.5308,-2.5308,-2.5308,-2.5308,-2.5308,-2.5308,-2.5308,-2.5238,-2.8346,-2.936,-2.9925,-2.9593,-2.8834,-2.7528,-2.4978,0.0,-2.0402,-2.0052,-1.8938,-1.8411,-1.9738,-2.0266,-2.0615,0.0,-2.126,-2.2282,0.0,0.0,0.0,0.0,0.0,0.0,0.0,0.0,0.0,0.0,0.0,0.0,-3.5209,-3.5209,-3.5223,-3.5274,-3.5369,-3.5425,-3.5476,-3.5476,-3.5476,-3.5476,-3.5411,-3.5362,-3.5343,-3.485,-3.4124,-3.3204,-3.2423,0.0,0.0,-3.0361,-3.0221,-3.0211,-3.0211,-3.0211,-3.0211,-3.0211,-3.0211,-3.0211,-3.0211,-3.0211,-3.0211,-3.0211,-3.0211,-3.0211,-3.0211,-2.902,-2.7701,-2.7701,-2.6485,-2.5191,-2.5191,-2.5191,-2.5191,-2.5191,-2.5191,-2.5191,-2.5191,-2.5107,-2.5013,-2.5013,-2.4941,-2.4898,-2.4898,-2.4898,-2.4898,-2.4898,-2.4898,-2.4898,-2.4898,-2.4898,-2.4898,-2.4898,-2.5076,-2.5191,-2.5191,-2.5203,-2.5195,-2.5193,-2.5204,-2.5201,-2.5247,-2.5282,-2.5292,-2.5302,-2.5187,-2.5111,-2.5111,-2.5111,-2.5111,-2.5116,-2.5234,-2.5264,-2.7061,-2.8269,-2.9048,-2.8795,-2.8269,-2.7158,0.0,0.0,-2.0732,-2.0227,-1.9172,-1.8724,-1.9894,-2.0324,-2.0498,-2.0498,-2.0673,-2.1381,-2.3051,0.0,0.0,0.0,0.0,0.0,0.0,0.0,0.0,0.0,0.0,0.0,0.0,-3.5209,-3.5209,-3.5209,-3.5289,-3.5348,-3.5348,-3.5348,-3.5348,-3.5348,-3.5258,-3.5204,-3.5166,-3.4353,-3.3486,-3.2619,0.0,0.0,0.0,-3.0211,-3.0211,-3.0211,-3.0211,-3.0211,-3.0211,-3.0211,-3.0211,-3.0211,-3.0211,-3.0211,-3.0211,-3.0211,-3.0211,-3.0211,-3.0211,-2.9192,-2.8001,-2.7778,-2.6485,-2.5191,-2.5191,-2.5191,-2.5191,-2.5191,-2.5191,-2.518,-2.5119,-2.5,-2.4888,-2.4847,-2.4764,-2.47,-2.47,-2.47,-2.47,-2.47,-2.47,-2.47,-2.47,-2.47,-2.47,-2.47,-2.4912,-2.5051,-2.5051,-2.5051,-2.5044,-2.5044,-2.5044,-2.5056,-2.5049,-2.5111,-2.5128,-2.5159,-2.5018,-2.4937,-2.4937,-2.4937,-2.4937,-2.4937,-2.509,-2.5143,-2.5485,-2.6944,-2.8015,-2.7139,-2.6924,-2.6244,0.0,-2.2427,-2.1297,-1.9564,-1.9194,-1.9194,-1.9214,-1.9915,-2.0498,-2.0498,-2.1219,-2.2349,-2.3952,0.0,0.0,0.0,0.0,0.0,0.0,0.0,0.0,0.0,0.0,0.0,0.0,-3.5209,-3.5209,-3.5209,-3.5209,-3.5209,-3.5209,-3.5209,-3.5209,-3.5209,-3.5206,-3.52,-3.5162,-3.4304,-3.3427,0.0,0.0,0.0,0.0,-3.0211,-3.0211,-3.0211,-3.0211,-3.0211,-3.0211,-3.0211,-3.0211,-3.0211,-3.0211,-3.0211,-3.0211,-3.0211,-3.0211,-3.0211,-3.0211,-2.9593,-2.872,-2.7924,-2.6485,-2.5191,-2.5191,-2.5191,-2.5191,-2.5191,-2.5191,-2.5156,-2.4954,-2.4902,-2.4861,-2.4738,-2.4707,-2.47,-2.47,-2.47,-2.47,-2.47,-2.47,-2.47,-2.47,-2.47,-2.47,-2.47,-2.4707,-2.4707,-2.4707,-2.4707,-2.4707,-2.4707,-2.4707,-2.4704,-2.4704,-2.4704,-2.4734,-2.4804,-2.4804,-2.4804,-2.4804,-2.4804,-2.4804,-2.4804,-2.4802,-2.4771,-2.2798,-2.3867,-2.451,-2.3634,-2.3867,-2.3614,-2.1024,-2.0674,-2.0596,-1.9448,-1.9194,-1.9389,-1.9974,-2.0305,-2.0693,-2.1297,-2.1628,0.0,0.0,0.0,0.0,0.0,0.0,0.0,0.0,0.0,0.0,0.0,0.0,0.0,0.0,-3.5209,-3.5209,-3.5209,-3.5209,-3.5209,-3.5209,-3.5196,-3.5198,-3.5198,-3.5155,-3.5138,-3.5081,-3.3652,0.0,0.0,0.0,0.0,0.0,-3.0132,-3.0132,-3.0132,-3.0135,-3.0123,-3.0123,-3.0123,-3.0164,-3.0185,-3.0157,-3.0123,-3.015,-3.0197,-3.0176,-3.014,-3.0135,-2.9546,-2.8605,-2.7217,-2.6009,-2.5125,-2.5125,-2.5168,-2.5191,-2.5191,-2.5191,-2.5137,-2.4935,-2.4818,-2.4719,-2.4534,-2.4409,-2.4358,-2.4358,-2.4358,-2.4358,-2.4358,-2.4358,-2.4358,-2.4358,-2.4358,-2.4358,-2.4358,-2.4358,-2.4445,-2.4684,-2.47,-2.47,-2.47,-2.47,-2.4707,-2.4704,-2.4708,-2.4704,-2.4727,-2.4647,-2.4591,-2.4591,-2.4591,-2.4662,-2.4804,-2.4792,-2.4792,0.0,-2.1453,-2.1999,-2.1453,-2.1726,-2.1609,-1.9642,-1.9876,-2.0247,-1.9389,-1.9467,-1.9857,-2.0402,-2.0498,-2.0674,-2.1219,-2.1589,0.0,0.0,0.0,0.0,0.0,0.0,0.0,0.0,0.0,0.0,0.0,0.0,0.0,0.0,-3.5193,-3.5204,-3.5204,-3.5201,-3.5201,-3.5204,-3.5198,-3.5191,-3.5155,-3.5092,-3.5066,-3.5009,-3.3335,0.0,0.0,0.0,0.0,0.0,-3.0095,-3.0095,-3.0102,-3.0098,-3.0106,-3.0106,-3.0106,-3.0128,-3.0161,-3.0113,-3.0106,-3.0113,-3.0161,-3.014,-3.0102,-3.0098,-2.953,-2.8583,-2.7235,-2.6238,-2.5488,-2.5184,-2.5132,-2.515,-2.515,-2.515,-2.5082,-2.4806,-2.4674,-2.4559,-2.4329,-2.4219,-2.417,-2.4208,-2.419,-2.419,-2.419,-2.419,-2.419,-2.419,-2.419,-2.419,-2.419,-2.419,-2.4275,-2.4488,-2.4513,-2.4513,-2.4513,-2.4513,-2.4513,-2.4513,-2.4512,-2.451,-2.451,-2.4426,-2.4393,-2.4393,-2.4393,-2.4452,-2.4564,-2.4564,-2.4588,0.0,-1.9564,-2.0206,-2.0148,-2.0187,-1.9992,-1.9136,-1.9642,0.0,-1.9194,-1.972,-2.0362,-2.0479,-2.0441,-2.05,-2.0732,0.0,0.0,0.0,0.0,0.0,0.0,0.0,0.0,0.0,0.0,0.0,0.0,0.0,0.0,0.0,-3.5102,-3.5105,-3.5105,-3.51,-3.5119,-3.52,-3.5191,-3.5147,-3.5084,-3.502,-3.4954,-3.484,-3.3226,0.0,0.0,0.0,0.0,0.0,-3.0087,-3.0087,-3.0087,-3.0095,-3.0095,-3.0095,-3.0095,-3.0095,-3.0095,-3.0095,-3.0095,-3.0095,-3.0087,-3.0087,-3.0095,-3.0087,-2.9433,-2.8551,-2.779,-2.6922,-2.6021,-2.5272,-2.5082,-2.5082,-2.5057,-2.505,-2.4959,-2.4572,-2.4481,-2.4415,-2.4143,-2.4094,-2.4103,-2.417,-2.418,-2.419,-2.419,-2.4208,-2.419,-2.419,-2.419,-2.419,-2.419,-2.419,-2.419,-2.419,-2.419,-2.419,-2.419,-2.419,-2.419,-2.419,-2.419,-2.419,-2.419,-2.419,-2.419,-2.419,-2.419,-2.419,-2.4192,-2.4182,-2.4201,-1.619,0.0,-1.7437,-1.6774,-1.7105,-1.7359,0.0,-1.7475,-1.8333,-1.7475,0.0,-1.8976,-2.0265,-1.9954,-2.0383,0.0,0.0,0.0,0.0,0.0,0.0,0.0,0.0,0.0,0.0,0.0,0.0,0.0,0.0,0.0,0.0,-3.4128,-3.4139,-3.4139,-3.4128,-3.4452,-3.5129,-3.5075,-3.5029,-3.502,-3.4955,-3.4604,-3.3979,-3.2917,0.0,0.0,0.0,0.0,-2.9948,-2.9948,-2.9948,-2.9956,-2.9988,-3.0022,-3.0022,-3.0022,-3.0065,-3.0095,-3.0038,-3.0022,-3.0022,-2.9964,-2.9972,-3.0014,-2.9964,-2.8947,-2.778,-2.759,-2.645,-2.5226,-2.4882,-2.4818,-2.4818,-2.4674,-2.4643,-2.458,-2.4392,-2.4347,-2.4275,-2.4066,-2.4016,-2.4026,-2.4036,-2.4094,-2.4113,-2.4113,-2.417,-2.419,-2.419,-2.419,-2.419,-2.419,-2.419,-2.419,-2.419,-2.419,-2.419,-2.419,-2.419,-2.419,-2.419,-2.419,-2.419,-2.419,-2.419,-2.419,-2.419,-2.419,-2.4199,-2.4209,-2.3988,-2.3919,-1.4806,-1.6013,-1.7182,-1.6714,-1.6948,-1.7162,-1.6695,0.0,0.0,0.0,0.0,0.0,-1.9636,0.0,0.0,0.0,0.0,0.0,0.0,0.0,0.0,0.0,0.0,0.0,0.0,0.0,0.0,0.0,0.0,0.0,0.0,-3.323,-3.3194,-3.3194,-3.3557,-3.4165,-3.5038,-3.502,-3.4973,-3.4945,-3.4538,-3.4112,-3.3657,-3.2425,-3.1602,0.0,0.0,0.0,-2.9897,-2.9897,-2.9897,-2.9897,-2.994,-2.9956,-2.9956,-2.9956,-2.9972,-3.0007,-2.9964,-2.9888,-2.9796,-2.9662,-2.9653,-2.9672,-2.9635,-2.8479,-2.7204,-2.733,-2.6374,-2.5197,-2.469,-2.4588,-2.4588,-2.4472,-2.4447,-2.4415,-2.4229,-2.421,-2.4154,-2.3996,-2.3947,-2.3958,-2.3996,-2.4026,-2.4046,-2.4046,-2.4084,-2.4103,-2.4103,-2.4103,-2.4103,-2.4103,-2.4141,-2.4161,-2.4161,-2.418,-2.419,-2.419,-2.419,-2.419,-2.419,-2.419,-2.419,-2.419,-2.419,-2.4141,-2.4016,-2.4016,-2.3947,-2.3827,-2.3682,-2.3649,-1.4417,-1.6399,-1.8285,-1.7901,-1.7996,-1.8147,-1.8011,0.0,0.0,0.0,0.0,0.0,0.0,0.0,0.0,0.0,0.0,0.0,0.0,0.0,0.0,0.0,0.0,0.0,0.0,0.0,0.0,0.0,0.0,0.0,0.0,-3.2332,-3.2296,-3.2296,-3.2955,-3.3732,-3.4594,-3.4859,-3.4898,-3.4718,-3.4036,-3.3562,-3.3278,-3.1857,-3.1128,0.0,0.0,0.0,-2.9897,-2.9897,-2.9897,-2.9897,-2.9897,-2.9897,-2.9897,-2.9897,-2.9897,-2.9888,-2.9864,-2.9716,-2.9532,-2.9355,-2.9304,-2.9304,-2.9304,-2.8122,-2.6823,-2.7044,-2.6327,-2.5326,-2.4549,-2.4355,-2.4346,-2.4319,-2.431,-2.4265,-2.4088,-2.404,-2.4029,-2.3917,-2.3886,-2.3907,-2.3966,-2.3986,-2.3986,-2.3986,-2.3996,-2.3996,-2.3996,-2.3996,-2.3986,-2.3937,-2.3996,-2.4006,-2.3976,-2.4016,-2.4064,-2.4064,-2.4151,-2.418,-2.4151,-2.4141,-2.4113,-2.4084,-2.4084,-2.3976,-2.3735,-2.3735,-2.361,-2.3403,-2.3375,-2.3352,-1.5896,-1.8129,-1.9528,-1.7427,-1.7916,-1.8744,-1.8065,0.0,0.0,0.0,0.0,0.0,0.0,0.0,0.0,0.0,0.0,0.0,0.0,0.0,0.0,0.0,0.0,0.0,0.0,0.0,0.0,0.0,0.0,0.0,0.0,0.0,-3.141,-3.141,-3.1516,-3.197,-3.2794,-3.4216,-3.4576,-3.3884,-3.3752,-3.2956,-3.1591,-3.1318,-3.0806,0.0,0.0,-2.9897,-2.9897,-2.9897,-2.9897,-2.9897,-2.9897,-2.9897,-2.9897,-2.9897,-2.9897,-2.9872,-2.9707,-2.9504,-2.9345,-2.9314,-2.9304,-2.9304,-2.9304,-2.8048,-2.6641,-2.6671,-2.5671,-2.453,-2.422,-2.4154,-2.4098,-2.3921,-2.3881,-2.387,-2.3858,-2.3847,-2.3847,-2.3816,-2.3816,-2.3816,-2.3827,-2.3886,-2.3917,-2.3917,-2.3947,-2.3996,-2.3996,-2.3996,-2.3907,-2.3682,-2.3671,-2.3577,-2.3357,-2.3403,-2.3437,-2.3437,-2.3917,-2.4094,-2.3876,-2.3847,-2.3746,-2.3533,-2.3533,-2.3493,-2.3448,-2.3448,-2.3437,-2.3392,-2.3224,-2.3151,-1.4241,-1.6436,-1.8293,-1.8062,-1.956,-2.0992,-2.0621,0.0,0.0,0.0,0.0,0.0,0.0,0.0,0.0,0.0,0.0,0.0,0.0,0.0,0.0,0.0,0.0,0.0,0.0,0.0,0.0,0.0,0.0,0.0,0.0,0.0,-3.0503,-3.0503,-3.0939,-3.1374,-3.1753,-3.2956,-3.3354,-3.2994,-3.2558,-3.1951,-3.1185,-3.0711,-3.0276,-2.9897,0.0,-2.9897,-2.9897,-2.9897,-2.9897,-2.9897,-2.9897,-2.9839,-2.9725,-2.9617,-2.958,-2.9551,-2.9345,-2.9228,-2.9119,-2.8973,-2.8927,-2.8927,-2.8927,-2.8052,-2.6938,-2.6512,-2.5262,-2.4059,-2.3951,-2.3949,-2.3901,-2.3827,-2.3806,-2.3806,-2.3806,-2.3806,-2.3806,-2.3806,-2.3806,-2.3806,-2.3806,-2.3827,-2.3855,-2.3855,-2.3782,-2.3718,-2.3718,-2.3591,-2.3468,-2.3347,-2.3341,-2.3288,-2.3153,-2.32,-2.3288,-2.3357,-2.3577,-2.366,-2.3533,-2.35,-2.3426,-2.3357,-2.3346,-2.3318,-2.3236,-2.3236,-2.3164,-2.303,-2.294,-2.2876,-1.2814,-1.479,-1.6962,-1.8656,0.0,-2.2061,-2.2619,0.0,0.0,0.0,0.0,0.0,0.0,0.0,0.0,0.0,0.0,0.0,0.0,0.0,0.0,0.0,0.0,0.0,0.0,0.0,0.0,0.0,0.0,0.0,0.0,0.0,-2.9897,-2.9897,-3.0541,-3.0901,-3.0901,-3.1507,-3.1924,-3.2113,-3.1488,-3.109,-3.0863,-3.02,-2.9897,-2.9897,-2.9897,-2.9897,-2.9897,-2.9897,-2.9897,-2.9897,-2.9897,-2.9787,-2.958,-2.9375,-2.9262,-2.9217,-2.9041,-2.8957,-2.8863,-2.8675,-2.86,-2.86,-2.86,-2.8038,-2.7224,-2.6439,-2.5172,-2.4031,-2.386,-2.3806,-2.3806,-2.3806,-2.3806,-2.3806,-2.3806,-2.3806,-2.3806,-2.3806,-2.3806,-2.3806,-2.3806,-2.3806,-2.3785,-2.3732,-2.3598,-2.3481,-2.3406,-2.323,-2.3084,-2.301,-2.3012,-2.2995,-2.294,-2.2977,-2.3051,-2.3189,-2.3242,-2.3265,-2.3206,-2.3159,-2.3123,-2.3099,-2.3141,-2.3086,-2.2977,-2.3008,-2.2906,-2.2699,-2.2685,-2.2672,-1.3555,-1.5177,-1.683,-1.8564,-1.9146,0.0,-2.2096,-2.189,0.0,0.0,0.0,0.0,0.0,0.0,0.0,0.0,0.0,0.0,0.0,0.0,0.0,0.0,0.0,0.0,0.0,0.0,0.0,0.0,0.0,0.0,0.0,0.0,0.0,-2.9897,-2.9953,-2.9991,-2.9991,-3.0048,-3.0484,-3.128,-3.1223,-3.0787,-2.9991,-2.9934,-2.9897,-2.9897,-2.9897,-2.9897,-2.9897,-2.9897,-2.9897,-2.9897,-2.9897,-2.9787,-2.958,-2.9375,-2.9185,-2.9026,-2.9003,-2.8827,-2.8625,-2.86,-2.86,-2.86,-2.86,-2.8038,-2.7224,-2.6439,-2.5588,-2.4737,-2.3994,-2.3806,-2.3806,-2.3806,-2.3806,-2.3806,-2.3806,-2.3806,-2.3806,-2.3806,-2.3806,-2.3806,-2.3806,-2.3806,-2.3732,-2.3542,-2.3515,-2.3406,-2.317,-2.3103,-2.301,-2.2764,-2.2738,-2.2642,-2.2474,-2.2443,-2.2484,-2.2565,-2.297,-2.3123,-2.2943,-2.2917,-2.2807,-2.2565,-2.2619,-2.2646,-2.2632,-2.2699,-2.2725,-2.2699,-2.2632,-2.2623,-1.2105,-1.3962,-1.6131,-1.8371,-1.9275,0.0,0.0,-2.3515,0.0,0.0,0.0,0.0,0.0,0.0,0.0,0.0,0.0,0.0,0.0,0.0,0.0,0.0,0.0,0.0,0.0,0.0,0.0,0.0,0.0,0.0,0.0,0.0,0.0,-2.9897,-2.9897,-2.9897,-2.9897,-2.9897,-3.0067,-3.0389,-3.0389,-3.0219,-2.9897,-2.9897,-2.9897,-2.9897,-2.9897,-2.9897,-2.9897,-2.9897,-2.9897,-2.9872,-2.9626,-2.9405,-2.9188,-2.8943,-2.8827,-2.8743,-2.8743,-2.8687,-2.86,-2.86,-2.86,-2.86,-2.86,-2.8382,-2.7984,-2.717,-2.6717,-2.6192,-2.4882,-2.4176,-2.3933,-2.4429,-2.4157,-2.3806,-2.3806,-2.3806,-2.3806,-2.3806,-2.3806,-2.3806,-2.3806,-2.3806,-2.3732,-2.3538,-2.3359,-2.3157,-2.2889,-2.2708,-2.2565,-2.246,-2.2446,-2.2419,-2.2352,-2.2338,-2.2352,-2.2363,-2.2588,-2.2664,-2.2588,-2.2552,-2.2497,-2.2432,-2.246,-2.2501,-2.2542,-2.3069,-2.3292,-2.3268,-2.3793,-2.4002,-1.1638,-1.3585,-1.5968,-1.7962,0.0,0.0,-2.2175,0.0,0.0,0.0,0.0,0.0,0.0,0.0,0.0,0.0,0.0,0.0,0.0,0.0,0.0,0.0,0.0,0.0,0.0,0.0,0.0,0.0,0.0,0.0,0.0,0.0,0.0,0.0,-2.9813,-2.9769,-2.9707,-2.9707,-2.9707,-2.9707,-2.9707,-2.9787,-2.9888,-2.9839,-2.9839,-2.9888,-2.9839,-2.9847,-2.9888,-2.9751,-2.9707,-2.9681,-2.9334,-2.9119,-2.8968,-2.87,-2.86,-2.86,-2.86,-2.86,-2.86,-2.86,-2.86,-2.86,-2.86,-2.8587,-2.8411,-2.7622,-2.7368,-2.7091,-2.6006,-2.5142,-2.4701,-2.5244,-2.4954,-2.4483,-2.423,-2.4176,-2.4103,-2.385,-2.3806,-2.3806,-2.3806,-2.3742,-2.3624,-2.3406,-2.3145,-2.2889,-2.2605,-2.2405,-2.2296,-2.2296,-2.2296,-2.2296,-2.2296,-2.2296,-2.2296,-2.2296,-2.2352,-2.238,-2.238,-2.2324,-2.2324,-2.238,-2.2615,-2.2759,-2.2815,-2.3619,-2.3996,-2.3969,-2.4543,-2.4769,-1.2599,-1.4426,-1.651,0.0,0.0,0.0,0.0,0.0,0.0,0.0,0.0,0.0,0.0,0.0,0.0,0.0,0.0,0.0,0.0,0.0,0.0,0.0,0.0,0.0,0.0,0.0,0.0,0.0,0.0,0.0,0.0,0.0,0.0,0.0,-2.9598,-2.9504,-2.9304,-2.9304,-2.9304,-2.9304,-2.9293,-2.9513,-2.988,-2.9689,-2.9707,-2.988,-2.9681,-2.9707,-2.9864,-2.9456,-2.9293,-2.9272,-2.9093,-2.9003,-2.8957,-2.87,-2.86,-2.86,-2.86,-2.86,-2.86,-2.86,-2.86,-2.86,-2.86,-2.8549,-2.8343,-2.7628,-2.7307,-2.7238,-2.7277,-2.6772,-2.6222,-2.621,-2.6192,-2.5986,-2.5172,-2.5009,-2.4755,-2.3958,-2.3795,-2.3795,-2.3795,-2.3631,-2.3394,-2.3145,-2.2876,-2.2592,-2.2338,-2.2296,-2.2296,-2.2313,-2.2296,-2.2296,-2.2313,-2.2296,-2.2296,-2.2296,-2.2296,-2.2296,-2.2296,-2.2296,-2.2296,-2.2313,-2.3093,-2.351,-2.351,-2.432,-2.4707,-2.4707,-2.4649,-2.4618,-1.2716,-1.4798,0.0,0.0,0.0,0.0,0.0,0.0,0.0,0.0,0.0,0.0,0.0,0.0,0.0,0.0,0.0,0.0,0.0,0.0,0.0,0.0,0.0,0.0,0.0,0.0,0.0,0.0,0.0,0.0,0.0,0.0,0.0,0.0,-2.9465,-2.9365,-2.9304,-2.9304,-2.9304,-2.9293,-2.9163,-2.9238,-2.9484,-2.9425,-2.9425,-2.9465,-2.9397,-2.9425,-2.9474,-2.9355,-2.9228,-2.9075,-2.9026,-2.8875,-2.8712,-2.8625,-2.86,-2.8587,-2.8549,-2.8536,-2.8505,-2.8471,-2.8458,-2.8458,-2.8458,-2.8463,-2.8378,-2.8157,-2.8078,-2.8052,-2.8078,-2.7911,-2.7599,-2.7041,-2.6465,-2.5835,-2.5025,-2.4897,-2.464,-2.364,-2.345,-2.338,-2.3129,-2.3087,-2.3007,-2.2777,-2.2721,-2.2592,-2.2338,-2.2296,-2.2499,-2.3021,-2.2615,-2.2513,-2.3038,-2.2598,-2.2296,-2.2296,-2.2801,-2.2852,-2.2313,-2.2296,-2.2533,-2.3054,-2.3321,-2.3691,-2.4199,-2.5024,-2.5381,-2.5335,-2.5942,-2.618,-1.4478,0.0,0.0,0.0,0.0,0.0,0.0,0.0,0.0,0.0,0.0,0.0,0.0,0.0,0.0,0.0,0.0,0.0,0.0,0.0,0.0,0.0,0.0,0.0,0.0,0.0,0.0,0.0,0.0,0.0,0.0,0.0,0.0,0.0,-2.9241,-2.9141,-2.9012,-2.9012,-2.9012,-2.9012,-2.891,-2.8892,-2.9023,-2.9123,-2.922,-2.9304,-2.9304,-2.9198,-2.9023,-2.9141,-2.9041,-2.8839,-2.8839,-2.8737,-2.8562,-2.8562,-2.8549,-2.851,-2.8471,-2.8458,-2.8458,-2.8406,-2.8411,-2.8411,-2.8411,-2.8367,-2.8384,-2.838,-2.8371,-2.8331,-2.834,-2.8246,-2.8053,-2.7761,-2.7207,-2.6451,-2.5355,-2.5045,-2.4614,-2.3358,-2.3099,-2.3033,-2.2835,-2.2746,-2.2673,-2.2607,-2.2579,-2.259,-2.2714,-2.275,-2.3021,-2.3763,-2.3427,-2.3342,-2.3814,-2.3427,-2.3173,-2.3173,-2.3594,-2.3644,-2.319,-2.3173,-2.3376,-2.3831,-2.412,-2.4413,-2.4709,-2.5479,-2.5765,-2.5578,-2.6269,-2.6539,0.0,0.0,0.0,0.0,0.0,0.0,0.0,0.0,0.0,0.0,0.0,0.0,0.0,0.0,0.0,0.0,0.0,0.0,0.0,0.0,0.0,0.0,0.0,0.0,0.0,0.0,0.0,0.0,0.0,0.0,0.0,0.0,0.0,0.0,-2.8968,-2.8839,-2.86,-2.86,-2.86,0.0,-2.8587,-2.8587,-2.86,-2.8851,-2.9064,-2.9241,-2.9241,-2.8989,-2.8612,-2.8863,-2.8803,-2.8574,-2.8587,-2.8549,-2.8479,-2.8479,-2.8458,-2.8411,-2.838,-2.838,-2.838,-2.8367,-2.8384,-2.8384,-2.8384,-2.834,-2.83,-2.8327,-2.825,-2.8168,-2.8187,-2.7933,-2.776,-2.8187,-2.8059,-2.7434,-2.5941,-2.5409,-2.4753,-2.3232,-2.2903,-2.285,-2.2812,-2.2563,-2.2416,-2.2617,-2.249,-2.2637,-2.3378,-2.3479,-2.3767,-2.4509,-2.4526,-2.4509,-2.4561,-2.4526,-2.4492,-2.4492,-2.4558,-2.4609,-2.4577,-2.4494,-2.4478,-2.4546,-2.5173,-2.533,-2.5041,-2.572,-2.5854,-2.5503,-2.5872,-2.605,0.0,0.0,0.0,0.0,0.0,0.0,0.0,0.0,0.0,0.0,0.0,0.0,0.0,0.0,0.0,0.0,0.0,0.0,0.0,0.0,0.0,0.0,0.0,0.0,0.0,0.0,0.0,0.0,0.0,0.0,0.0,0.0,0.0,-2.8984,-2.881,-2.8662,-2.86,-2.86,-2.86,0.0,-2.8549,-2.8549,-2.86,-2.8662,-2.8706,-2.8755,-2.8755,-2.8657,-2.8536,-2.865,-2.8587,-2.8463,-2.851,-2.8484,-2.8419,-2.8419,-2.8406,-2.838,-2.834,-2.8313,-2.8313,-2.8264,-2.8237,-2.8237,-2.8237,-2.8237,-2.8182,-2.7918,-2.7832,-2.7745,-2.7507,-2.7369,-2.7338,-2.7428,-2.7398,-2.7091,-2.6123,-2.59,-2.552,-2.43,-2.3621,-2.3201,-2.2912,-2.2398,-2.2226,-2.2904,-2.296,-2.3231,-2.408,-2.4086,-2.4339,-2.5191,-2.4673,-2.4491,-2.5095,-2.4689,-2.4417,-2.4417,-2.5019,-2.534,-2.5292,-2.4478,-2.4314,-2.488,-2.4738,-2.4888,-2.5387,-2.5552,-2.5596,-2.5503,-2.5596,-2.5633,0.0,0.0,0.0,0.0,0.0,0.0,0.0,0.0,0.0,0.0,0.0,0.0,0.0,0.0,0.0,0.0,0.0,0.0,0.0,0.0,0.0,0.0,0.0,0.0,0.0,0.0,0.0,0.0,0.0,0.0,0.0,-2.7735,-2.7983,-2.8785,-2.8675,-2.86,-2.86,-2.8574,-2.8549,-2.8549,-2.8484,-2.8471,-2.8497,-2.8574,-2.8562,-2.8497,-2.8536,-2.8523,-2.8458,-2.8484,-2.8458,-2.8393,-2.8445,-2.8406,-2.834,-2.834,-2.8327,-2.8304,-2.8246,-2.8246,-2.825,-2.8209,-2.8196,-2.8196,-2.8196,-2.8081,-2.7922,-2.7745,-2.758,-2.743,-2.7244,-2.7085,-2.6956,-2.6956,-2.6956,-2.6734,-2.5981,-2.5717,-2.5338,-2.4391,-2.3923,-2.3624,-2.3468,-2.3152,-2.3097,-2.3511,-2.3609,-2.3924,-2.4726,-2.4777,-2.5062,-2.5883,-2.5564,-2.5447,-2.5849,-2.5598,-2.5413,-2.5413,-2.5581,-2.5679,-2.5643,-2.474,-2.4634,-2.5452,-2.5078,-2.496,-2.5157,-2.5157,-2.504,-2.4784,-2.504,-2.5157,0.0,0.0,0.0,0.0,0.0,0.0,0.0,0.0,0.0,0.0,0.0,0.0,0.0,0.0,0.0,0.0,0.0,0.0,0.0,0.0,0.0,0.0,0.0,0.0,0.0,0.0,0.0,0.0,0.0,0.0,-2.7273,-2.7106,-2.7423,-2.8364,-2.8382,-2.8442,-2.8587,-2.8536,-2.8479,-2.8479,-2.8419,-2.8398,-2.8384,-2.8497,-2.8497,-2.8393,-2.8458,-2.8445,-2.838,-2.8398,-2.8398,-2.8371,-2.8384,-2.834,-2.8286,-2.8286,-2.825,-2.8196,-2.8196,-2.8196,-2.8196,-2.8196,-2.8196,-2.8196,-2.8196,-2.7982,-2.7701,-2.7642,-2.7384,-2.7101,-2.7037,-2.6808,-2.6624,-2.6624,-2.6624,-2.6455,-2.5848,-2.5497,-2.511,-2.4497,-2.4282,-2.4149,-2.4017,-2.4049,-2.4131,-2.4248,-2.4313,-2.4629,-2.538,-2.5447,-2.5714,-2.6384,-2.6381,-2.6329,-2.6329,-2.6259,-2.6241,-2.6241,-2.5886,-2.5687,-2.5668,-2.4965,-2.4942,-2.5701,-2.5365,-2.4997,-2.4655,-2.4655,-2.4431,-2.4003,-2.4467,-2.4655,0.0,0.0,0.0,0.0,0.0,0.0,0.0,0.0,0.0,0.0,0.0,0.0,0.0,0.0,0.0,0.0,0.0,0.0,0.0,0.0,0.0,0.0,0.0,0.0,0.0,0.0,0.0,0.0,0.0,0.0,-2.5336,-2.5339,-2.6023,-2.7514,-2.7568,-2.7869,-2.8505,-2.8492,-2.8471,-2.8406,-2.8393,-2.8345,-2.8223,-2.8371,-2.8424,-2.8411,-2.8406,-2.8367,-2.8313,-2.8384,-2.8331,-2.8223,-2.8286,-2.8259,-2.8209,-2.8209,-2.8196,-2.8196,-2.8196,-2.8196,-2.8196,-2.8196,-2.8196,-2.8196,-2.8196,-2.7982,-2.7642,-2.7353,-2.7021,-2.6691,-2.6416,-2.631,-2.6274,-2.6274,-2.6274,-2.6241,-2.6142,-2.6072,-2.602,-2.5921,-2.5392,-2.4762,-2.4116,-2.4,-2.4232,-2.4879,-2.4961,-2.5261,-2.6062,-2.6108,-2.6141,-2.6313,-2.5905,-2.5631,-2.5631,-2.537,-2.5198,-2.5198,-2.524,-2.5221,-2.5105,-2.4672,-2.4486,-2.4619,-2.4328,-2.4156,-2.4109,-2.4109,-2.4067,-2.4003,-2.4067,-2.4109,0.0,0.0,0.0,0.0,0.0,0.0,0.0,0.0,0.0,0.0,0.0,0.0,0.0,0.0,0.0,0.0,0.0,0.0,0.0,0.0,0.0,0.0,0.0,0.0,0.0,0.0,0.0,0.0,0.0,-2.4139,-2.4954,-2.5009,-2.5511,-2.6645,-2.667,-2.6826,-2.7156,-2.7538,-2.7905,-2.8291,-2.8291,-2.825,-2.8196,-2.8264,-2.8291,-2.8291,-2.8327,-2.8318,-2.825,-2.8277,-2.825,-2.8196,-2.8237,-2.8223,-2.8196,-2.8196,-2.8196,-2.8196,-2.8196,-2.8196,-2.8196,-2.8196,-2.8196,-2.8168,-2.7982,-2.7686,-2.7353,-2.7021,-2.6674,-2.6399,-2.6239,-2.6202,-2.6202,-2.6202,-2.6202,-2.6202,-2.6202,-2.6202,-2.6202,-2.6202,-2.5937,-2.5606,-2.5292,-2.5243,-2.5342,-2.5656,-2.5723,-2.5752,-2.5837,-2.5832,-2.5721,-2.5538,-2.5294,-2.516,-2.516,-2.5024,-2.4946,-2.4946,-2.4784,-2.4664,-2.4619,-2.4194,-2.3943,-2.3958,-2.3909,-2.3882,-2.3882,-2.3882,-2.3861,-2.3782,-2.3861,-2.3882,0.0,0.0,0.0,0.0,0.0,0.0,0.0,0.0,0.0,0.0,0.0,0.0,0.0,0.0,0.0,0.0,0.0,0.0,0.0,0.0,0.0,0.0,0.0,0.0,0.0,0.0,0.0,0.0,0.0,-2.4056,-2.4672,-2.4708,-2.5048,-2.5797,-2.5792,-2.5883,-2.6069,-2.6539,-2.7035,-2.7589,-2.7589,-2.7589,-2.7589,-2.7589,-2.7589,-2.7607,-2.8085,-2.825,-2.8196,-2.8196,-2.8196,-2.8196,-2.8196,-2.8196,-2.8196,-2.8196,-2.8196,-2.8196,-2.8196,-2.814,-2.8067,-2.8067,-2.8011,-2.7911,-2.7642,-2.7353,-2.7021,-2.6775,-2.6452,-2.6202,-2.6202,-2.6202,-2.6202,-2.6202,-2.6202,-2.6202,-2.6202,-2.6202,-2.6202,-2.6202,-2.6202,-2.6202,-2.6202,-2.6202,-2.6202,-2.6202,-2.6202,-2.6026,-2.5559,-2.5503,-2.5351,-2.4942,-2.4819,-2.4759,-2.4759,-2.4643,-2.4583,-2.4583,-2.4292,-2.412,-2.412,-2.3782,-2.3595,-2.3595,-2.3696,-2.3739,-2.3739,-2.3739,-2.3696,-2.3595,-2.3696,-2.3739,0.0,0.0,0.0,0.0,0.0,0.0,0.0,0.0,0.0,0.0,0.0,0.0,0.0,0.0,0.0,0.0,0.0,0.0,0.0,0.0,0.0,0.0,0.0,0.0,0.0,0.0,0.0,0.0,0.0,-2.3822,-2.3858,-2.3858,-2.4238,-2.5021,-2.4994,-2.5302,-2.6002,-2.5909,-2.589,-2.5913,-2.5913,-2.5913,-2.5913,-2.5913,-2.5913,-2.6002,-2.7536,-2.8196,-2.8196,-2.8196,-2.8196,-2.8196,-2.8196,-2.8196,-2.8196,-2.8196,-2.8196,-2.8196,-2.8196,-2.7979,-2.773,-2.773,-2.7522,-2.7244,-2.7228,-2.6989,-2.6725,-2.6708,-2.6452,-2.6202,-2.6202,-2.6202,-2.6202,-2.6202,-2.6202,-2.6202,-2.6202,-2.6202,-2.6202,-2.6202,-2.6202,-2.6202,-2.6202,-2.6202,-2.6202,-2.6202,-2.6202,-2.6026,-2.5559,-2.5503,-2.5351,-2.4942,-2.4574,-2.4323,-2.4323,-2.3931,-2.3659,-2.3659,-2.3638,-2.3653,-2.3653,-2.3595,-2.3595,-2.3595,-2.3595,-2.3595,-2.3595,-2.3595,-2.3595,-2.3595,-2.3595,-2.3595,0.0,0.0,0.0,0.0,0.0,0.0,0.0,0.0,0.0,0.0,0.0,0.0,0.0,0.0,0.0,0.0,0.0,0.0,0.0,0.0,0.0,0.0,0.0,0.0,0.0,0.0,0.0,0.0,0.0,0.0,-2.3732,-2.3732,-2.3855,-2.4087,-2.4082,-2.4413,-2.5159,-2.5117,-2.5337,-2.58,-2.58,-2.58,-2.58,-2.58,-2.5712,-2.5575,-2.614,-2.6405,-2.6454,-2.7144,-2.733,-2.7242,-2.7927,-2.8196,-2.8168,-2.795,-2.7879,-2.785,-2.7627,-2.7476,-2.7384,-2.7384,-2.7307,-2.7165,-2.694,-2.6791,-2.6657,-2.6434,-2.624,-2.6063,-2.6063,-2.6043,-2.6007,-2.6061,-2.6061,-2.6078,-2.6079,-2.615,-2.6202,-2.6202,-2.6202,-2.6202,-2.6202,-2.6202,-2.6114,-2.5793,-2.574,-2.5516,-2.4819,-2.4739,-2.4563,-2.411,-2.3937,-2.3846,-2.3846,-2.3696,-2.3595,-2.3595,-2.3595,-2.3595,-2.3595,-2.3595,-2.3595,-2.3595,-2.3595,-2.3595,-2.3595,-2.3595,-2.3595,-2.3595,-2.3595,-2.3595,0.0,0.0,0.0,0.0,0.0,0.0,0.0,0.0,0.0,0.0,0.0,0.0,0.0,0.0,0.0,0.0,0.0,0.0,0.0,0.0,0.0,0.0,0.0,0.0,0.0,0.0,0.0,0.0,0.0,0.0,-2.3674,-2.3674,-2.3641,-2.3562,-2.3562,-2.3789,-2.4302,-2.4302,-2.4551,-2.5033,-2.5033,-2.5033,-2.5021,-2.4917,-2.4792,-2.4625,-2.4528,-2.4799,-2.532,-2.6037,-2.6366,-2.6492,-2.7208,-2.7653,-2.7836,-2.7612,-2.7537,-2.7507,-2.7276,-2.7133,-2.7037,-2.7037,-2.6956,-2.6808,-2.6539,-2.647,-2.6418,-2.6169,-2.6043,-2.5972,-2.5972,-2.5936,-2.5899,-2.5954,-2.597,-2.597,-2.5972,-2.6045,-2.6132,-2.6096,-2.597,-2.5862,-2.5862,-2.5772,-2.5589,-2.5275,-2.5275,-2.5059,-2.4385,-2.4302,-2.4114,-2.3638,-2.3595,-2.3595,-2.3595,-2.3595,-2.3595,-2.3595,-2.3595,-2.3595,-2.3595,-2.3595,-2.3595,-2.3595,-2.3595,-2.3595,-2.3595,-2.3595,-2.3595,-2.3595,-2.3595,-2.3595,0.0,0.0,0.0,0.0,0.0,0.0,0.0,0.0,0.0,0.0,0.0,0.0,0.0,0.0,0.0,0.0,0.0,0.0,0.0,0.0,0.0,0.0,0.0,0.0,0.0,0.0,0.0,0.0,0.0,-2.3603,-2.3603,-2.3603,-2.3562,-2.3505,-2.3505,-2.3505,-2.3505,-2.3505,-2.3505,-2.3505,-2.3494,-2.3494,-2.3482,-2.3217,-2.3077,-2.3052,-2.2794,-2.3532,-2.4908,-2.4956,-2.5391,-2.6038,-2.607,-2.6521,-2.7162,-2.7147,-2.7147,-2.7147,-2.7181,-2.6956,-2.6674,-2.6674,-2.6452,-2.6168,-2.6026,-2.6008,-2.5974,-2.5917,-2.5897,-2.5881,-2.5881,-2.5881,-2.5881,-2.5881,-2.5881,-2.5881,-2.5879,-2.5936,-2.5937,-2.5881,-2.5513,-2.5192,-2.5176,-2.4906,-2.4692,-2.4672,-2.4788,-2.4739,-2.4323,-2.4261,-2.4114,-2.3653,-2.3595,-2.3595,-2.361,-2.361,-2.361,-2.361,-2.361,-2.361,-2.361,-2.361,-2.3595,-2.3595,-2.3595,-2.3595,-2.3595,-2.3595,-2.3595,-2.3595,-2.3595,-2.3595,-1.0174,0.0,0.0,0.0,0.0,0.0,0.0,0.0,0.0,0.0,0.0,0.0,0.0,0.0,0.0,0.0,0.0,0.0,0.0,0.0,0.0,0.0,0.0,0.0,0.0,0.0,0.0,0.0,-2.3517,-2.3528,-2.3528,-2.3528,-2.3517,-2.3505,-2.3505,-2.3505,-2.3505,-2.3505,-2.3505,-2.3505,-2.3301,-2.3217,-2.3205,-2.2922,-2.2673,-2.2439,-2.2375,-2.2474,-2.2769,-2.3727,-2.4454,-2.4961,-2.52,-2.5757,-2.637,-2.6136,-2.6041,-2.6077,-2.6387,-2.6347,-2.6189,-2.6189,-2.6099,-2.597,-2.5936,-2.5917,-2.5917,-2.5915,-2.5844,-2.5735,-2.5694,-2.5675,-2.5694,-2.5735,-2.5772,-2.568,-2.5381,-2.5339,-2.5362,-2.54,-2.5288,-2.5098,-2.4823,-2.4704,-2.4507,-2.4178,-2.4137,-2.4027,-2.3631,-2.3581,-2.3523,-2.3392,-2.337,-2.3429,-2.3516,-2.3538,-2.3538,-2.3538,-2.3538,-2.3538,-2.3538,-2.3538,-2.356,-2.3595,-2.3595,-2.3595,-2.3595,-2.3595,-2.3595,-2.3595,-2.3595,-2.3595,0.0,0.0,0.0,0.0,0.0,0.0,0.0,0.0,0.0,0.0,0.0,0.0,0.0,0.0,0.0,0.0,0.0,0.0,0.0,0.0,0.0,0.0,0.0,0.0,0.0,0.0,0.0,-2.3505,-2.3505,-2.3505,-2.3505,-2.3505,-2.3505,-2.3505,-2.3383,-2.3336,-2.3336,-2.3211,-2.3163,-2.3163,-2.3015,-2.2922,-2.291,-2.2634,-2.2371,-2.2192,-2.2082,-2.194,-2.1858,-2.2639,-2.3308,-2.3848,-2.4045,-2.4564,-2.5212,-2.5007,-2.491,-2.4912,-2.516,-2.5171,-2.5134,-2.5395,-2.5476,-2.5439,-2.5402,-2.558,-2.576,-2.5413,-2.547,-2.5659,-2.5616,-2.5451,-2.5359,-2.5586,-2.5381,-2.5095,-2.5017,-2.4895,-2.4775,-2.4835,-2.4664,-2.4461,-2.4214,-2.4069,-2.3873,-2.361,-2.3595,-2.3551,-2.3341,-2.3297,-2.3297,-2.3297,-2.3297,-2.3341,-2.3487,-2.3466,-2.3444,-2.3509,-2.3466,-2.3422,-2.3422,-2.3466,-2.3494,-2.348,-2.3523,-2.3523,-2.348,-2.3551,-2.3595,-2.3595,-2.3595,-2.3595,0.0,-1.2848,0.0,0.0,0.0,0.0,-1.6024,-1.5199,0.0,0.0,0.0,0.0,0.0,0.0,0.0,0.0,0.0,0.0,0.0,0.0,0.0,0.0,0.0,0.0,0.0,-2.3505,-2.3505,-2.3505,-2.3505,-2.3505,-2.3505,-2.3505,-2.3505,-2.3505,-2.3241,-2.3107,-2.3107,-2.2833,-2.2703,-2.2703,-2.266,-2.2634,-2.2634,-2.2306,-2.2167,-2.2136,-2.1897,-2.1812,-2.1812,-2.1797,-2.2228,-2.2875,-2.2808,-2.3206,-2.3852,-2.3852,-2.3819,-2.3786,-2.3852,-2.3852,-2.3866,-2.4455,-2.4651,-2.465,-2.4596,-2.5033,-2.5438,-2.481,-2.5061,-2.5524,-2.5524,-2.5185,-2.4938,-2.5355,-2.4851,-2.4369,-2.4684,-2.4477,-2.4198,-2.4156,-2.3846,-2.3573,-2.353,-2.329,-2.3082,-2.3082,-2.3179,-2.3253,-2.3253,-2.3253,-2.3253,-2.3253,-2.3253,-2.3297,-2.3444,-2.3341,-2.3319,-2.3444,-2.3341,-2.3275,-2.3275,-2.34,-2.3422,-2.3297,-2.3422,-2.3422,-2.3297,-2.3501,-2.3588,-2.3588,-2.3588,-2.3588,-1.4965,-1.4976,-1.5226,0.0,0.0,0.0,0.0,-1.3095,0.0,0.0,0.0,0.0,0.0,0.0,0.0,0.0,0.0,0.0,0.0,0.0,0.0,0.0,0.0,0.0,0.0,-2.3505,-2.3505,-2.3505,-2.3505,-2.3505,-2.3505,-2.3505,-2.3505,-2.3505,-2.3241,-2.3107,-2.3107,-2.2833,-2.2703,-2.2703,-2.2429,-2.2289,-2.2275,-2.2013,-2.1884,-2.1884,-2.1825,-2.1812,-2.1797,-2.1738,-2.2153,-2.2764,-2.217,-2.2353,-2.2948,-2.2948,-2.2948,-2.303,-2.3621,-2.3735,-2.365,-2.3797,-2.3811,-2.3742,-2.3741,-2.4194,-2.4827,-2.526,-2.5224,-2.5036,-2.5036,-2.4735,-2.4446,-2.4528,-2.4426,-2.4219,-2.3915,-2.3788,-2.3631,-2.3253,-2.3392,-2.348,-2.3098,-2.2978,-2.2947,-2.2947,-2.2955,-2.2978,-2.2978,-2.2978,-2.2978,-2.2978,-2.2978,-2.3023,-2.3171,-2.3149,-2.3149,-2.3171,-2.3149,-2.3149,-2.3149,-2.3171,-2.3223,-2.3297,-2.3319,-2.3319,-2.3297,-2.3451,-2.3516,-2.3516,-2.3516,-2.3516,0.0,-1.6569,-1.6756,-1.6339,0.0,0.0,0.0,0.0,0.0,0.0,0.0,0.0,0.0,0.0,0.0,0.0,0.0,0.0,0.0,0.0,0.0,0.0,0.0,0.0,0.0,-2.291,-2.3071,-2.347,-2.3389,-2.336,-2.3494,-2.3247,-2.3163,-2.3301,-2.2884,-2.266,-2.266,-2.2392,-2.224,-2.224,-2.2084,-2.2013,-2.1998,-2.1855,-2.1783,-2.1753,-2.1753,-2.1723,-2.1709,-2.1664,-2.1832,-2.2064,-2.1766,-2.1848,-2.2145,-2.2145,-2.2114,-2.2099,-2.2459,-2.2541,-2.2508,-2.2865,-2.2979,-2.2945,-2.2945,-2.3275,-2.3706,-2.3944,-2.428,-2.4521,-2.4182,-2.4045,-2.4015,-2.424,-2.3946,-2.3603,-2.361,-2.3414,-2.3187,-2.2955,-2.309,-2.3187,-2.2933,-2.2888,-2.2888,-2.2888,-2.2888,-2.2888,-2.2888,-2.2888,-2.2888,-2.2888,-2.2888,-2.2947,-2.3082,-2.3037,-2.3037,-2.3105,-2.3037,-2.2992,-2.2992,-2.306,-2.3127,-2.3201,-2.3135,-2.2986,-2.2746,-2.2844,-2.2934,-2.3001,-2.3001,-2.2852,0.0,0.0,0.0,0.0,0.0,-1.6311,0.0,0.0,0.0,-1.6218,0.0,0.0,0.0,0.0,0.0,0.0,0.0,0.0,0.0,0.0,0.0,0.0,0.0,0.0,0.0,-2.1725,-2.2018,-2.297,-2.267,-2.2647,-2.3158,-2.2873,-2.2794,-2.3015,-2.2497,-2.2206,-2.2206,-2.1911,-2.1783,-2.1783,-2.1768,-2.1753,-2.1753,-2.1753,-2.1723,-2.1679,-2.1679,-2.1649,-2.1604,-2.1557,-2.1495,-2.1402,-2.1527,-2.1542,-2.1543,-2.1543,-2.1481,-2.1371,-2.1371,-2.1356,-2.1391,-2.1908,-2.2052,-2.2001,-2.2147,-2.2339,-2.2509,-2.2431,-2.3167,-2.384,-2.3314,-2.3296,-2.3566,-2.3946,-2.3451,-2.3,-2.337,-2.3157,-2.288,-2.288,-2.2857,-2.2843,-2.2888,-2.2888,-2.2888,-2.2888,-2.2888,-2.2888,-2.2888,-2.2888,-2.2888,-2.2888,-2.2888,-2.2947,-2.306,-2.297,-2.2947,-2.306,-2.297,-2.2888,-2.2888,-2.2925,-2.2925,-2.2925,-2.2729,-2.2402,-2.2053,-2.2095,-2.2198,-2.2314,-2.2314,-2.2091,0.0,0.0,0.0,0.0,-1.9696,0.0,0.0,0.0,-1.5378,-1.3459,0.0,0.0,0.0,0.0,0.0,0.0,0.0,0.0,0.0,0.0,0.0,0.0,0.0,0.0,0.0,0.0,-1.9796,-2.1268,-2.0513,-2.0605,-2.2013,-2.2476,-2.2717,-2.2743,-2.2402,-2.2206,-2.2206,-2.1884,-2.1724,-2.1724,-2.1649,-2.1619,-2.1619,-2.1619,-2.162,-2.162,-2.162,-2.1604,-2.1589,-2.1464,-2.1402,-2.1402,-2.1417,-2.1387,-2.1324,-2.1324,-2.1324,-2.1309,-2.1309,-2.1325,-2.1262,-2.1053,-2.0739,-2.0578,-2.1233,-2.1448,-2.1598,-2.2217,-2.2583,-2.2786,-2.2695,-2.2824,-2.3,-2.3045,-2.2978,-2.291,-2.2978,-2.2894,-2.2795,-2.2795,-2.2735,-2.2684,-2.2865,-2.2888,-2.2888,-2.2888,-2.2888,-2.2888,-2.2888,-2.2888,-2.2888,-2.2888,-2.2888,-2.2925,-2.2925,-2.2925,-2.2925,-2.2925,-2.2925,-2.2888,-2.2888,-2.2509,-2.2301,-2.2301,-2.1813,-2.1537,-2.1489,-2.1489,-2.1561,-2.1704,-2.1704,-2.168,0.0,0.0,0.0,0.0,0.0,0.0,0.0,0.0,-1.5485,0.0,0.0,0.0,0.0,0.0,0.0,0.0,0.0,0.0,0.0,0.0,0.0,0.0,0.0,0.0,0.0,0.0,0.0,0.0,0.0,-1.9417,-2.1119,-2.1422,-2.181,-2.2385,-2.2124,-2.1969,-2.1969,-2.1797,-2.1709,-2.1709,-2.1635,-2.1604,-2.1604,-2.1604,-2.1557,-2.148,-2.148,-2.1449,-2.1419,-2.1371,-2.134,-2.134,-2.134,-2.1324,-2.1293,-2.1293,-2.1293,-2.1262,-2.1071,-2.1006,-2.0958,-2.0563,-2.0344,-2.0218,-2.0332,-2.0625,-2.0839,-2.055,-2.103,-2.1624,-2.1657,-2.1916,-2.2261,-2.274,-2.2789,-2.2729,-2.2729,-2.2698,-2.2675,-2.2675,-2.2638,-2.2638,-2.2706,-2.2729,-2.2752,-2.2826,-2.2826,-2.2849,-2.2888,-2.2888,-2.2888,-2.2888,-2.2888,-2.2888,-2.2888,-2.2888,-2.2888,-2.2888,-2.2888,-2.2775,-2.2509,-2.2301,-2.2053,-2.1742,-2.1513,-2.1248,-2.0944,-2.0944,-2.0795,-2.0559,-2.0856,-2.0832,-2.1034,0.0,0.0,0.0,0.0,0.0,0.0,0.0,0.0,0.0,0.0,0.0,0.0,0.0,0.0,0.0,0.0,0.0,0.0,0.0,0.0,0.0,0.0,0.0,0.0,0.0,0.0,0.0,0.0,0.0,-1.9794,-2.0216,-2.0833,-2.1759,-2.1797,-2.1797,-2.1783,-2.1709,-2.1648,-2.1617,-2.1542,-2.1528,-2.1528,-2.1528,-2.1449,-2.1371,-2.1371,-2.134,-2.1293,-2.1293,-2.1293,-2.1293,-2.1293,-2.1293,-2.1293,-2.1293,-2.123,-2.1135,-2.0876,-2.0678,-2.0444,-2.0154,-1.9997,-1.9841,-1.9599,-1.9816,-2.0003,-1.9217,-1.9776,-2.0649,-2.0856,-2.1262,-2.1783,-2.2554,-2.2675,-2.2615,-2.2615,-2.2555,-2.2555,-2.2555,-2.2509,-2.2486,-2.2486,-2.2555,-2.2638,-2.2735,-2.2772,-2.2818,-2.2872,-2.2902,-2.2888,-2.2888,-2.2888,-2.2888,-2.2888,-2.2888,-2.2888,-2.2888,-2.2888,-2.2752,-2.2417,-2.2123,-2.1803,-2.1417,-2.1102,-2.0758,-2.0384,-2.0334,-2.0131,-1.9798,-2.0207,-2.0182,0.0,0.0,0.0,-1.9544,0.0,0.0,0.0,0.0,-1.7293,0.0,0.0,0.0,0.0,0.0,0.0,0.0,0.0,0.0,0.0,0.0,0.0,0.0,0.0,0.0,0.0,0.0,0.0,0.0,0.0,0.0,-1.7749,-1.8993,-1.9992,-2.0716,-2.1431,-2.1768,-2.1693,-2.165,-2.1542,-2.1402,-2.134,-2.1325,-2.1325,-2.1325,-2.1325,-2.1293,-2.1293,-2.1293,-2.1293,-2.1293,-2.1293,-2.1293,-2.1293,-2.1293,-2.1293,-2.1293,-2.1087,-2.0811,-2.0811,-2.0325,-1.9744,-1.9711,-1.9439,-1.912,-1.905,-1.9046,-1.9008,-1.8855,-1.9289,-1.9981,-2.0562,-2.1155,-2.1761,-2.2435,-2.2615,-2.2615,-2.2615,-2.2486,-2.2417,-2.2417,-2.2301,-2.2208,-2.2208,-2.2417,-2.2615,-2.2615,-2.2712,-2.2809,-2.2795,-2.2872,-2.2888,-2.2888,-2.2888,-2.2888,-2.2888,-2.2888,-2.2888,-2.2888,-2.2888,-2.2888,-2.2865,-2.1931,-2.1417,-2.1393,-2.0396,-1.985,-1.9824,-1.9708,-1.9682,-1.9798,-1.9824,-1.9837,0.0,0.0,-2.2844,-2.0322,0.0,0.0,0.0,0.0,0.0,0.0,0.0,0.0,0.0,0.0,0.0,0.0,0.0,0.0,0.0,0.0,0.0,0.0,0.0,0.0,0.0,0.0,0.0,0.0,0.0,0.0,0.0,-1.8651,-1.9929,-2.0685,-2.1431,-2.1768,-2.1709,-2.1619,-2.1527,-2.1402,-2.1324,-2.1293,-2.1293,-2.1293,-2.1293,-2.1294,-2.1071,-2.0974,-2.0958,-2.068,-2.073,-2.0942,-2.068,-2.073,-2.0974,-2.0974,-2.0893,-2.0728,-2.0239,-1.9708,-1.9242,-1.9242,-1.9082,-1.8912,-1.8874,-1.887,-1.8855,-1.8803,-1.8936,-1.9324,-2.0426,-2.0763,-2.108,-2.2198,-2.2394,-2.2347,-2.2347,-2.2301,-2.2278,-2.2278,-2.2231,-2.2208,-2.2208,-2.2278,-2.237,-2.244,-2.25,-2.256,-2.2652,-2.2684,-2.2706,-2.2706,-2.2706,-2.2743,-2.2841,-2.2826,-2.2826,-2.2826,-2.2826,-2.2523,-2.1789,-2.1537,-2.1077,-2.0371,-1.9901,-1.9656,-1.9656,-1.9539,-1.9486,-1.9539,-1.963,-1.9734,-2.3155,-2.3446,0.0,-2.102,-2.0427,0.0,-1.761,0.0,0.0,0.0,0.0,0.0,0.0,0.0,0.0,0.0,0.0,0.0,0.0,0.0,0.0,0.0,0.0,0.0,0.0,0.0,-1.2903,-1.3666,0.0,0.0,0.0,0.0,-1.9494,-2.0221,-2.1211,-2.1694,-2.1587,-2.1557,-2.1464,-2.1355,-2.1324,-2.1293,-2.1309,-2.1183,-2.1119,-2.1103,-2.0745,-2.0596,-2.0579,-2.0309,-2.0345,-2.0562,-2.0294,-2.0361,-2.0596,-2.0596,-2.0479,-2.0241,-1.9672,-1.9228,-1.8941,-1.8941,-1.8874,-1.8803,-1.8779,-1.876,-1.876,-1.8702,-1.8659,-1.8917,-2.0259,-2.0493,-2.0731,-2.2018,-2.2254,-2.2208,-2.2208,-2.2208,-2.2208,-2.2208,-2.2208,-2.2208,-2.2208,-2.2208,-2.2231,-2.2324,-2.237,-2.2417,-2.2509,-2.2555,-2.2615,-2.2615,-2.2615,-2.2569,-2.2445,-2.2445,-2.2445,-2.2445,-2.2282,-2.1949,-2.1431,-2.1126,-2.0658,-1.9952,-1.9656,-1.9539,-1.9539,-1.9394,-1.9342,-1.9394,-1.9447,-1.9539]},{"header":{"parameterUnit":"m.s-1","parameterCategory":1,"la1":30.6,"la2":29.2853,"lo1":-89.7004,"lo2":-87.6739,"dy":0.0162,"dx":0.0183,"nx":112,"ny":82,"refTime":"2024-07-24T06:00:00:Z","depth":0,"parameterNumber":3,"parameterNumberName":"V-component_of_WINDS"},"data":[0.0,0.0,0.0,0.0,0.0,0.0,0.0,0.0,0.0,0.0,0.0,0.0,0.0,0.0,0.0,0.0,0.0,0.0,0.0,0.0,0.0,0.0,0.0,0.0,0.0,0.0,0.0,0.0,0.0,0.0,0.0,0.0,0.0,0.0,0.0,0.0,0.0,0.0,0.0,0.0,0.0,0.0,0.0,0.0,0.0,0.0,0.0,0.0,0.0,0.0,0.0,0.0,0.0,0.0,0.0,0.0,0.0,0.0,0.0,0.0,0.0,0.0,0.0,0.0,0.0,0.0,0.0,0.0,0.0,0.0,0.0,0.0,0.0,0.0,0.0,0.0,0.0,0.0,0.0,0.0,0.0,0.0,0.0,0.0,0.0,0.0,0.0,0.0,0.0,0.0,0.0,-0.5262,-0.5959,-0.6395,-0.6395,-0.5704,-0.512,-0.4822,0.0,0.0,0.0,0.0,0.0,0.0,0.0,0.0,0.0,0.0,0.0,0.0,0.0,0.0,0.0,0.0,0.0,0.0,0.0,0.0,0.0,0.0,0.0,0.0,0.0,0.0,0.0,0.0,0.0,0.0,0.0,0.0,0.0,0.0,0.0,0.0,0.0,0.0,0.0,0.0,0.0,0.0,0.0,0.0,0.0,0.0,0.0,0.0,0.0,0.0,0.0,0.0,0.0,0.0,0.0,0.0,0.0,0.0,0.0,0.0,0.0,0.0,0.0,0.0,0.0,0.0,0.0,0.0,0.0,0.0,0.0,0.0,0.0,0.0,0.0,0.0,0.0,0.0,0.0,0.0,0.0,0.0,0.0,0.0,0.0,0.0,0.0,0.0,0.0,0.0,0.0,0.0,0.0,0.0,0.0,0.0,0.0,0.0,0.0,0.0,0.0,0.0,0.0,0.0,-0.4778,-0.5766,-0.6198,-0.6395,-0.6395,-0.5571,-0.4985,-0.4816,0.0,0.0,0.0,0.0,0.0,0.0,0.0,0.0,0.0,0.0,0.0,0.0,0.0,0.0,0.0,0.0,0.0,0.0,0.0,0.0,0.0,0.0,0.0,0.0,0.0,0.0,0.0,0.0,0.0,0.0,0.0,0.0,0.0,0.0,0.0,0.0,0.0,0.0,0.0,0.0,0.0,0.0,0.0,0.0,0.0,0.0,0.0,0.0,0.0,0.0,0.0,0.0,0.0,0.0,0.0,0.0,0.0,0.0,0.0,0.0,0.0,0.0,0.0,0.0,0.0,0.0,0.0,0.0,0.0,0.0,0.0,0.0,0.0,0.0,0.0,0.0,0.0,0.0,0.0,0.0,0.0,0.0,0.0,0.0,0.0,0.0,0.0,0.0,0.0,0.0,0.0,0.0,0.0,0.0,0.0,0.0,0.0,0.0,0.0,0.0,0.0,0.0,0.0,-0.4627,-0.5195,-0.6119,-0.6337,-0.6395,-0.6395,-0.5734,-0.5174,-0.4826,-0.4072,0.0,0.0,0.0,0.0,0.0,0.0,0.0,0.0,0.0,0.0,0.0,0.0,0.0,0.0,0.0,0.0,0.0,0.0,0.0,0.0,0.0,0.0,0.0,0.0,0.0,0.0,0.0,0.0,0.0,0.0,0.0,0.0,0.0,0.0,0.0,0.0,0.0,0.0,0.0,0.0,0.0,0.0,0.0,0.0,0.0,0.0,0.0,0.0,0.0,0.0,0.0,0.0,0.0,0.0,0.0,0.0,0.0,0.0,0.0,0.0,0.0,0.0,0.0,0.0,0.0,0.0,0.0,0.0,0.0,0.0,0.0,0.0,0.0,0.0,0.0,0.0,0.0,0.0,0.0,0.0,0.0,0.0,0.0,0.0,0.0,0.0,0.0,0.0,0.0,0.0,0.0,0.0,0.0,0.0,0.0,0.0,0.0,0.0,0.0,0.0,0.0,0.0,-0.5045,-0.5373,-0.6008,-0.6169,-0.6233,-0.6233,-0.5793,-0.5304,-0.4826,-0.3992,0.0,0.0,0.0,0.0,0.0,0.0,0.0,0.0,0.0,0.0,0.0,0.0,0.0,0.0,0.0,0.0,0.0,0.0,0.0,0.0,0.0,0.0,0.0,0.0,0.0,0.0,0.0,0.0,0.0,0.0,0.0,0.0,0.0,0.0,0.0,0.0,0.0,0.0,0.0,0.0,0.0,0.0,0.0,0.0,0.0,0.0,0.0,0.0,0.0,0.0,0.0,0.0,0.0,0.0,0.0,0.0,0.0,0.0,0.0,0.0,0.0,0.0,0.0,0.0,0.0,0.0,0.0,0.0,0.0,0.0,0.0,0.0,0.0,0.0,0.0,0.0,0.0,0.0,0.0,0.0,0.0,0.0,0.0,0.0,0.0,0.0,0.0,0.0,0.0,0.0,0.0,0.0,0.0,0.0,0.0,0.0,0.0,0.0,0.0,0.0,0.0,0.0,-0.4609,-0.4964,-0.5091,-0.5486,-0.5739,-0.5739,-0.5429,-0.511,-0.4808,-0.3809,0.0,0.0,0.0,0.0,0.0,0.0,0.0,0.0,0.0,0.0,0.0,0.0,0.0,0.0,0.0,0.0,0.0,0.0,0.0,0.0,0.0,0.0,0.0,0.0,0.0,0.0,0.0,0.0,0.0,0.0,0.0,0.0,0.0,0.0,0.0,0.0,0.0,0.0,0.0,0.0,0.0,0.0,0.0,0.0,0.0,0.0,0.0,0.0,0.0,0.0,0.0,0.0,0.0,0.0,0.0,0.0,0.0,0.0,0.0,0.0,0.0,0.0,0.0,0.0,0.0,0.0,0.0,0.0,0.0,0.0,0.0,0.0,0.0,0.0,0.0,0.0,0.0,0.0,0.0,0.0,0.0,0.0,0.0,0.0,0.0,0.0,0.0,0.0,0.0,0.0,0.0,0.0,0.0,0.0,0.0,0.0,0.0,0.0,0.0,0.0,0.0,0.0,-0.4348,-0.4647,0.0,-0.5156,-0.5316,-0.5448,-0.4959,-0.461,-0.4554,0.0,0.0,0.0,0.0,0.0,0.0,0.0,0.0,0.0,0.0,0.0,0.0,0.0,0.0,0.0,0.0,0.0,0.0,0.0,0.0,0.0,0.0,0.0,0.0,0.0,0.0,0.0,0.0,0.0,0.0,0.0,0.0,0.0,0.0,0.0,0.0,0.0,0.0,0.0,0.0,0.0,0.0,0.0,0.0,0.0,0.0,0.0,0.0,0.0,0.0,0.0,0.0,0.0,0.0,0.0,0.0,0.0,0.0,0.0,0.0,0.0,0.0,0.0,0.0,0.0,0.0,0.0,0.0,0.0,0.0,0.0,0.0,0.0,0.0,0.0,0.0,0.0,0.0,0.0,0.0,0.0,0.0,0.0,0.0,0.0,0.0,0.0,0.0,0.0,0.0,0.0,0.0,0.0,0.0,0.0,0.0,0.0,0.0,0.0,0.0,0.0,0.0,-0.3765,-0.4086,-0.4323,0.0,-0.4669,-0.4817,-0.4872,-0.4457,-0.4182,-0.4216,0.0,0.0,0.0,0.0,0.0,0.0,0.0,0.0,0.0,0.0,0.0,0.0,0.0,0.0,0.0,0.0,0.0,0.0,0.0,0.0,0.0,0.0,0.0,0.0,0.0,0.0,0.0,0.0,0.0,0.0,0.0,0.0,0.0,0.0,0.0,0.0,0.0,0.0,0.0,0.0,0.0,0.0,0.0,0.0,0.0,0.0,0.0,0.0,0.0,0.0,0.0,0.0,0.0,0.0,0.0,0.0,0.0,0.0,0.0,0.0,0.0,0.0,0.0,0.0,0.0,0.0,0.0,0.0,0.0,0.0,0.0,0.0,0.0,0.0,0.0,0.0,0.0,0.0,0.0,0.0,0.0,0.0,0.0,0.0,0.0,0.0,0.0,0.0,0.0,0.0,0.0,0.0,0.0,0.0,0.0,0.0,0.0,0.0,0.0,0.0,0.0,0.0,-0.3226,-0.3778,-0.3985,-0.3458,-0.3931,-0.4216,-0.4008,-0.393,-0.3868,0.0,0.0,0.0,0.0,0.0,0.0,0.0,0.0,0.0,0.0,0.0,0.0,0.0,0.0,0.0,0.0,0.0,0.0,0.0,0.0,0.0,0.0,0.0,0.0,0.0,0.0,0.0,0.0,0.0,0.0,0.0,0.0,0.0,0.0,0.0,0.0,0.0,0.0,0.0,0.0,0.0,0.0,0.0,0.0,0.0,0.0,0.0,0.0,0.0,0.0,0.0,0.0,0.0,0.0,0.0,0.0,0.0,0.0,0.0,0.0,0.0,0.0,0.0,0.0,0.0,0.0,0.0,0.0,0.0,0.0,0.0,0.0,0.0,0.0,0.0,0.0,0.0,0.0,0.0,0.0,0.0,0.0,0.0,0.0,0.0,0.0,0.0,0.0,0.0,0.0,0.0,0.0,0.0,0.0,0.0,0.0,0.0,0.0,0.0,0.0,0.0,0.0,0.0,0.0,-0.3394,-0.3539,-0.3289,-0.3514,-0.3682,-0.3711,-0.3402,-0.3302,-0.3566,0.0,0.0,0.0,0.0,0.0,0.0,0.0,0.0,0.0,0.0,0.0,0.0,0.0,0.0,0.0,0.0,0.0,0.0,0.0,0.0,0.0,0.0,0.0,0.0,0.0,0.0,0.0,0.0,0.0,0.0,0.0,0.0,0.0,0.0,0.0,0.0,0.0,0.0,0.0,0.0,0.0,0.0,0.0,0.0,0.0,0.0,0.0,0.0,0.0,0.0,0.0,0.0,0.0,0.0,0.0,0.0,0.0,0.0,0.0,0.0,0.0,0.0,0.0,0.0,0.0,0.0,0.0,0.0,0.0,0.0,0.0,0.0,0.0,0.0,0.0,0.0,0.0,0.0,0.0,0.0,0.0,0.0,0.0,0.0,0.0,0.0,0.0,0.0,0.0,0.0,0.0,0.0,0.0,0.0,0.0,0.0,0.0,0.0,0.0,0.0,0.0,0.0,-0.2955,-0.3218,-0.3303,-0.3127,-0.3182,-0.3246,-0.3273,-0.2969,-0.2861,-0.305,0.0,0.0,0.0,0.0,0.0,0.0,0.0,0.0,0.0,0.0,0.0,0.0,0.0,0.0,0.0,0.0,0.0,0.0,0.0,0.0,0.0,0.0,0.0,0.0,0.0,0.0,0.0,0.0,0.0,0.0,0.0,0.0,0.0,0.0,0.0,0.0,0.0,0.0,0.0,0.0,0.0,0.0,0.0,0.0,0.0,0.0,0.0,0.0,0.0,0.0,0.0,0.0,0.0,0.0,0.0,0.0,0.0,0.0,0.0,0.0,0.0,0.0,0.0,0.0,0.0,0.0,0.0,0.0,0.0,0.0,0.0,0.0,0.0,0.0,0.0,0.0,0.0,0.0,0.0,0.0,0.0,0.0,0.0,0.0,0.0,0.0,0.0,0.0,0.0,0.0,0.0,0.0,0.0,0.0,0.0,0.0,0.0,0.0,0.0,0.0,0.0,0.0,-0.294,-0.3127,-0.3185,-0.301,-0.2995,-0.2937,-0.281,-0.2673,-0.2545,-0.2416,0.0,0.0,0.0,0.0,0.0,0.0,0.0,0.0,0.0,0.0,0.0,0.0,0.0,0.0,0.0,0.0,0.0,0.0,0.0,0.0,0.0,0.0,0.0,0.0,0.0,0.0,0.0,0.0,0.0,0.0,0.0,0.0,0.0,0.0,0.0,0.0,0.0,0.0,0.0,0.0,0.0,0.0,0.0,0.0,0.0,0.0,0.0,0.0,0.0,0.0,0.0,0.0,0.0,0.0,0.0,0.0,0.0,0.0,0.0,0.0,0.0171,0.0,0.0,0.0,0.0,0.0,0.0,0.0,0.0,0.0,0.0,0.0,0.0,0.0,0.0,0.0,0.0,0.0,0.0,0.0,0.0,0.0,0.0,0.0,0.0,0.0,0.0,0.0,0.0,0.0,0.0,0.0,0.0,0.0,0.0,0.0,0.0,0.0,0.0,0.0,0.0,0.0,-0.2805,-0.2828,-0.2849,-0.2906,-0.2959,-0.2946,-0.281,-0.2673,-0.257,-0.2485,0.0,0.0,0.0,0.0,0.0,0.0,0.0,0.0,0.0,0.0,0.0,0.0,0.0,0.0,0.0,0.0,0.0,0.0,0.0,0.0,0.0,0.0,0.0,0.0,0.0,0.0,0.0,0.0,0.0,0.0,0.0,0.0,0.0,0.0,0.0,0.0,0.0,0.0,0.0,0.0,0.0,0.0,0.0,0.0,0.0,0.0,0.0,0.0,0.0,0.0,0.0,0.0,0.0,0.0,0.0,0.0,0.0,0.0,0.0,0.0,0.0,0.0352,0.0,0.0,0.0,0.0,0.0,0.0,0.0,0.0,0.0,0.0,0.0,0.0,0.0,0.0,0.0,0.0,0.0,0.0,0.0,0.0,0.0,0.0,0.0,0.0,0.0,0.0,0.0,0.0,0.0,0.0,0.0,0.0,0.0,0.0,0.0,0.0,0.0,0.0,0.0,0.0,-0.2847,-0.2725,-0.2671,-0.2885,-0.2814,-0.2734,-0.2667,-0.247,-0.2329,-0.227,-0.1817,0.0,0.0,0.0,0.0,0.0,0.0,0.0,0.0,0.0,0.0,0.0,0.0,0.0,0.0,0.0,0.0,0.0,0.0,0.0,0.0,0.0,0.0,0.0,0.0,0.0,0.0,0.0,0.0,0.0,0.0,0.0,0.0,0.0,0.0,0.0,0.0,0.0,0.0,0.0,0.0,0.0,0.0,0.0,0.0,0.0,0.0,0.0,0.0,0.0,0.0,0.0,0.0,0.0,0.0264,0.0202,-0.016,0.0462,0.0579,0.0344,0.0558,0.0615,0.052,0.0,0.0,0.0,0.0,0.0,0.0,0.0,0.0,0.0,0.0,0.0,0.0,0.0,0.0,0.0,0.0,0.0,0.0,0.0,0.0,0.0,0.0,0.0,0.0,0.0,-0.1467,-0.1575,0.0,0.0,0.0,0.0,0.0,0.0,0.0,0.0,0.0,0.0,0.0,0.0,-0.2925,-0.2716,-0.262,-0.2865,-0.2687,-0.2525,-0.2503,-0.2269,-0.2095,-0.2022,-0.1654,-0.1345,0.0,0.0,0.0,0.0,0.0,0.0,0.0,0.0,0.0,0.0,0.0,0.0,0.0,0.0,0.0,0.0,0.0,0.0,0.0,0.0,0.0,0.0,0.0,0.0,0.0,0.0,0.0,0.0,0.0,0.0,0.0,0.0,0.0616,0.058,0.0,0.0,0.0,0.0,0.0,0.0,0.0,0.0,0.0,0.0,0.0,0.0,0.0,-0.0083,0.0153,0.0212,0.0386,0.068,0.0778,0.0764,0.0646,0.0796,0.086,0.0808,0.0848,0.0,0.0661,0.0607,0.0,0.0,0.0,0.0,0.0,0.0,0.0,0.0,0.0,0.0,0.0,0.0,0.0,0.0,0.0,0.0,0.0,0.0,0.0,0.0,0.0,0.0,0.0193,-0.0093,-0.0787,-0.1428,0.0,-0.2377,-0.312,-0.2951,-0.2842,0.0,0.0,0.0,0.0,0.0,0.0,0.0,-0.2835,-0.2745,-0.2737,-0.2874,-0.2764,-0.2618,-0.2509,-0.2365,-0.2221,-0.2101,-0.1505,-0.1247,-0.1436,-0.0693,0.0,0.0,0.0,0.0,0.0,0.0,0.0,0.0,0.0,0.0,0.0,0.0,0.0,0.0,0.0,0.0,0.0,0.0,0.0,0.0,0.0,0.0,0.0,0.0,0.0,0.0,0.0,0.0,0.0,0.0559,0.066,0.0559,0.0609,0.0608,0.0,0.0,0.0,0.0,0.0,0.0,0.0,0.0,0.0,0.0483,0.0412,0.0428,0.0594,0.0627,0.0718,0.0865,0.0878,0.0883,0.0858,0.0899,0.0905,0.0905,0.0905,0.0855,0.0816,0.0744,0.0676,0.0612,0.0,0.0,0.0,0.0,0.0491,0.0563,0.0903,0.0849,0.0,0.0886,0.0,0.0,0.0,0.0,0.0,0.0,0.0,0.0,0.0,0.0,0.0,-0.0178,-0.0887,-0.1614,-0.1944,-0.2692,-0.3228,0.0,-0.2922,-0.2909,-0.2895,0.0,0.0,0.0,0.0,0.0,-0.2856,-0.2757,-0.2753,-0.2876,-0.278,-0.2657,-0.2512,-0.2379,-0.2154,-0.1835,-0.1362,-0.1052,-0.0939,-0.054,-0.0398,0.0,0.0,0.0,0.0,0.0,0.0,0.0,0.0,0.0,0.0,0.0,0.0,0.0,0.0,0.0,0.0,0.0,0.0,0.0,0.0,0.0,0.0,0.0,0.0,0.0,0.0,0.0,0.0,0.0624,0.0709,0.0564,0.0678,0.069,0.0,0.0,0.0,0.0,0.0,0.0,0.0744,0.0822,0.087,0.0883,0.0866,0.0894,0.0891,0.0886,0.0898,0.0898,0.0898,0.0898,0.0898,0.0898,0.0898,0.0898,0.0898,0.0898,0.0893,0.084,0.0793,0.075,0.0697,0.0629,0.0595,0.0657,0.0659,0.0717,0.1176,0.1091,0.0845,0.1158,0.0,0.0642,0.058,0.0,0.0,0.0,0.0,-0.0091,0.0169,0.0126,-0.0026,-0.0268,-0.0852,-0.1501,-0.1979,-0.2692,-0.3167,0.0,-0.2989,-0.3009,-0.3008,0.0,0.0,0.0,0.0,-0.2886,-0.2848,-0.2797,-0.2789,-0.2879,-0.278,-0.2668,-0.2558,-0.2398,-0.2113,-0.1682,-0.1304,-0.0924,-0.0521,-0.0372,-0.0286,-0.0251,0.0,0.0,0.0,0.0,0.0,0.0,0.0,0.0,0.0,0.0,0.0,0.0,0.0,0.0,0.0,0.0,0.0,0.0,0.0,0.0,0.0,0.0,0.0,0.0,0.0,0.0,0.0,0.0,0.0,0.0705,0.08,0.0,0.0,0.0,0.0,0.0873,0.1061,0.1175,0.1177,0.1226,0.1223,0.1085,0.1096,0.1033,0.0895,0.0897,0.0898,0.0898,0.0898,0.0898,0.0898,0.0898,0.0898,0.0898,0.0898,0.0898,0.0895,0.089,0.0901,0.0869,0.0685,0.0674,0.0773,0.0651,0.0676,0.0801,0.083,0.0831,0.0809,0.0889,0.0852,0.0777,0.0699,0.073,0.0,0.0,0.055,0.0553,0.0582,0.0462,0.0335,0.0196,-0.0308,-0.0784,-0.0952,-0.1898,-0.2834,0.0,-0.3075,-0.3114,-0.3493,0.0,-0.3187,-0.3181,-0.317,-0.3059,-0.2758,-0.2824,-0.2882,-0.289,-0.278,-0.2704,-0.2698,-0.2446,-0.2146,-0.1812,-0.1349,-0.0924,-0.0519,-0.019,-0.0134,-0.0388,-0.0279,0.0,0.0,0.0,0.0,0.0,0.0,0.0,0.0,0.0,0.0,0.0,0.0,0.0,0.0,0.0,0.0,0.0,0.0,0.0,0.0,0.0,0.0,0.0,0.0,0.0,0.0,0.0,0.0,0.1041,0.1139,0.0,0.0,0.1059,0.1096,0.1096,0.1189,0.1264,0.1255,0.13,0.1279,0.1239,0.1281,0.1217,0.1101,0.1123,0.1064,0.0898,0.0898,0.0887,0.0898,0.0898,0.0898,0.0898,0.0898,0.0898,0.0897,0.0913,0.0909,0.0881,0.0815,0.0811,0.0865,0.0811,0.0811,0.0865,0.0865,0.0865,0.0867,0.0905,0.0874,0.0865,0.0838,0.0858,0.085,0.0797,0.0784,0.0799,0.0799,0.0695,0.0589,0.0533,0.0,-0.0561,-0.0729,-0.1427,-0.2164,-0.2761,-0.3091,-0.3252,-0.3212,-0.3198,-0.3164,-0.3089,-0.3075,-0.3033,-0.2919,-0.2889,-0.289,-0.289,-0.2849,-0.2791,-0.2712,-0.2339,-0.1921,-0.151,-0.1004,-0.0545,-0.0191,-0.0062,-0.0044,-0.0145,-0.01,-0.0125,0.0,0.0,0.0,0.0,0.0,0.0,0.0,0.0,0.0,0.0,0.0,0.0,0.0,0.0,0.0,0.0,0.0,0.0,0.0,0.0,0.0,0.0,0.0,0.0,0.0,0.0,0.1241,0.1208,0.1287,0.1336,0.1244,0.1468,0.1637,0.1637,0.1919,0.1955,0.1708,0.1707,0.1565,0.1276,0.1303,0.1258,0.1138,0.1161,0.11,0.0928,0.0928,0.0947,0.0928,0.0917,0.0918,0.0927,0.0907,0.0903,0.0912,0.0902,0.0898,0.0898,0.0898,0.0898,0.0898,0.0898,0.0898,0.0898,0.0898,0.0898,0.0898,0.0898,0.0898,0.0898,0.0898,0.0898,0.0898,0.0898,0.0898,0.0898,0.0898,0.0842,0.0757,0.0701,0.0336,-0.0084,-0.028,-0.0784,-0.1343,-0.1817,-0.2606,-0.317,-0.3206,-0.3231,-0.3228,-0.3153,-0.3107,-0.3045,-0.3005,-0.2956,-0.2937,-0.2895,-0.289,-0.2791,-0.2513,-0.2192,-0.174,-0.114,-0.0717,-0.0347,-0.0016,0.0,0.0,0.0,0.0,0.0,0.0,0.0,0.0,0.0,0.0,0.0,0.0,0.0,0.0,0.0,0.0,0.0,0.0,0.0,0.0,0.0,0.0,0.0,0.0,0.0,0.0,0.0,0.0,0.0,0.1332,0.1227,0.1266,0.1268,0.1344,0.1367,0.1379,0.2073,0.2545,0.2519,0.317,0.3258,0.2525,0.2479,0.2093,0.1235,0.1205,0.1144,0.1021,0.1021,0.099,0.099,0.099,0.0989,0.0987,0.0928,0.093,0.0985,0.0926,0.0887,0.0911,0.0911,0.0898,0.0898,0.0898,0.0898,0.0898,0.0898,0.0926,0.0926,0.0898,0.0926,0.0926,0.0898,0.0898,0.0898,0.0898,0.0898,0.0898,0.0898,0.0898,0.0898,0.0898,0.0898,0.087,0.0729,0.0701,0.0645,0.0449,0.0,-0.0364,-0.0393,-0.1593,-0.2822,-0.3471,-0.3458,-0.3379,-0.3406,-0.3303,0.0,-0.3021,-0.2981,-0.2957,-0.2904,-0.289,-0.2662,-0.2144,-0.2028,-0.161,-0.0746,-0.0573,-0.0337,-0.0017,0.0,0.0,0.0,0.0,0.0,0.0,0.0,0.0,0.0,0.0,0.0,0.0,0.0,0.0,0.0,0.0,0.0,0.0,0.0,0.0,0.0,0.0,0.0,0.0,0.0,0.0,0.0,0.0,0.3104,0.2677,0.2752,0.2883,0.2934,0.2964,0.2996,0.3098,0.3323,0.3273,0.2902,0.3052,0.2855,0.2188,0.2145,0.1971,0.1573,0.1606,0.1498,0.1212,0.1204,0.1139,0.0989,0.0989,0.1009,0.0988,0.098,0.098,0.0987,0.0971,0.0956,0.0913,0.0905,0.0889,0.0898,0.0898,0.0898,0.0898,0.0898,0.1177,0.1483,0.1065,0.1177,0.1484,0.1037,0.0898,0.0898,0.0898,0.0898,0.0898,0.0898,0.0898,0.0898,0.0898,0.0898,0.0898,0.0842,0.0842,0.0813,0.0645,0.0505,0.0252,-0.0308,-0.0756,-0.1398,-0.2597,-0.2856,-0.3032,-0.3476,-0.343,0.0,-0.3161,-0.2757,-0.26,-0.2879,-0.2551,-0.2257,-0.2121,-0.1764,-0.1321,-0.0728,-0.0352,-0.0103,0.0,0.0,0.0,0.0,0.0,0.0,0.0,0.0,0.0,0.0,0.0,0.0,0.0,0.0,0.0,0.0,0.0,0.0,0.0,0.0,0.0,0.0,0.0,0.0,0.0,0.0,0.0,0.0,0.3608,0.4097,0.4077,0.3772,0.3544,0.3589,0.3643,0.3618,0.3397,0.3653,0.3588,0.3011,0.3206,0.304,0.2321,0.2286,0.211,0.1663,0.1691,0.1575,0.1315,0.1368,0.1302,0.1051,0.1084,0.1107,0.1056,0.1013,0.1014,0.0,0.0999,0.0986,0.0949,0.0937,0.0952,0.0,0.0,0.0,0.0,0.0,0.1121,0.1372,0.1009,0.1121,0.1372,0.1009,0.0898,0.0898,0.0898,0.0898,0.0898,0.0898,0.0898,0.0898,0.0898,0.0898,0.0898,0.0898,0.0898,0.087,0.0813,0.0785,0.0645,0.0224,0.0112,0.0,-0.134,-0.2066,-0.2683,-0.3299,-0.3192,-0.2977,-0.2845,-0.2291,-0.2014,-0.2238,-0.1967,-0.1698,-0.1518,-0.1269,0.0,0.0,0.0,0.0,0.0,0.0,0.0,0.0,0.0,0.0,0.0,0.0,0.0,0.0,-0.0275,-0.0376,0.0,0.0,0.0,0.0,0.0,0.0,0.0,0.0,0.0,0.0,0.0,0.0,0.0,0.0,0.0,0.0,0.4634,0.5041,0.5109,0.4262,0.3646,0.3702,0.3803,0.3616,0.2991,0.3527,0.365,0.2983,0.3437,0.3423,0.2682,0.0,0.0,0.0,0.0,0.1547,0.1344,0.1513,0.1446,0.1143,0.1277,0.1277,0.1142,0.1082,0.1085,0.114,0.1085,0.1075,0.1064,0.1035,0.1022,0.0983,0.0929,0.0933,0.0931,0.0902,0.0957,0.1009,0.0926,0.0,0.0,0.0926,0.0898,0.0898,0.0898,0.0898,0.0898,0.0898,0.0898,0.0898,0.0898,0.0898,0.0898,0.0898,0.0898,0.0898,0.0898,0.0898,0.0898,0.0898,0.0813,0.0532,-0.0084,-0.1202,-0.2211,-0.2794,-0.2601,-0.2323,-0.219,-0.1653,-0.1297,-0.1347,0.0,0.0,-0.0676,-0.0672,-0.0464,0.0021,0.004,0.0019,0.0017,0.0,0.0,0.0,0.0,0.0,0.0,0.0,0.0,0.0,-0.0251,-0.0229,0.0,0.0,0.0,0.0,0.0,0.0,0.0,0.0,0.0,0.0,0.0,0.0,0.0,0.0,0.0,0.3662,0.4191,0.447,0.4075,0.3831,0.3831,0.4266,0.4349,0.4213,0.3797,0.3898,0.3759,0.3193,0.3247,0.3027,0.2335,0.2281,0.0,0.185,0.185,0.1748,0.1547,0.158,0.158,0.1513,0.0,0.0,0.1512,0.1506,0.1506,0.1512,0.1496,0.1474,0.1482,0.1313,0.1135,0.0987,0.0975,0.1045,0.111,0.0963,0.1262,0.1708,0.1093,0.1232,0.154,0.1065,0.0898,0.0898,0.0898,0.0898,0.0,0.0898,0.0898,0.0898,0.0898,0.0898,0.0898,0.0898,0.0898,0.0898,0.0898,0.0898,0.0898,0.0898,0.087,0.0673,0.0056,-0.042,-0.0952,-0.1566,-0.1593,-0.1491,-0.1413,-0.0924,-0.0726,-0.1048,-0.0721,-0.047,-0.0376,-0.043,-0.024,0.0295,0.0222,0.0156,0.0153,0.0057,0.0,0.0,0.0,0.0,0.0,0.0,0.0,0.0,-0.0059,-0.0059,0.0,0.0,0.0,0.0,0.0,0.0,0.0,0.0,0.0,0.0,0.0,0.3196,0.0,0.0,0.4249,0.3736,0.4518,0.486,0.3892,0.4047,0.4225,0.4171,0.4194,0.4067,0.3555,0.3575,0.3366,0.275,0.2686,0.2568,0.2232,0.2199,0.2165,0.2062,0.2062,0.1945,0.1749,0.185,0.1783,0.1614,0.1715,0.1681,0.1614,0.1614,0.1614,0.1614,0.1614,0.1601,0.158,0.1482,0.1404,0.129,0.129,0.1224,0.1084,0.0948,0.1195,0.1519,0.1072,0.1177,0.1485,0.1037,0.0954,0.0982,0.0926,0.0898,0.0898,0.0898,0.0898,0.0898,0.0898,0.0898,0.0898,0.0898,0.0898,0.0898,0.0898,0.0898,0.0898,0.0898,0.0898,0.0813,0.0505,0.0336,-0.0056,-0.095,-0.0895,-0.0751,-0.0711,-0.0242,0.0,-0.0259,-0.0025,0.0122,0.0049,0.0024,0.0114,0.0393,0.0341,0.0292,0.0306,0.0244,0.0163,0.0102,0.0102,0.0062,0.0,0.0,0.0,0.0,0.0,0.0,0.0,0.0,0.0,0.0,0.0,0.0,0.0,0.0,0.2604,0.3252,0.3372,0.3444,0.3696,0.4132,0.434,0.4082,0.4756,0.4918,0.3812,0.4025,0.4123,0.3719,0.3746,0.354,0.2919,0.2948,0.2785,0.2255,0.2188,0.2214,0.2206,0.2209,0.2214,0.2226,0.2226,0.2134,0.1983,0.2109,0.2035,0.1729,0.1889,0.1884,0.1715,0.1715,0.1715,0.1715,0.1715,0.1681,0.1648,0.1648,0.1648,0.1614,0.1748,0.1537,0.1094,0.1025,0.1067,0.1174,0.0965,0.1066,0.1234,0.0982,0.0982,0.1066,0.0954,0.0898,0.0898,0.0898,0.0898,0.0898,0.0898,0.0898,0.0898,0.0898,0.0898,0.0898,0.0898,0.0898,0.0898,0.0898,0.0898,0.0898,0.0898,0.0898,0.056,-0.0391,-0.0224,0.0,0.0,0.0383,0.0618,0.0511,0.0599,0.0609,0.0479,0.0488,0.0471,0.0479,0.0452,0.0421,0.0427,0.0405,0.0341,0.0235,0.0213,0.0152,0.0045,0.0022,0.0,0.0,0.0,0.0,0.1525,0.2019,0.2932,0.3606,0.3659,0.3788,0.0,0.0,0.3466,0.4202,0.3965,0.3857,0.4525,0.4243,0.4112,0.4749,0.3958,0.3228,0.3189,0.2723,0.2618,0.321,0.316,0.2893,0.2338,0.2316,0.2287,0.2221,0.2188,0.2214,0.2206,0.2209,0.2233,0.2287,0.2288,0.2285,0.2243,0.2226,0.2165,0.2129,0.2146,0.2154,0.212,0.212,0.212,0.212,0.212,0.2018,0.185,0.185,0.1749,0.1681,0.2318,0.2142,0.1523,0.1318,0.1238,0.1174,0.0965,0.101,0.1094,0.0954,0.0982,0.1066,0.0954,0.0898,0.0898,0.0898,0.0898,0.0898,0.0898,0.0898,0.0898,0.0898,0.0898,0.0898,0.0898,0.0898,0.0898,0.0898,0.0898,0.0898,0.0898,0.0898,0.0842,0.0729,0.0757,0.0785,0.0785,0.0838,0.0864,0.0837,0.0865,0.0836,0.0759,0.0756,0.0763,0.076,0.0597,0.0494,0.0491,0.0424,0.0401,0.0379,0.0268,0.0201,0.018,0.0067,0.0,0.0,0.0,0.0,0.2751,0.3065,0.0,0.0,0.4137,0.3887,0.4559,0.3881,0.3301,0.3943,0.3889,0.3698,0.3694,0.3778,0.374,0.0,0.3898,0.4086,0.3257,0.3652,0.3939,0.3691,0.3348,0.3014,0.2817,0.242,0.2188,0.2188,0.2187,0.2233,0.2259,0.2292,0.2322,0.2347,0.2347,0.2331,0.2299,0.2275,0.2244,0.2209,0.2183,0.2188,0.2188,0.2188,0.2188,0.2188,0.2188,0.2154,0.2087,0.2087,0.2018,0.2018,0.2718,0.2485,0.1774,0.1894,0.1695,0.1331,0.105,0.1085,0.1242,0.0982,0.0997,0.1094,0.1038,0.101,0.101,0.101,0.101,0.101,0.0926,0.0898,0.0898,0.0898,0.0898,0.0898,0.0898,0.0898,0.0898,0.0898,0.0898,0.0898,0.0898,0.0898,0.0898,0.0898,0.0898,0.0898,0.0898,0.0898,0.0898,0.0898,0.0914,0.0893,0.0862,0.0848,0.0834,0.079,0.0729,0.0667,0.0676,0.0653,0.0606,0.0513,0.0466,0.0353,0.0192,0.0144,0.0121,0.0123,0.0025,0.0051,0.323,0.0,0.0,0.4442,0.4157,0.3796,0.4083,0.351,0.3015,0.3475,0.3382,0.3173,0.2972,0.3169,0.0,0.2753,0.3853,0.4476,0.3613,0.4414,0.4844,0.4162,0.357,0.3215,0.3215,0.2586,0.2188,0.2188,0.221,0.2236,0.2296,0.2351,0.2389,0.2444,0.2444,0.2387,0.2347,0.233,0.23,0.2256,0.2225,0.2187,0.2213,0.2196,0.2188,0.2188,0.2188,0.2188,0.2188,0.2188,0.2188,0.2255,0.295,0.2817,0.2312,0.2687,0.2395,0.1793,0.1696,0.1799,0.1909,0.1572,0.1543,0.1652,0.1596,0.1624,0.1651,0.1651,0.1651,0.1596,0.1317,0.1261,0.1205,0.1038,0.101,0.101,0.0954,0.0954,0.0954,0.0898,0.0898,0.0898,0.0898,0.0898,0.0898,0.0898,0.0898,0.0898,0.0898,0.0898,0.0898,0.0898,0.0898,0.0888,0.0893,0.091,0.0869,0.0821,0.0811,0.0798,0.0801,0.0801,0.0752,0.0655,0.0776,0.0663,0.0302,0.0403,0.0355,0.0205,0.0105,0.008,0.0,0.0,0.2779,0.3312,0.3571,0.3722,0.3804,0.3345,0.2891,0.2921,0.2461,0.2245,0.2893,0.2494,0.2518,0.3895,0.3601,0.3415,0.4171,0.432,0.432,0.4281,0.3649,0.3215,0.0,0.2586,0.2188,0.2188,0.221,0.2236,0.2296,0.2351,0.2447,0.2506,0.2507,0.2507,0.2504,0.2447,0.2378,0.2375,0.2263,0.2209,0.2205,0.2215,0.2188,0.2188,0.2188,0.2188,0.2188,0.2188,0.2188,0.2255,0.295,0.3182,0.3215,0.3744,0.3355,0.2647,0.315,0.3341,0.3292,0.2941,0.2938,0.3019,0.2877,0.2929,0.3035,0.3035,0.3035,0.2899,0.2322,0.2155,0.2017,0.143,0.129,0.1262,0.1122,0.1094,0.1066,0.0926,0.0898,0.0898,0.0898,0.0898,0.0898,0.0898,0.0898,0.0898,0.0898,0.0898,0.0898,0.0898,0.0898,0.0897,0.0896,0.0896,0.0905,0.0904,0.0849,0.0806,0.0805,0.0805,0.0805,0.0805,0.123,0.1181,0.058,0.0908,0.077,0.0213,0.0186,0.0136,0.0,0.0,0.2841,0.3497,0.3446,0.3255,0.3256,0.2791,0.238,0.238,0.2151,0.2001,0.2239,0.209,0.2111,0.2642,0.2953,0.3378,0.4171,0.4323,0.465,0.5453,0.4643,0.0,0.0,0.0,0.0,0.2188,0.2248,0.2277,0.2297,0.2389,0.2489,0.251,0.2511,0.2511,0.2511,0.2491,0.2459,0.2381,0.2305,0.2248,0.2209,0.2189,0.2192,0.2188,0.2188,0.2188,0.2188,0.2188,0.2188,0.2321,0.3487,0.3618,0.3382,0.5014,0.5117,0.4371,0.3806,0.3605,0.356,0.3306,0.3258,0.3273,0.32,0.3206,0.3231,0.3231,0.3231,0.3176,0.2873,0.279,0.2734,0.2539,0.2484,0.2456,0.232,0.2293,0.2265,0.2125,0.1762,0.1483,0.1483,0.1177,0.0898,0.0898,0.0898,0.0898,0.0898,0.0898,0.0898,0.0898,0.126,0.1483,0.1483,0.1854,0.2088,0.2088,0.2065,0.203,0.2007,0.2006,0.2006,0.2006,0.2161,0.1923,0.127,0.1781,0.1711,0.1128,0.1401,0.1354,0.0,0.2438,0.2542,0.3048,0.292,0.2674,0.2674,0.2384,0.2082,0.2038,0.195,0.1852,0.1852,0.1834,0.1853,0.1986,0.2622,0.3294,0.3857,0.4213,0.4717,0.5519,0.4949,0.0,0.0,0.0,0.0,0.2628,0.2727,0.266,0.2365,0.2458,0.2511,0.2511,0.2511,0.2511,0.2511,0.2511,0.248,0.2381,0.2346,0.2297,0.224,0.222,0.2189,0.2185,0.2197,0.2188,0.2188,0.2188,0.2188,0.2288,0.3188,0.3553,0.3749,0.515,0.5683,0.5639,0.4855,0.4552,0.4454,0.419,0.4109,0.4102,0.3968,0.3984,0.4012,0.4012,0.4012,0.3956,0.3677,0.3591,0.3539,0.3342,0.3287,0.3231,0.307,0.3042,0.3014,0.2873,0.2486,0.2179,0.2179,0.1818,0.1568,0.1596,0.1624,0.1512,0.126,0.14,0.154,0.154,0.1902,0.2124,0.2124,0.2486,0.2708,0.2708,0.2708,0.2682,0.2649,0.2647,0.2647,0.2647,0.2835,0.2649,0.1984,0.2539,0.2484,0.1927,0.2176,0.212,0.1808,0.185,0.1948,0.207,0.21,0.2099,0.2096,0.2094,0.2055,0.1932,0.1832,0.1792,0.0,0.0,0.1763,0.1969,0.2584,0.3113,0.3293,0.3966,0.4501,0.0,0.0,0.0,0.0,0.0,0.0,0.3511,0.0,0.3325,0.2457,0.2477,0.2511,0.2511,0.2511,0.2511,0.2511,0.2511,0.2481,0.2386,0.2386,0.2356,0.2301,0.2241,0.2212,0.2206,0.2214,0.2188,0.2188,0.2188,0.2188,0.2188,0.2255,0.3054,0.4253,0.432,0.5219,0.6326,0.6249,0.6101,0.5856,0.5555,0.5445,0.541,0.5194,0.5227,0.5309,0.5301,0.5297,0.5187,0.4684,0.4546,0.4405,0.3821,0.3683,0.3624,0.3428,0.34,0.3342,0.3229,0.3067,0.2933,0.2905,0.2792,0.2764,0.2903,0.2933,0.2681,0.1958,0.2374,0.2708,0.2708,0.2736,0.2764,0.2736,0.2764,0.2792,0.2792,0.2792,0.2792,0.2792,0.2792,0.2792,0.2792,0.3347,0.3347,0.2736,0.3151,0.3095,0.2567,0.2595,0.2482,0.199,0.2037,0.2067,0.2145,0.2164,0.2152,0.2106,0.206,0.1992,0.1843,0.1771,0.1715,0.167,0.0,0.0,0.1912,0.2138,0.0,0.3214,0.361,0.0,0.0,0.0,0.5838,0.6384,0.6521,0.0,0.0,0.4306,0.3325,0.2457,0.2477,0.2511,0.2511,0.2511,0.2511,0.2511,0.2511,0.2503,0.2488,0.2488,0.2455,0.2359,0.2301,0.2252,0.2206,0.2214,0.2188,0.2188,0.2188,0.2188,0.2255,0.2753,0.3151,0.3618,0.4716,0.5345,0.5708,0.6196,0.6318,0.625,0.6056,0.5983,0.5923,0.5582,0.5486,0.549,0.5333,0.5297,0.527,0.5132,0.5105,0.5046,0.4908,0.4881,0.4822,0.468,0.4649,0.4594,0.4481,0.4036,0.3566,0.3121,0.301,0.301,0.3037,0.3425,0.3483,0.2843,0.2899,0.2954,0.2847,0.3239,0.3489,0.3375,0.3793,0.4042,0.4042,0.4042,0.4042,0.4042,0.4042,0.4042,0.4042,0.4184,0.3959,0.3375,0.3932,0.3904,0.332,0.379,0.3707,0.2067,0.2116,0.2145,0.2179,0.2167,0.2124,0.2034,0.1968,0.1854,0.1707,0.165,0.0,0.0,0.0,0.0,0.0,0.0,0.0,0.2737,0.2963,0.3636,0.0,0.5501,0.0,0.7118,0.7277,0.6995,0.0,0.4977,0.4065,0.3566,0.3226,0.3054,0.3054,0.3054,0.2899,0.2511,0.2511,0.2511,0.2511,0.2511,0.2492,0.2458,0.2362,0.2304,0.2245,0.0,0.2213,0.2188,0.2188,0.2388,0.2686,0.305,0.3382,0.3818,0.4978,0.5411,0.551,0.6181,0.6387,0.6388,0.6237,0.6207,0.6158,0.5815,0.5677,0.5563,0.5466,0.5357,0.5297,0.5297,0.5297,0.5297,0.5297,0.5297,0.527,0.5211,0.5183,0.5156,0.5014,0.4704,0.437,0.3953,0.3895,0.3923,0.3981,0.426,0.437,0.4095,0.3953,0.3871,0.379,0.407,0.4236,0.4101,0.438,0.4574,0.4519,0.4491,0.4491,0.4491,0.4491,0.4491,0.4491,0.4491,0.4322,0.3987,0.4322,0.4322,0.4018,0.4349,0.4322,0.2103,0.2146,0.2188,0.2188,0.2141,0.2063,0.1939,0.1831,0.1736,0.1537,0.0,0.0,0.142,0.0,0.16,0.1695,0.0,0.2078,0.219,0.2477,0.3289,0.483,0.5198,0.5896,0.7365,0.7484,0.7173,0.6433,0.5622,0.5118,0.5004,0.4338,0.3908,0.3791,0.3791,0.3365,0.2511,0.2511,0.2511,0.2511,0.2511,0.2511,0.2508,0.2447,0.243,0.2488,0.0,0.0,0.2501,0.2391,0.272,0.3351,0.3351,0.3751,0.4386,0.5113,0.5411,0.551,0.6181,0.6387,0.6392,0.6265,0.6212,0.618,0.6008,0.5795,0.5644,0.5616,0.5458,0.5297,0.5297,0.5297,0.5297,0.5297,0.5297,0.5297,0.5297,0.5297,0.527,0.5156,0.5128,0.5097,0.4983,0.4956,0.4983,0.5097,0.5128,0.5156,0.5297,0.5097,0.4956,0.4928,0.4928,0.4873,0.4743,0.4715,0.466,0.4546,0.4519,0.4491,0.4491,0.4491,0.4491,0.4491,0.4491,0.4491,0.4491,0.4491,0.4491,0.4491,0.4491,0.4491,0.2143,0.2179,0.2188,0.2188,0.2141,0.2063,0.1939,0.1798,0.0,0.0,0.0,0.1423,0.1414,0.1469,0.0,0.1688,0.0,0.0,0.0,0.0,0.4462,0.0,0.0,0.0,0.0,0.0,0.0,0.0,0.0,0.5699,0.504,0.4885,0.4494,0.383,0.3791,0.3365,0.2511,0.2511,0.2511,0.2511,0.2511,0.2511,0.2508,0.2447,0.2791,0.3409,0.2576,0.0,0.4113,0.3349,0.3451,0.412,0.412,0.4187,0.4386,0.5113,0.5411,0.551,0.6181,0.6387,0.6383,0.6379,0.6371,0.6335,0.6188,0.6008,0.5807,0.5653,0.5458,0.5297,0.5297,0.5297,0.5297,0.5297,0.5297,0.5297,0.5297,0.5297,0.5297,0.527,0.527,0.527,0.5242,0.5242,0.5242,0.527,0.527,0.527,0.5297,0.527,0.5183,0.5069,0.5069,0.5014,0.4873,0.477,0.4688,0.466,0.4574,0.4491,0.4491,0.4491,0.4491,0.4491,0.4491,0.4491,0.4491,0.4491,0.4491,0.4491,0.4491,0.4491,0.2124,0.2163,0.2188,0.2188,0.2117,0.2016,0.1865,0.0,0.0,0.0,0.0,0.1356,0.1349,0.0,0.0,0.0,0.0,0.0,0.0,0.0,0.0,0.0,0.0,0.0,0.0,0.0,0.0,0.0,0.0,0.0,0.6321,0.5854,0.5464,0.5074,0.4219,0.3599,0.3171,0.3171,0.3171,0.3171,0.36,0.3795,0.3795,0.375,0.3904,0.4135,0.3676,0.0,0.4399,0.3971,0.4217,0.4882,0.4882,0.4882,0.4948,0.5646,0.5712,0.551,0.6181,0.6387,0.6387,0.6387,0.6387,0.64,0.6314,0.6099,0.5868,0.5778,0.5535,0.5297,0.5297,0.5297,0.5297,0.5297,0.5297,0.5297,0.5297,0.5297,0.5297,0.5297,0.5297,0.5297,0.5297,0.5297,0.5297,0.5297,0.5297,0.5297,0.5297,0.5297,0.527,0.5215,0.5211,0.5156,0.5014,0.4932,0.4853,0.4719,0.4632,0.4574,0.4491,0.4491,0.4491,0.4491,0.4491,0.4491,0.4491,0.4491,0.4491,0.4491,0.4491,0.4491,0.2092,0.2141,0.2185,0.2171,0.2085,0.1968,0.1808,0.1611,0.0,0.0,0.0,0.1294,0.1302,0.0,0.0,0.0,0.0,0.0,0.0,0.0,0.0,0.0,0.0,0.0,0.0,0.0,0.0,0.0,0.0,0.0,0.7484,0.6861,0.6395,0.6202,0.4957,0.4219,0.4066,0.4066,0.4066,0.4066,0.4691,0.5004,0.5004,0.5004,0.496,0.4893,0.4684,0.0,0.0,0.4628,0.4951,0.5613,0.5613,0.5613,0.5679,0.6218,0.6083,0.5679,0.6218,0.6387,0.6387,0.6387,0.6387,0.6387,0.6387,0.6168,0.5888,0.5888,0.5599,0.5297,0.5297,0.5297,0.5297,0.5297,0.5297,0.5297,0.5297,0.5297,0.5297,0.5297,0.5297,0.5297,0.5297,0.5297,0.5297,0.5297,0.5297,0.5297,0.5297,0.5297,0.5297,0.5297,0.5297,0.527,0.5156,0.5128,0.5014,0.4798,0.477,0.4688,0.4546,0.4546,0.4519,0.4491,0.4491,0.4491,0.4491,0.4491,0.4491,0.4491,0.4491,0.457,0.208,0.2141,0.2174,0.2118,0.2052,0.1957,0.1753,0.0,0.0,0.0,0.1302,0.1301,0.1306,0.135,0.0,0.0,0.0,0.0,0.0,0.0,0.0,0.0,0.0,0.0,0.0,0.0,0.0,0.0,0.0,0.0,0.7484,0.7442,0.7015,0.624,0.6047,0.5622,0.4885,0.4885,0.4885,0.4885,0.4963,0.5004,0.5004,0.5004,0.531,0.5835,0.4974,0.0,0.0,0.5633,0.5716,0.6317,0.6317,0.6317,0.6317,0.6383,0.635,0.6317,0.6383,0.6387,0.6387,0.6387,0.6387,0.6387,0.6387,0.6168,0.5888,0.5888,0.5599,0.5297,0.5297,0.5297,0.5297,0.5297,0.5297,0.5297,0.5297,0.5297,0.5297,0.5297,0.5297,0.5297,0.5297,0.5297,0.5297,0.5297,0.5297,0.5297,0.5297,0.5297,0.5297,0.5297,0.5297,0.5297,0.527,0.5183,0.5097,0.5073,0.4956,0.4822,0.4688,0.4688,0.4632,0.4491,0.4491,0.4491,0.4491,0.4491,0.4491,0.4491,0.4491,0.4763,0.2013,0.2085,0.2125,0.2102,0.2048,0.1955,0.1747,0.0,0.1382,0.1358,0.1324,0.1308,0.1359,0.1373,0.1419,0.0,0.1697,0.2121,0.0,0.0,0.0,0.0,0.0,0.0,0.0,0.0,0.0,0.0,0.0,0.0,0.7484,0.7484,0.7326,0.6976,0.6475,0.6047,0.5738,0.5738,0.5738,0.5738,0.6244,0.6514,0.6511,0.6381,0.644,0.6567,0.6082,0.0,0.0,0.6143,0.6148,0.6387,0.6387,0.6387,0.6387,0.6387,0.6387,0.6387,0.6387,0.6387,0.6387,0.6387,0.6387,0.6387,0.6387,0.6168,0.5888,0.5888,0.5599,0.5297,0.5297,0.5297,0.5297,0.5297,0.5297,0.5297,0.5297,0.5595,0.5832,0.5832,0.6132,0.6381,0.6381,0.6381,0.6381,0.6381,0.6381,0.6381,0.6381,0.6381,0.6381,0.6381,0.5732,0.5297,0.5297,0.5242,0.5183,0.5097,0.5042,0.4956,0.4822,0.4743,0.4688,0.4632,0.4924,0.5109,0.5109,0.5109,0.5109,0.5081,0.4677,0.4625,0.1922,0.2008,0.2063,0.2045,0.2008,0.1929,0.0,0.0,0.1427,0.137,0.1341,0.1309,0.1369,0.1377,0.1411,0.1411,0.1695,0.2106,0.2652,0.0,0.0,0.0,0.0,0.0,0.0,0.0,0.0,0.0,0.0,0.0,0.0,0.7484,0.7484,0.7484,0.6899,0.6591,0.6591,0.6591,0.6591,0.6591,0.7253,0.7603,0.7595,0.738,0.7232,0.7082,0.0,0.0,0.0,0.6387,0.6387,0.6387,0.6387,0.6387,0.6387,0.6387,0.6387,0.6387,0.6387,0.6387,0.6387,0.6387,0.6387,0.6387,0.6387,0.6205,0.5984,0.5904,0.5599,0.5297,0.5297,0.5297,0.5297,0.5297,0.5297,0.5352,0.554,0.5887,0.6263,0.6426,0.681,0.7112,0.7112,0.7112,0.7112,0.7112,0.7112,0.7112,0.7112,0.7112,0.7112,0.7112,0.6327,0.5841,0.5841,0.5841,0.5782,0.5696,0.5696,0.5641,0.5496,0.5395,0.5312,0.5262,0.5632,0.5814,0.5814,0.5814,0.5814,0.5814,0.5304,0.5144,0.1782,0.1914,0.199,0.1927,0.1912,0.1835,0.0,0.1544,0.1466,0.1325,0.13,0.13,0.1301,0.1349,0.1411,0.1411,0.1461,0.1808,0.2676,0.0,0.0,0.0,0.0,0.0,0.0,0.0,0.0,0.0,0.0,0.0,0.0,0.7484,0.7484,0.7484,0.7484,0.7484,0.7484,0.7484,0.7484,0.7484,0.7684,0.7804,0.7795,0.7605,0.7411,0.0,0.0,0.0,0.0,0.6387,0.6387,0.6387,0.6387,0.6387,0.6387,0.6387,0.6387,0.6387,0.6387,0.6387,0.6387,0.6387,0.6387,0.6387,0.6387,0.629,0.617,0.5967,0.5599,0.5297,0.5297,0.5297,0.5297,0.5297,0.5297,0.5462,0.6077,0.6209,0.6372,0.6977,0.7085,0.7112,0.7112,0.7112,0.7112,0.7112,0.7112,0.7112,0.7112,0.7112,0.7112,0.7112,0.7085,0.7085,0.7085,0.7085,0.7085,0.7085,0.7085,0.7025,0.688,0.688,0.6772,0.6588,0.6588,0.6588,0.6588,0.6588,0.6588,0.6588,0.6443,0.6637,0.1569,0.1669,0.1714,0.1653,0.1669,0.1651,0.1447,0.1423,0.1418,0.1317,0.13,0.1313,0.1353,0.1375,0.1424,0.1466,0.1489,0.0,0.0,0.0,0.0,0.0,0.0,0.0,0.0,0.0,0.0,0.0,0.0,0.0,0.0,0.7484,0.7484,0.7484,0.7484,0.7484,0.7484,0.7642,0.7723,0.7723,0.7915,0.7991,0.7978,0.7653,0.0,0.0,0.0,0.0,0.0,0.6749,0.6749,0.6749,0.6646,0.6609,0.6609,0.6609,0.6515,0.6416,0.6548,0.6609,0.6581,0.6453,0.6552,0.6716,0.6646,0.6415,0.6145,0.5909,0.5677,0.5513,0.5513,0.5407,0.5297,0.5297,0.5297,0.5458,0.6073,0.6534,0.6972,0.753,0.799,0.8268,0.8268,0.8268,0.8268,0.8268,0.8268,0.8268,0.8268,0.8268,0.8268,0.8268,0.8268,0.7943,0.7166,0.7112,0.7112,0.7112,0.7112,0.7085,0.7025,0.6939,0.688,0.6799,0.7155,0.7343,0.7343,0.7343,0.7101,0.6588,0.6556,0.6556,0.0,0.1477,0.1514,0.1477,0.1495,0.1487,0.133,0.1346,0.1371,0.1313,0.1319,0.1345,0.1382,0.1411,0.1423,0.1461,0.1486,0.0,0.0,0.0,0.0,0.0,0.0,0.0,0.0,0.0,0.0,0.0,0.0,0.0,0.0,0.7561,0.7603,0.7603,0.7522,0.7522,0.7603,0.7723,0.7842,0.7915,0.8102,0.8217,0.8203,0.7811,0.0,0.0,0.0,0.0,0.0,0.6913,0.6913,0.6881,0.6811,0.6778,0.6778,0.6778,0.6679,0.6618,0.6745,0.6778,0.6745,0.6618,0.6716,0.6881,0.6811,0.658,0.6337,0.61,0.5907,0.5767,0.5698,0.5572,0.5489,0.5489,0.5489,0.5704,0.6502,0.6988,0.745,0.817,0.8606,0.8857,0.8811,0.8804,0.8804,0.8804,0.8804,0.8804,0.8804,0.8804,0.8804,0.8804,0.8804,0.8507,0.7809,0.7729,0.7729,0.7729,0.7729,0.7729,0.7729,0.767,0.761,0.761,0.7937,0.8103,0.8103,0.8103,0.7857,0.7364,0.7364,0.7283,0.0,0.1325,0.1391,0.1387,0.1389,0.1376,0.1296,0.133,0.0,0.13,0.1336,0.1402,0.141,0.1385,0.1389,0.1427,0.0,0.0,0.0,0.0,0.0,0.0,0.0,0.0,0.0,0.0,0.0,0.0,0.0,0.0,0.0,0.7702,0.7783,0.7783,0.7621,0.7625,0.7804,0.7842,0.7953,0.814,0.8327,0.8432,0.8405,0.8015,0.0,0.0,0.0,0.0,0.0,0.6946,0.6946,0.6946,0.6913,0.6913,0.6913,0.6913,0.6913,0.6913,0.6913,0.6913,0.6913,0.6946,0.6946,0.6913,0.6946,0.6829,0.6657,0.648,0.6246,0.6067,0.5922,0.5877,0.5877,0.59,0.5927,0.6223,0.7337,0.7572,0.7845,0.8817,0.9008,0.8982,0.8857,0.8831,0.8804,0.8804,0.8811,0.8804,0.8804,0.8804,0.8804,0.8804,0.8804,0.8804,0.8804,0.8804,0.8804,0.8804,0.8804,0.8804,0.8804,0.8804,0.8804,0.8804,0.8804,0.8804,0.8804,0.8804,0.8745,0.8626,0.8653,0.86,0.115,0.0,0.1238,0.1191,0.1215,0.1233,0.0,0.1241,0.1302,0.1241,0.0,0.1348,0.1395,0.1352,0.1381,0.0,0.0,0.0,0.0,0.0,0.0,0.0,0.0,0.0,0.0,0.0,0.0,0.0,0.0,0.0,0.0,0.7762,0.7803,0.7803,0.7762,0.7835,0.803,0.8178,0.8289,0.8327,0.8513,0.8548,0.8393,0.8131,0.0,0.0,0.0,0.0,0.7363,0.7363,0.7363,0.733,0.7199,0.7138,0.7138,0.7138,0.7045,0.6913,0.7073,0.7138,0.7138,0.7297,0.7265,0.7171,0.7297,0.7016,0.6605,0.656,0.6289,0.6115,0.6522,0.6534,0.6534,0.6988,0.7095,0.731,0.8043,0.8176,0.8388,0.9028,0.9159,0.9133,0.9106,0.9008,0.8956,0.8956,0.8857,0.8804,0.8804,0.8804,0.8804,0.8804,0.8804,0.8804,0.8804,0.8804,0.8804,0.8804,0.8804,0.8804,0.8804,0.8804,0.8804,0.8804,0.8804,0.8804,0.8804,0.8804,0.8778,0.8752,0.9178,0.9302,0.1052,0.1155,0.1239,0.1205,0.1222,0.1238,0.1204,0.0,0.0,0.0,0.0,0.0,0.1675,0.0,0.0,0.0,0.0,0.0,0.0,0.0,0.0,0.0,0.0,0.0,0.0,0.0,0.0,0.0,0.0,0.0,0.0,0.7748,0.7816,0.7816,0.7979,0.8123,0.825,0.8327,0.8437,0.8551,0.8571,0.8505,0.8392,0.8085,0.7916,0.0,0.0,0.0,0.7489,0.7489,0.7489,0.7489,0.7396,0.733,0.733,0.733,0.7265,0.7204,0.7297,0.7521,0.7879,0.8296,0.8328,0.8264,0.8393,0.8032,0.7512,0.7195,0.7067,0.7077,0.7284,0.7283,0.7283,0.7599,0.7679,0.7845,0.8461,0.8573,0.8732,0.9211,0.9283,0.9256,0.9211,0.9133,0.908,0.908,0.9035,0.8982,0.8982,0.8982,0.8982,0.8982,0.8936,0.8883,0.8883,0.8831,0.8804,0.8804,0.8804,0.8804,0.8804,0.8804,0.8804,0.8804,0.8804,0.8936,0.9159,0.9159,0.9283,0.9536,0.984,0.9917,0.1024,0.1237,0.1419,0.1311,0.1357,0.1428,0.1417,0.0,0.0,0.0,0.0,0.0,0.0,0.0,0.0,0.0,0.0,0.0,0.0,0.0,0.0,0.0,0.0,0.0,0.0,0.0,0.0,0.0,0.0,0.0,0.0,0.7725,0.7791,0.7791,0.814,0.8332,0.8345,0.8409,0.8499,0.8656,0.8486,0.8368,0.8297,0.7943,0.7797,0.0,0.0,0.0,0.7489,0.7489,0.7489,0.7489,0.7489,0.7489,0.7489,0.7489,0.7489,0.7521,0.7619,0.8102,0.8748,0.9326,0.9486,0.9486,0.9486,0.9205,0.8715,0.8139,0.808,0.8137,0.8065,0.8031,0.8057,0.8137,0.8164,0.8296,0.8797,0.8928,0.9014,0.9361,0.9439,0.9387,0.929,0.9237,0.9237,0.9237,0.9211,0.9211,0.9211,0.9211,0.9237,0.9309,0.9211,0.9185,0.9263,0.9159,0.9087,0.9087,0.891,0.8831,0.891,0.8936,0.8956,0.9035,0.9035,0.9263,0.971,0.971,0.9961,1.0389,1.0499,1.055,0.1146,0.1646,0.1988,0.1371,0.1607,0.197,0.1899,0.0,0.0,0.0,0.0,0.0,0.0,0.0,0.0,0.0,0.0,0.0,0.0,0.0,0.0,0.0,0.0,0.0,0.0,0.0,0.0,0.0,0.0,0.0,0.0,0.0,0.7795,0.7795,0.7858,0.7971,0.8139,0.8491,0.8581,0.8448,0.8415,0.8217,0.7877,0.7845,0.7717,0.0,0.0,0.7489,0.7489,0.7489,0.7489,0.7489,0.7489,0.7489,0.7489,0.7489,0.7489,0.7587,0.8134,0.8775,0.9358,0.9454,0.9486,0.9486,0.9486,0.9487,0.9434,0.9347,0.8652,0.8059,0.8547,0.8672,0.8771,0.9242,0.9347,0.9373,0.9458,0.9484,0.9484,0.9562,0.9562,0.9562,0.9536,0.9439,0.9361,0.9361,0.9283,0.9211,0.9211,0.9211,0.9387,0.984,0.9865,1.0038,1.0491,1.0389,1.0312,1.0312,0.9361,0.9008,0.9465,0.9484,0.9684,1.0141,1.0141,1.0185,1.0287,1.0287,1.0312,1.0415,1.0922,1.1167,0.1011,0.1492,0.1963,0.1918,0.2402,0.2903,0.2875,0.0,0.0,0.0,0.0,0.0,0.0,0.0,0.0,0.0,0.0,0.0,0.0,0.0,0.0,0.0,0.0,0.0,0.0,0.0,0.0,0.0,0.0,0.0,0.0,0.0,0.7641,0.7641,0.775,0.7859,0.7954,0.8217,0.8316,0.8226,0.8118,0.7966,0.7811,0.7693,0.7584,0.7489,0.0,0.7489,0.7489,0.7489,0.7489,0.7489,0.7489,0.7717,0.8069,0.8458,0.8587,0.8683,0.9358,0.9779,1.0098,1.051,1.0636,1.0636,1.0636,1.0523,1.0374,1.0177,0.9508,0.8876,0.9164,0.9223,0.9295,0.9536,0.9588,0.9588,0.9588,0.9588,0.9588,0.9588,0.9588,0.9588,0.9588,0.9536,0.9517,0.9517,0.9699,0.9855,0.9855,1.0105,1.0387,1.0609,1.0576,1.0644,1.0889,1.0788,1.0644,1.0491,1.0038,0.9891,1.0141,1.0218,1.0338,1.0491,1.0517,1.0626,1.0897,1.0897,1.1049,1.1326,1.1594,1.1719,0.098,0.1473,0.2083,0.2539,0.0,0.3543,0.376,0.0,0.0,0.0,0.0,0.0,0.0,0.0,0.0,0.0,0.0,0.0,0.0,0.0,0.0,0.0,0.0,0.0,0.0,0.0,0.0,0.0,0.0,0.0,0.0,0.0,0.7489,0.7489,0.765,0.774,0.774,0.7892,0.7996,0.8044,0.7887,0.7788,0.7731,0.7565,0.7489,0.7489,0.7489,0.7489,0.7489,0.7489,0.7489,0.7489,0.7489,0.7912,0.8587,0.9262,0.9614,0.9811,1.032,1.0611,1.0863,1.1404,1.1591,1.1591,1.1591,1.1364,1.1034,1.0682,1.017,0.9709,0.961,0.9588,0.9588,0.9588,0.9588,0.9588,0.9588,0.9588,0.9588,0.9588,0.9588,0.9588,0.9588,0.9588,0.964,0.9769,1.0138,1.0454,1.0574,1.0956,1.1259,1.141,1.1317,1.1309,1.1375,1.13,1.1149,1.0906,1.0745,1.0695,1.0821,1.0922,1.0998,1.1049,1.1007,1.1166,1.1519,1.1502,1.1703,1.2101,1.2126,1.215,0.126,0.2032,0.2854,0.3023,0.3097,0.0,0.4245,0.4578,0.0,0.0,0.0,0.0,0.0,0.0,0.0,0.0,0.0,0.0,0.0,0.0,0.0,0.0,0.0,0.0,0.0,0.0,0.0,0.0,0.0,0.0,0.0,0.0,0.0,0.7489,0.7503,0.7512,0.7512,0.7527,0.7636,0.7835,0.7821,0.7712,0.7512,0.7498,0.7489,0.7489,0.7489,0.7489,0.7489,0.7489,0.7489,0.7489,0.7489,0.7912,0.8587,0.9262,0.9907,1.0421,1.0485,1.0958,1.1529,1.1591,1.1591,1.1591,1.1591,1.1364,1.1034,1.0682,1.0338,0.9994,0.9694,0.9588,0.9588,0.9588,0.9588,0.9588,0.9588,0.9588,0.9588,0.9588,0.9588,0.9588,0.9588,0.9588,0.9769,1.0267,1.0377,1.0574,1.1082,1.1175,1.141,1.1977,1.2026,1.2166,1.2554,1.2569,1.2495,1.2348,1.1359,1.0998,1.1501,1.1551,1.181,1.2348,1.2249,1.22,1.2224,1.2101,1.2051,1.2101,1.2224,1.2283,0.1419,0.2243,0.3099,0.3446,0.3812,0.0,0.0,0.5375,0.0,0.0,0.0,0.0,0.0,0.0,0.0,0.0,0.0,0.0,0.0,0.0,0.0,0.0,0.0,0.0,0.0,0.0,0.0,0.0,0.0,0.0,0.0,0.0,0.0,0.7489,0.7489,0.7489,0.7489,0.7489,0.7531,0.7612,0.7612,0.7569,0.7489,0.7489,0.7489,0.7489,0.7489,0.7489,0.7489,0.7489,0.7489,0.7587,0.8425,0.9166,0.9837,1.0534,1.0958,1.1178,1.1178,1.1373,1.1591,1.1591,1.1591,1.1591,1.1591,1.1503,1.1342,1.1012,1.0828,1.0616,1.0053,0.9768,0.9639,0.987,0.976,0.9588,0.9588,0.9588,0.9588,0.9588,0.9588,0.9588,0.9588,0.9588,0.9769,1.0326,1.0676,1.1108,1.1694,1.2042,1.2348,1.2578,1.2603,1.2652,1.2808,1.2832,1.2808,1.2749,1.2264,1.2082,1.2264,1.2372,1.2471,1.2627,1.2578,1.2505,1.2431,1.2525,1.2647,1.2732,1.2952,1.31,0.1804,0.2579,0.3412,0.3798,0.0,0.0,0.5273,0.0,0.0,0.0,0.0,0.0,0.0,0.0,0.0,0.0,0.0,0.0,0.0,0.0,0.0,0.0,0.0,0.0,0.0,0.0,0.0,0.0,0.0,0.0,0.0,0.0,0.0,0.0,0.7814,0.7907,0.8134,0.8134,0.8134,0.8134,0.8134,0.7912,0.7521,0.7717,0.7717,0.7521,0.7717,0.7684,0.7521,0.7972,0.8134,0.8231,0.939,1.0098,1.0579,1.1341,1.1591,1.1591,1.1591,1.1591,1.1591,1.1591,1.1591,1.1591,1.1591,1.1622,1.1587,1.1195,1.1197,1.1152,1.0606,1.019,0.998,1.0199,1.0082,0.9892,0.979,0.9768,0.9738,0.9636,0.9588,0.9588,0.9588,0.9744,1.0028,1.0574,1.1133,1.1694,1.2274,1.2676,1.2905,1.2905,1.2905,1.2905,1.2905,1.2905,1.2905,1.2905,1.2808,1.2759,1.2759,1.2856,1.2856,1.2759,1.286,1.2844,1.2744,1.3025,1.3233,1.3321,1.3534,1.373,0.2435,0.3149,0.385,0.0,0.0,0.0,0.0,0.0,0.0,0.0,0.0,0.0,0.0,0.0,0.0,0.0,0.0,0.0,0.0,0.0,0.0,0.0,0.0,0.0,0.0,0.0,0.0,0.0,0.0,0.0,0.0,0.0,0.0,0.0,0.8522,0.8844,0.9486,0.9486,0.9486,0.9486,0.9518,0.8812,0.7554,0.8199,0.8134,0.7554,0.8231,0.8134,0.7619,0.8935,0.9518,0.9582,1.0231,1.0485,1.0611,1.1341,1.1591,1.1591,1.1591,1.1591,1.1591,1.1591,1.1591,1.1591,1.1591,1.1716,1.1704,1.1233,1.1346,1.1562,1.1368,1.0953,1.0594,1.0623,1.0616,1.0499,1.017,1.0104,1.0002,0.968,0.9614,0.9614,0.9614,1.0061,1.06,1.1133,1.1719,1.2298,1.2832,1.2905,1.2905,1.2915,1.2905,1.2905,1.2915,1.2905,1.2905,1.2905,1.2905,1.2905,1.2905,1.2905,1.2905,1.2915,1.3165,1.3301,1.3301,1.3654,1.3801,1.3801,1.3946,1.3999,0.2645,0.345,0.0,0.0,0.0,0.0,0.0,0.0,0.0,0.0,0.0,0.0,0.0,0.0,0.0,0.0,0.0,0.0,0.0,0.0,0.0,0.0,0.0,0.0,0.0,0.0,0.0,0.0,0.0,0.0,0.0,0.0,0.0,0.0,0.8973,0.9294,0.9486,0.9486,0.9486,0.9518,0.997,0.9748,0.8909,0.9102,0.9102,0.8903,0.9128,0.9102,0.8941,0.9326,0.9779,1.0225,1.0421,1.0832,1.131,1.1529,1.1591,1.1622,1.1716,1.1747,1.1771,1.1903,1.1934,1.1934,1.1934,1.1972,1.1973,1.1844,1.1882,1.1943,1.1882,1.1776,1.1609,1.1374,1.1132,1.0867,1.0526,1.0376,1.0332,1.0433,1.0379,1.044,1.0939,1.1074,1.1283,1.1825,1.2017,1.2298,1.2832,1.2905,1.3023,1.3291,1.3057,1.2998,1.3301,1.3047,1.2905,1.2905,1.3164,1.3193,1.2915,1.2905,1.3042,1.3311,1.3396,1.3575,1.3866,1.4194,1.4396,1.4517,1.4752,1.4888,0.3276,0.0,0.0,0.0,0.0,0.0,0.0,0.0,0.0,0.0,0.0,0.0,0.0,0.0,0.0,0.0,0.0,0.0,0.0,0.0,0.0,0.0,0.0,0.0,0.0,0.0,0.0,0.0,0.0,0.0,0.0,0.0,0.0,0.0,0.9678,1.0034,1.0345,1.0345,1.0345,1.0345,1.0737,1.073,1.0313,1.0028,0.9741,0.9486,0.9486,0.9805,1.0313,1.0034,1.032,1.0926,1.0926,1.1247,1.1685,1.1685,1.1716,1.1809,1.1903,1.1934,1.1934,1.2058,1.2096,1.2096,1.2096,1.2151,1.2158,1.212,1.2189,1.2282,1.2212,1.2428,1.2527,1.1927,1.183,1.1707,1.119,1.1216,1.1315,1.1141,1.1049,1.1141,1.1541,1.1715,1.1898,1.2147,1.2323,1.2586,1.3081,1.3135,1.3291,1.3685,1.3525,1.3477,1.3714,1.3525,1.3379,1.3379,1.3588,1.3617,1.3389,1.3379,1.3496,1.3724,1.3926,1.4237,1.4737,1.5083,1.5443,1.5751,1.5667,1.5671,0.0,0.0,0.0,0.0,0.0,0.0,0.0,0.0,0.0,0.0,0.0,0.0,0.0,0.0,0.0,0.0,0.0,0.0,0.0,0.0,0.0,0.0,0.0,0.0,0.0,0.0,0.0,0.0,0.0,0.0,0.0,0.0,0.0,0.0,1.0579,1.0926,1.1591,1.1591,1.1591,0.0,1.1622,1.1622,1.1591,1.0895,1.0256,0.9678,0.9678,1.0408,1.156,1.0863,1.1021,1.1654,1.1622,1.1716,1.1833,1.1833,1.1934,1.2096,1.212,1.212,1.212,1.2151,1.2158,1.2158,1.2158,1.2212,1.2305,1.2243,1.2467,1.2652,1.2513,1.3025,1.339,1.2513,1.275,1.2939,1.2166,1.2462,1.2681,1.1966,1.1796,1.1769,1.1843,1.2187,1.2457,1.2376,1.2724,1.3135,1.3531,1.359,1.3756,1.415,1.416,1.415,1.4216,1.416,1.4141,1.4141,1.4143,1.4172,1.4189,1.4177,1.4204,1.4243,1.4718,1.5257,1.5838,1.6189,1.6669,1.7202,1.6641,1.6397,0.0,0.0,0.0,0.0,0.0,0.0,0.0,0.0,0.0,0.0,0.0,0.0,0.0,0.0,0.0,0.0,0.0,0.0,0.0,0.0,0.0,0.0,0.0,0.0,0.0,0.0,0.0,0.0,0.0,0.0,0.0,0.0,0.0,1.0478,1.1059,1.1435,1.1591,1.1591,1.1591,0.0,1.1716,1.1716,1.1591,1.1435,1.1272,1.1146,1.1146,1.1397,1.1747,1.1466,1.1622,1.1972,1.1809,1.1872,1.2027,1.2027,1.2058,1.212,1.2212,1.2274,1.2274,1.2436,1.2498,1.2498,1.2498,1.2498,1.2621,1.3056,1.3238,1.342,1.3902,1.4172,1.4231,1.4013,1.4073,1.4028,1.3562,1.3483,1.3534,1.3609,1.3262,1.3093,1.3631,1.3425,1.3256,1.3491,1.3626,1.3821,1.4149,1.4294,1.448,1.4765,1.4606,1.4643,1.5004,1.4616,1.4347,1.4347,1.4517,1.4704,1.4787,1.4817,1.4973,1.5358,1.5912,1.6434,1.6883,1.6952,1.7062,1.7202,1.7062,1.7006,0.0,0.0,0.0,0.0,0.0,0.0,0.0,0.0,0.0,0.0,0.0,0.0,0.0,0.0,0.0,0.0,0.0,0.0,0.0,0.0,0.0,0.0,0.0,0.0,0.0,0.0,0.0,0.0,0.0,0.0,0.0,1.0198,1.0706,1.1014,1.1404,1.1591,1.1591,1.1654,1.1716,1.1716,1.1872,1.1903,1.184,1.1654,1.1685,1.184,1.1747,1.1778,1.1934,1.1872,1.1934,1.2089,1.1965,1.2058,1.2212,1.2212,1.2243,1.2344,1.2428,1.2428,1.2467,1.256,1.259,1.259,1.259,1.2797,1.3094,1.342,1.3713,1.4052,1.441,1.4706,1.4942,1.4942,1.4942,1.4819,1.4364,1.4476,1.4629,1.4583,1.4339,1.423,1.4558,1.4327,1.4119,1.4302,1.4291,1.4375,1.4784,1.4888,1.5059,1.5399,1.5323,1.5328,1.557,1.5305,1.5119,1.5119,1.5523,1.5774,1.5869,1.6375,1.6499,1.6137,1.6678,1.7235,1.7738,1.7738,1.7902,1.8255,1.7902,1.7738,0.0,0.0,0.0,0.0,0.0,0.0,0.0,0.0,0.0,0.0,0.0,0.0,0.0,0.0,0.0,0.0,0.0,0.0,0.0,0.0,0.0,0.0,0.0,0.0,0.0,0.0,0.0,0.0,0.0,0.0,1.0096,1.0643,1.1114,1.1496,1.1503,1.1564,1.1622,1.1747,1.1833,1.1833,1.2027,1.2127,1.2158,1.184,1.184,1.2089,1.1934,1.1965,1.212,1.2127,1.2127,1.2189,1.2158,1.2212,1.2336,1.2336,1.2467,1.259,1.259,1.259,1.259,1.259,1.259,1.259,1.259,1.3011,1.3511,1.3631,1.4142,1.4677,1.4795,1.5206,1.5565,1.5565,1.5565,1.5467,1.5074,1.5434,1.5728,1.5308,1.5173,1.509,1.5007,1.4918,1.486,1.4932,1.4863,1.4945,1.5363,1.5479,1.5604,1.5892,1.6048,1.6134,1.6134,1.621,1.6239,1.6239,1.6691,1.6961,1.6989,1.7972,1.8038,1.7011,1.7473,1.7995,1.8494,1.8494,1.8789,1.9394,1.8774,1.8494,0.0,0.0,0.0,0.0,0.0,0.0,0.0,0.0,0.0,0.0,0.0,0.0,0.0,0.0,0.0,0.0,0.0,0.0,0.0,0.0,0.0,0.0,0.0,0.0,0.0,0.0,0.0,0.0,0.0,0.0,1.0076,1.0173,1.0514,1.1151,1.1173,1.1366,1.1771,1.1802,1.1903,1.2058,1.2089,1.2251,1.2529,1.2189,1.2065,1.2096,1.2058,1.2151,1.2274,1.2158,1.2282,1.2529,1.2336,1.2398,1.256,1.256,1.259,1.259,1.259,1.259,1.259,1.259,1.259,1.259,1.259,1.3011,1.3631,1.4201,1.4824,1.541,1.599,1.6202,1.6259,1.6259,1.6259,1.6239,1.6177,1.6252,1.6299,1.6236,1.5866,1.5473,1.507,1.4997,1.5105,1.5508,1.556,1.567,1.5971,1.6156,1.6216,1.6085,1.6662,1.7045,1.7045,1.7396,1.7644,1.7644,1.755,1.7578,1.7743,1.834,1.862,1.8509,1.8922,1.9172,1.9263,1.9263,1.9316,1.9394,1.9316,1.9263,0.0,0.0,0.0,0.0,0.0,0.0,0.0,0.0,0.0,0.0,0.0,0.0,0.0,0.0,0.0,0.0,0.0,0.0,0.0,0.0,0.0,0.0,0.0,0.0,0.0,0.0,0.0,0.0,0.0,0.9753,1.0082,1.0104,1.0372,1.0901,1.0945,1.1078,1.1353,1.1654,1.1989,1.2375,1.2375,1.2467,1.259,1.2436,1.2375,1.2375,1.2243,1.2313,1.2467,1.2406,1.2467,1.259,1.2498,1.2529,1.259,1.259,1.259,1.259,1.259,1.259,1.259,1.259,1.259,1.2652,1.3011,1.3541,1.4201,1.4824,1.5478,1.6019,1.6316,1.6413,1.6413,1.6413,1.6413,1.6413,1.6413,1.6413,1.6413,1.6413,1.6247,1.6039,1.5804,1.5773,1.5835,1.607,1.6073,1.6248,1.6659,1.6775,1.6944,1.7185,1.7506,1.7699,1.7699,1.7891,1.8,1.8,1.8255,1.8417,1.8509,1.903,1.9345,1.9357,1.9448,1.9512,1.9512,1.9512,1.9539,1.9604,1.9539,1.9512,0.0,0.0,0.0,0.0,0.0,0.0,0.0,0.0,0.0,0.0,0.0,0.0,0.0,0.0,0.0,0.0,0.0,0.0,0.0,0.0,0.0,0.0,0.0,0.0,0.0,0.0,0.0,0.0,0.0,0.975,0.9999,1.0014,1.0215,1.0653,1.0716,1.0854,1.1066,1.1505,1.1931,1.232,1.232,1.232,1.232,1.232,1.232,1.2328,1.2358,1.2467,1.259,1.259,1.259,1.259,1.259,1.259,1.259,1.259,1.259,1.259,1.259,1.2713,1.2828,1.2828,1.295,1.3164,1.3631,1.4201,1.4824,1.5264,1.5894,1.6413,1.6413,1.6413,1.6413,1.6413,1.6413,1.6413,1.6413,1.6413,1.6413,1.6413,1.6413,1.6413,1.6413,1.6413,1.6413,1.6413,1.6413,1.6581,1.7118,1.7202,1.7424,1.8038,1.824,1.8321,1.8321,1.8444,1.8525,1.8525,1.8936,1.9186,1.9186,1.9604,1.9798,1.9798,1.9708,1.9656,1.9656,1.9656,1.9708,1.9798,1.9708,1.9656,0.0,0.0,0.0,0.0,0.0,0.0,0.0,0.0,0.0,0.0,0.0,0.0,0.0,0.0,0.0,0.0,0.0,0.0,0.0,0.0,0.0,0.0,0.0,0.0,0.0,0.0,0.0,0.0,0.0,0.9807,0.9821,0.9821,0.9978,1.0332,1.0449,1.0773,1.1272,1.1434,1.1527,1.1571,1.1571,1.1571,1.1571,1.1571,1.1571,1.1611,1.2296,1.259,1.259,1.259,1.259,1.259,1.259,1.259,1.259,1.259,1.259,1.259,1.259,1.2972,1.345,1.345,1.3872,1.441,1.444,1.4883,1.5352,1.5381,1.5894,1.6413,1.6413,1.6413,1.6413,1.6413,1.6413,1.6413,1.6413,1.6413,1.6413,1.6413,1.6413,1.6413,1.6413,1.6413,1.6413,1.6413,1.6413,1.6581,1.7118,1.7202,1.7424,1.8038,1.8602,1.896,1.896,1.9422,1.9721,1.9721,1.9747,1.9759,1.9759,1.9798,1.9798,1.9798,1.9798,1.9798,1.9798,1.9798,1.9798,1.9798,1.9798,1.9798,0.0,0.0,0.0,0.0,0.0,0.0,0.0,0.0,0.0,0.0,0.0,0.0,0.0,0.0,0.0,0.0,0.0,0.0,0.0,0.0,0.0,0.0,0.0,0.0,0.0,0.0,0.0,0.0,0.0,0.0,0.9921,0.9921,1.0034,1.0286,1.0347,1.0615,1.1103,1.115,1.1281,1.1487,1.1487,1.1487,1.1487,1.1487,1.1684,1.2028,1.2294,1.2418,1.2406,1.2263,1.2419,1.2703,1.2617,1.259,1.2652,1.3033,1.3186,1.3246,1.3662,1.3962,1.4142,1.4142,1.4291,1.4558,1.4971,1.5235,1.5507,1.5923,1.6278,1.6524,1.6524,1.6591,1.6648,1.6563,1.6563,1.6573,1.6534,1.6459,1.6413,1.6413,1.6413,1.6413,1.6413,1.6413,1.6516,1.687,1.6916,1.7251,1.824,1.8348,1.8551,1.9135,1.9384,1.9526,1.9526,1.9708,1.9798,1.9798,1.9798,1.9798,1.9798,1.9798,1.9798,1.9798,1.9798,1.9798,1.9798,1.9798,1.9798,1.9798,1.9798,1.9798,0.0,0.0,0.0,0.0,0.0,0.0,0.0,0.0,0.0,0.0,0.0,0.0,0.0,0.0,0.0,0.0,0.0,0.0,0.0,0.0,0.0,0.0,0.0,0.0,0.0,0.0,0.0,0.0,0.0,0.0,1.011,1.011,1.0187,1.0368,1.0368,1.053,1.082,1.082,1.0931,1.1146,1.1146,1.1146,1.1173,1.1355,1.1627,1.1977,1.2129,1.2331,1.2555,1.2419,1.2682,1.3136,1.305,1.3116,1.3277,1.3692,1.3842,1.3902,1.435,1.4617,1.4795,1.4795,1.4942,1.5206,1.5671,1.5787,1.5912,1.6392,1.6591,1.6666,1.6666,1.6722,1.6779,1.6694,1.6705,1.6705,1.6666,1.6552,1.6488,1.6545,1.6705,1.6835,1.6835,1.6937,1.7179,1.7534,1.7534,1.7875,1.8881,1.8987,1.9225,1.9747,1.9798,1.9798,1.9798,1.9798,1.9798,1.9798,1.9798,1.9798,1.9798,1.9798,1.9798,1.9798,1.9798,1.9798,1.9798,1.9798,1.9798,1.9798,1.9798,1.9798,0.0,0.0,0.0,0.0,0.0,0.0,0.0,0.0,0.0,0.0,0.0,0.0,0.0,0.0,0.0,0.0,0.0,0.0,0.0,0.0,0.0,0.0,0.0,0.0,0.0,0.0,0.0,0.0,0.0,1.0324,1.0324,1.0324,1.0368,1.0496,1.0496,1.0496,1.0496,1.0496,1.0496,1.0496,1.0522,1.0522,1.0547,1.1074,1.1318,1.1368,1.1834,1.2447,1.3104,1.3095,1.3359,1.3808,1.3789,1.4064,1.4481,1.451,1.451,1.451,1.4529,1.4942,1.5439,1.5439,1.5894,1.6431,1.6581,1.6609,1.6627,1.6751,1.6818,1.6807,1.6807,1.6807,1.6807,1.6807,1.6807,1.6807,1.6846,1.6722,1.6684,1.6807,1.729,1.7722,1.771,1.8054,1.8313,1.834,1.8217,1.8348,1.896,1.904,1.9225,1.9759,1.9798,1.9798,1.9811,1.9811,1.9811,1.9811,1.9811,1.9811,1.9811,1.9811,1.9798,1.9798,1.9798,1.9798,1.9798,1.9798,1.9798,1.9798,1.9798,1.9798,0.2384,0.0,0.0,0.0,0.0,0.0,0.0,0.0,0.0,0.0,0.0,0.0,0.0,0.0,0.0,0.0,0.0,0.0,0.0,0.0,0.0,0.0,0.0,0.0,0.0,0.0,0.0,0.0,1.047,1.0445,1.0445,1.0445,1.047,1.0496,1.0496,1.0496,1.0496,1.0496,1.0496,1.0496,1.0896,1.1074,1.1099,1.1585,1.2024,1.2374,1.253,1.291,1.3412,1.295,1.3208,1.3908,1.347,1.3587,1.4058,1.4487,1.4658,1.4753,1.5582,1.6066,1.6285,1.6285,1.6467,1.6705,1.6722,1.6751,1.6751,1.679,1.6864,1.6994,1.7127,1.7155,1.7127,1.6994,1.6937,1.7078,1.7484,1.7579,1.7512,1.7457,1.7584,1.782,1.8201,1.8363,1.8593,1.9018,1.9071,1.924,1.9785,1.9875,1.9914,2.0067,2.0093,2.0054,1.9952,1.9926,1.9926,1.9926,1.9926,1.9926,1.9926,1.9926,1.9901,1.9798,1.9798,1.9798,1.9798,1.9798,1.9798,1.9798,1.9798,1.9798,0.0,0.0,0.0,0.0,0.0,0.0,0.0,0.0,0.0,0.0,0.0,0.0,0.0,0.0,0.0,0.0,0.0,0.0,0.0,0.0,0.0,0.0,0.0,0.0,0.0,0.0,0.0,1.0496,1.0496,1.0496,1.0496,1.0496,1.0496,1.0496,1.0718,1.082,1.082,1.104,1.1141,1.1141,1.1444,1.1585,1.161,1.2098,1.2496,1.2812,1.304,1.3314,1.3559,1.317,1.3457,1.4082,1.3743,1.3897,1.4337,1.4693,1.4857,1.5006,1.5684,1.5997,1.6128,1.6335,1.6426,1.652,1.6575,1.6731,1.6849,1.6701,1.6898,1.7145,1.7278,1.7451,1.7551,1.7217,1.7484,1.7859,1.7968,1.817,1.8333,1.8251,1.8417,1.8685,1.9004,1.9188,1.9462,1.9811,1.9798,1.985,2.0156,2.0207,2.0207,2.0207,2.0207,2.0156,2.0016,2.0042,2.0067,1.999,2.0042,2.0093,2.0093,2.0042,1.9978,1.9965,1.9914,1.9914,1.9965,1.985,1.9798,1.9798,1.9798,1.9798,0.0,0.304,0.0,0.0,0.0,0.0,0.4032,0.3789,0.0,0.0,0.0,0.0,0.0,0.0,0.0,0.0,0.0,0.0,0.0,0.0,0.0,0.0,0.0,0.0,0.0,1.0496,1.0496,1.0496,1.0496,1.0496,1.0496,1.0496,1.0496,1.0496,1.1023,1.1301,1.1301,1.176,1.2008,1.2008,1.2049,1.2098,1.2098,1.2652,1.2895,1.2909,1.3386,1.3597,1.3597,1.3621,1.389,1.4329,1.4252,1.4536,1.4977,1.4977,1.5029,1.5153,1.5195,1.5305,1.5499,1.5919,1.6047,1.6084,1.6203,1.6569,1.6877,1.6656,1.6983,1.7379,1.7379,1.7799,1.8077,1.759,1.8263,1.8869,1.839,1.8697,1.9119,1.9172,1.9526,1.9824,1.9875,2.0246,2.0511,2.0511,2.0372,2.0258,2.0258,2.0258,2.0258,2.0258,2.0258,2.0207,2.0067,2.0156,2.0182,2.0067,2.0156,2.0233,2.0233,2.0118,2.0093,2.0207,2.0093,2.0093,2.0207,1.9939,1.9837,1.9837,1.9837,1.9837,0.3335,0.363,0.3761,0.0,0.0,0.0,0.0,0.3265,0.0,0.0,0.0,0.0,0.0,0.0,0.0,0.0,0.0,0.0,0.0,0.0,0.0,0.0,0.0,0.0,0.0,1.0496,1.0496,1.0496,1.0496,1.0496,1.0496,1.0496,1.0496,1.0496,1.1023,1.1301,1.1301,1.176,1.2008,1.2008,1.2433,1.2643,1.2667,1.3194,1.3443,1.3443,1.3539,1.3597,1.3621,1.3716,1.4045,1.4432,1.4056,1.4241,1.4761,1.4761,1.4796,1.4849,1.523,1.545,1.5579,1.5676,1.576,1.5864,1.5901,1.6242,1.6667,1.7038,1.7539,1.7941,1.7941,1.8387,1.8801,1.8694,1.8827,1.9093,1.941,1.9566,1.9785,2.0258,2.0067,1.9965,2.0435,2.0599,2.0662,2.0662,2.0624,2.0599,2.0599,2.0599,2.0599,2.0599,2.0599,2.0549,2.041,2.0436,2.0436,2.041,2.0436,2.0436,2.0436,2.041,2.0322,2.0207,2.0182,2.0182,2.0207,2.0029,1.9952,1.9952,1.9952,1.9952,0.0,0.394,0.4081,0.3979,0.0,0.0,0.0,0.0,0.0,0.0,0.0,0.0,0.0,0.0,0.0,0.0,0.0,0.0,0.0,0.0,0.0,0.0,0.0,0.0,0.0,1.02,1.0272,1.048,1.0752,1.0769,1.0522,1.0964,1.1141,1.0896,1.166,1.2049,1.2049,1.254,1.2808,1.2808,1.3074,1.3194,1.3218,1.3491,1.3644,1.3692,1.3692,1.3739,1.3797,1.3868,1.4076,1.4329,1.4034,1.4087,1.4347,1.4347,1.4395,1.4489,1.4725,1.4884,1.5039,1.5278,1.539,1.544,1.544,1.5997,1.6676,1.7118,1.7885,1.8478,1.8181,1.8744,1.9317,1.9066,1.9434,1.9849,1.9811,2.0042,2.0334,2.0624,2.0473,2.0334,2.0649,2.0699,2.0699,2.0699,2.0699,2.0699,2.0699,2.0699,2.0699,2.0699,2.0699,2.0662,2.0511,2.0562,2.0562,2.0486,2.0562,2.0612,2.0612,2.0537,2.0461,2.0347,2.0423,2.0561,2.0797,2.066,2.056,2.0485,2.0485,2.0622,0.0,0.0,0.0,0.0,0.0,0.401,0.0,0.0,0.0,0.4062,0.0,0.0,0.0,0.0,0.0,0.0,0.0,0.0,0.0,0.0,0.0,0.0,0.0,0.0,0.0,0.9644,0.9803,1.0257,1.0722,1.0863,1.0554,1.1466,1.1834,1.1444,1.231,1.2788,1.2788,1.3362,1.3644,1.3644,1.3668,1.3692,1.3692,1.3692,1.3739,1.3844,1.3844,1.3892,1.3997,1.4033,1.4093,1.4199,1.408,1.4057,1.4091,1.4091,1.415,1.4246,1.4246,1.4303,1.4496,1.4951,1.5156,1.5263,1.5328,1.5971,1.6732,1.7096,1.806,1.8879,1.8379,1.9118,1.9862,1.9434,2.0029,2.0574,2.0093,2.0398,2.0737,2.0737,2.0762,2.0749,2.0699,2.0699,2.0699,2.0699,2.0699,2.0699,2.0699,2.0699,2.0699,2.0699,2.0699,2.0662,2.0537,2.0637,2.0662,2.0537,2.0637,2.0699,2.0699,2.0687,2.0687,2.0687,2.0873,2.1166,2.153,2.1431,2.1296,2.1175,2.1175,2.1379,0.0,0.0,0.0,0.0,0.4638,0.0,0.0,0.0,0.3798,0.334,0.0,0.0,0.0,0.0,0.0,0.0,0.0,0.0,0.0,0.0,0.0,0.0,0.0,0.0,0.0,0.0,0.884,0.9469,0.9757,1.0105,1.0648,1.1514,1.1983,1.1934,1.2482,1.2788,1.2788,1.3443,1.3773,1.3773,1.3892,1.3939,1.3939,1.3939,1.3973,1.3973,1.3973,1.3997,1.402,1.414,1.4199,1.4199,1.4176,1.4257,1.435,1.435,1.435,1.4373,1.4373,1.4384,1.4477,1.4948,1.5381,1.579,1.6219,1.642,1.661,1.7086,1.8044,1.8909,1.8834,1.971,2.0574,2.0524,2.0599,2.0674,2.0599,2.075,2.0888,2.0888,2.0924,2.0923,2.0724,2.0699,2.0699,2.0699,2.0699,2.0699,2.0699,2.0699,2.0699,2.0699,2.0699,2.0687,2.0687,2.0687,2.0687,2.0687,2.0687,2.0699,2.0699,2.1082,2.1302,2.1302,2.1718,2.1964,2.2011,2.2011,2.1941,2.1799,2.1799,2.1823,0.0,0.0,0.0,0.0,0.0,0.0,0.0,0.0,0.3771,0.0,0.0,0.0,0.0,0.0,0.0,0.0,0.0,0.0,0.0,0.0,0.0,0.0,0.0,0.0,0.0,0.0,0.0,0.0,0.0,0.9947,1.0386,1.1752,1.2497,1.2472,1.2967,1.3266,1.3266,1.3621,1.3797,1.3797,1.3949,1.3997,1.3997,1.3997,1.4033,1.4116,1.4116,1.4163,1.4244,1.428,1.4326,1.4326,1.4326,1.435,1.4396,1.4396,1.4396,1.4443,1.472,1.4811,1.488,1.5355,1.5645,1.5903,1.6355,1.6739,1.7064,1.7167,1.8081,1.9006,1.8909,1.9647,2.0488,2.0746,2.0837,2.0873,2.0873,2.0936,2.0961,2.0961,2.0972,2.0972,2.0898,2.0873,2.0848,2.0825,2.0825,2.08,2.0699,2.0699,2.0699,2.0699,2.0699,2.0699,2.0699,2.0699,2.0699,2.0699,2.0699,2.0823,2.1082,2.1302,2.153,2.1789,2.1988,2.2244,2.2558,2.2558,2.2694,2.2883,2.2612,2.2634,0.4375,0.0,0.0,0.0,0.0,0.0,0.0,0.0,0.0,0.0,0.0,0.0,0.0,0.0,0.0,0.0,0.0,0.0,0.0,0.0,0.0,0.0,0.0,0.0,0.0,0.0,0.0,0.0,0.0,0.0,1.0195,1.1819,1.2766,1.2817,1.3324,1.3621,1.3644,1.3797,1.3858,1.3905,1.4057,1.4114,1.4114,1.4114,1.4163,1.4246,1.4246,1.4326,1.4396,1.4396,1.4396,1.4396,1.4396,1.4396,1.4396,1.4396,1.4489,1.4628,1.4994,1.5266,1.5546,1.5888,1.6086,1.6247,1.6629,1.7037,1.7388,1.7303,1.8082,1.8922,1.8986,1.9612,2.0313,2.0803,2.0961,2.0997,2.0997,2.1033,2.1033,2.1033,2.1082,2.1106,2.1106,2.1033,2.0972,2.0924,2.0913,2.0863,2.0775,2.0712,2.0699,2.0699,2.0699,2.0699,2.0699,2.0699,2.0699,2.0699,2.0699,2.0848,2.118,2.1458,2.1756,2.2081,2.2383,2.2703,2.3091,2.3135,2.3312,2.3595,2.3246,2.3268,0.0,0.0,0.0,0.4154,0.0,0.0,0.0,0.0,0.3933,0.0,0.0,0.0,0.0,0.0,0.0,0.0,0.0,0.0,0.0,0.0,0.0,0.0,0.0,0.0,0.0,0.0,0.0,0.0,0.0,0.0,1.0196,1.1582,1.2492,1.2882,1.3359,1.3668,1.3787,1.3926,1.4057,1.4199,1.4326,1.4384,1.4384,1.4384,1.4384,1.4396,1.4396,1.4396,1.4396,1.4396,1.4396,1.4396,1.4396,1.4396,1.4396,1.4396,1.4697,1.5085,1.5085,1.5702,1.6457,1.6466,1.6786,1.7178,1.7342,1.7376,1.7418,1.7468,1.7948,1.8552,1.9132,1.9727,2.0337,2.0875,2.0997,2.0997,2.0997,2.1106,2.118,2.118,2.1302,2.1399,2.1399,2.118,2.0997,2.0997,2.0949,2.0901,2.0888,2.0775,2.0699,2.0699,2.0699,2.0699,2.0699,2.0699,2.0699,2.0699,2.0699,2.0699,2.0724,2.1599,2.2081,2.2105,2.3054,2.3551,2.3573,2.3696,2.3717,2.3595,2.3573,2.3588,0.0,0.0,0.4882,0.4343,0.0,0.0,0.0,0.0,0.0,0.0,0.0,0.0,0.0,0.0,0.0,0.0,0.0,0.0,0.0,0.0,0.0,0.0,0.0,0.0,0.0,0.0,0.0,0.0,0.0,0.0,0.0,1.143,1.2483,1.2894,1.3359,1.3668,1.3797,1.3939,1.408,1.4199,1.435,1.4396,1.4396,1.4396,1.4396,1.443,1.472,1.4857,1.488,1.5198,1.513,1.4903,1.5198,1.513,1.4857,1.4857,1.4971,1.5198,1.5812,1.65,1.7099,1.7099,1.722,1.7406,1.7447,1.7481,1.7468,1.7496,1.7697,1.8139,1.9048,1.9574,2.0092,2.0928,2.1204,2.1253,2.1253,2.1302,2.1326,2.1326,2.1375,2.1399,2.1399,2.1326,2.1229,2.1155,2.112,2.1084,2.0985,2.0923,2.0898,2.0898,2.0898,2.0886,2.0838,2.0825,2.0825,2.0825,2.0825,2.1095,2.1742,2.1964,2.2406,2.3076,2.3508,2.3739,2.3739,2.3861,2.3903,2.3861,2.376,2.3674,0.4922,0.5144,0.0,0.4805,0.4857,0.0,0.437,0.0,0.0,0.0,0.0,0.0,0.0,0.0,0.0,0.0,0.0,0.0,0.0,0.0,0.0,0.0,0.0,0.0,0.0,0.0,0.6381,0.6907,0.0,0.0,0.0,0.0,1.233,1.2789,1.3416,1.3821,1.3952,1.4033,1.414,1.4269,1.435,1.4396,1.4407,1.4558,1.4651,1.4674,1.5142,1.5345,1.5367,1.569,1.5611,1.539,1.5678,1.5623,1.5345,1.5345,1.5467,1.5778,1.6543,1.7086,1.7432,1.7432,1.7447,1.7496,1.755,1.757,1.757,1.7632,1.7706,1.803,1.9141,1.9575,1.9976,2.1032,2.135,2.1399,2.1399,2.1399,2.1399,2.1399,2.1399,2.1399,2.1399,2.1399,2.1375,2.1277,2.1229,2.118,2.1082,2.1033,2.0997,2.0997,2.0997,2.1046,2.1207,2.1207,2.1207,2.1207,2.1377,2.1664,2.2095,2.236,2.2793,2.3465,2.3739,2.3861,2.3861,2.4003,2.4046,2.4003,2.3961,2.3861]}]]